<?xml version="1.0" encoding="UTF-8" standalone="no" ?>
<gpx xmlns="http://www.topografix.com/GPX/1/1" xmlns:xsi="http://www.w3.org/2001/XMLSchema-instance" xsi:schemaLocation="http://www.topografix.com/GPX/1/1 http://www.topografix.com/GPX/1/1/gpx.xsd" version="1.1" creator="VisuGPX - https://www.visugpx.com">
  <metadata>
    <name>11654486-Montrichard</name>
    <desc><![CDATA[[url][url][/url][/url]]]></desc>
  </metadata>
  <trk>
    <name><![CDATA[11654486-Montrichard]]></name>
    <trkseg>
      <trkpt lat="47.42461" lon="0.5822">
        <ele>96</ele>
        <time>2020-07-11T16:00:19Z</time>
      </trkpt>
      <trkpt lat="47.42432" lon="0.58221">
        <ele>97</ele>
        <time>2020-07-11T16:00:24Z</time>
      </trkpt>
      <trkpt lat="47.42517" lon="0.58701">
        <ele>97</ele>
        <time>2020-07-11T16:01:24Z</time>
      </trkpt>
      <trkpt lat="47.42475" lon="0.58732">
        <ele>95</ele>
        <time>2020-07-11T16:01:32Z</time>
      </trkpt>
      <trkpt lat="47.42498" lon="0.58799">
        <ele>95</ele>
        <time>2020-07-11T16:01:41Z</time>
      </trkpt>
      <trkpt lat="47.42504" lon="0.58823">
        <ele>95</ele>
        <time>2020-07-11T16:01:44Z</time>
      </trkpt>
      <trkpt lat="47.42502" lon="0.58849">
        <ele>96</ele>
        <time>2020-07-11T16:01:48Z</time>
      </trkpt>
      <trkpt lat="47.4247" lon="0.59112">
        <ele>95</ele>
        <time>2020-07-11T16:02:20Z</time>
      </trkpt>
      <trkpt lat="47.4247" lon="0.59132">
        <ele>95</ele>
        <time>2020-07-11T16:02:22Z</time>
      </trkpt>
      <trkpt lat="47.42478" lon="0.59151">
        <ele>94</ele>
        <time>2020-07-11T16:02:25Z</time>
      </trkpt>
      <trkpt lat="47.42568" lon="0.59297">
        <ele>95</ele>
        <time>2020-07-11T16:02:49Z</time>
      </trkpt>
      <trkpt lat="47.4264" lon="0.59457">
        <ele>94</ele>
        <time>2020-07-11T16:03:12Z</time>
      </trkpt>
      <trkpt lat="47.42679" lon="0.59571">
        <ele>94</ele>
        <time>2020-07-11T16:03:27Z</time>
      </trkpt>
      <trkpt lat="47.42478" lon="0.59807">
        <ele>95</ele>
        <time>2020-07-11T16:04:13Z</time>
      </trkpt>
      <trkpt lat="47.42419" lon="0.59903">
        <ele>94</ele>
        <time>2020-07-11T16:04:28Z</time>
      </trkpt>
      <trkpt lat="47.42394" lon="0.59937">
        <ele>94</ele>
        <time>2020-07-11T16:04:34Z</time>
      </trkpt>
      <trkpt lat="47.42357" lon="0.59982">
        <ele>94</ele>
        <time>2020-07-11T16:04:43Z</time>
      </trkpt>
      <trkpt lat="47.4234" lon="0.59998">
        <ele>94</ele>
        <time>2020-07-11T16:04:47Z</time>
      </trkpt>
      <trkpt lat="47.42248" lon="0.60067">
        <ele>93</ele>
        <time>2020-07-11T16:05:05Z</time>
      </trkpt>
      <trkpt lat="47.42062" lon="0.60232">
        <ele>93</ele>
        <time>2020-07-11T16:05:43Z</time>
      </trkpt>
      <trkpt lat="47.42014" lon="0.60267">
        <ele>93</ele>
        <time>2020-07-11T16:05:53Z</time>
      </trkpt>
      <trkpt lat="47.41942" lon="0.60313">
        <ele>90</ele>
        <time>2020-07-11T16:06:07Z</time>
      </trkpt>
      <trkpt lat="47.41887" lon="0.60356">
        <ele>89</ele>
        <time>2020-07-11T16:06:18Z</time>
      </trkpt>
      <trkpt lat="47.41835" lon="0.60405">
        <ele>89</ele>
        <time>2020-07-11T16:06:29Z</time>
      </trkpt>
      <trkpt lat="47.41589" lon="0.60649">
        <ele>91</ele>
        <time>2020-07-11T16:07:22Z</time>
      </trkpt>
      <trkpt lat="47.41582" lon="0.60642">
        <ele>91</ele>
        <time>2020-07-11T16:07:23Z</time>
      </trkpt>
      <trkpt lat="47.41574" lon="0.60642">
        <ele>92</ele>
        <time>2020-07-11T16:07:25Z</time>
      </trkpt>
      <trkpt lat="47.41571" lon="0.60645">
        <ele>92</ele>
        <time>2020-07-11T16:07:25Z</time>
      </trkpt>
      <trkpt lat="47.41568" lon="0.60649">
        <ele>92</ele>
        <time>2020-07-11T16:07:26Z</time>
      </trkpt>
      <trkpt lat="47.41566" lon="0.60659">
        <ele>92</ele>
        <time>2020-07-11T16:07:27Z</time>
      </trkpt>
      <trkpt lat="47.41567" lon="0.6067">
        <ele>92</ele>
        <time>2020-07-11T16:07:29Z</time>
      </trkpt>
      <trkpt lat="47.4156" lon="0.60682">
        <ele>93</ele>
        <time>2020-07-11T16:07:30Z</time>
      </trkpt>
      <trkpt lat="47.41549" lon="0.60693">
        <ele>93</ele>
        <time>2020-07-11T16:07:33Z</time>
      </trkpt>
      <trkpt lat="47.41508" lon="0.60727">
        <ele>95</ele>
        <time>2020-07-11T16:07:41Z</time>
      </trkpt>
      <trkpt lat="47.41402" lon="0.60824">
        <ele>96</ele>
        <time>2020-07-11T16:08:03Z</time>
      </trkpt>
      <trkpt lat="47.41239" lon="0.60988">
        <ele>95</ele>
        <time>2020-07-11T16:08:38Z</time>
      </trkpt>
      <trkpt lat="47.41235" lon="0.60982">
        <ele>95</ele>
        <time>2020-07-11T16:08:40Z</time>
      </trkpt>
      <trkpt lat="47.41224" lon="0.60977">
        <ele>95</ele>
        <time>2020-07-11T16:08:42Z</time>
      </trkpt>
      <trkpt lat="47.41219" lon="0.60978">
        <ele>95</ele>
        <time>2020-07-11T16:08:42Z</time>
      </trkpt>
      <trkpt lat="47.41209" lon="0.60987">
        <ele>95</ele>
        <time>2020-07-11T16:08:45Z</time>
      </trkpt>
      <trkpt lat="47.41206" lon="0.60994">
        <ele>96</ele>
        <time>2020-07-11T16:08:46Z</time>
      </trkpt>
      <trkpt lat="47.41205" lon="0.61004">
        <ele>96</ele>
        <time>2020-07-11T16:08:47Z</time>
      </trkpt>
      <trkpt lat="47.41206" lon="0.61013">
        <ele>96</ele>
        <time>2020-07-11T16:08:48Z</time>
      </trkpt>
      <trkpt lat="47.41209" lon="0.61021">
        <ele>95</ele>
        <time>2020-07-11T16:08:49Z</time>
      </trkpt>
      <trkpt lat="47.41167" lon="0.61069">
        <ele>96</ele>
        <time>2020-07-11T16:08:58Z</time>
      </trkpt>
      <trkpt lat="47.40977" lon="0.61316">
        <ele>93</ele>
        <time>2020-07-11T16:09:43Z</time>
      </trkpt>
      <trkpt lat="47.40947" lon="0.61359">
        <ele>93</ele>
        <time>2020-07-11T16:09:51Z</time>
      </trkpt>
      <trkpt lat="47.40893" lon="0.61453">
        <ele>94</ele>
        <time>2020-07-11T16:10:06Z</time>
      </trkpt>
      <trkpt lat="47.40872" lon="0.61502">
        <ele>93</ele>
        <time>2020-07-11T16:10:13Z</time>
      </trkpt>
      <trkpt lat="47.40865" lon="0.61524">
        <ele>93</ele>
        <time>2020-07-11T16:10:16Z</time>
      </trkpt>
      <trkpt lat="47.40836" lon="0.61646">
        <ele>93</ele>
        <time>2020-07-11T16:10:31Z</time>
      </trkpt>
      <trkpt lat="47.4083" lon="0.6166">
        <ele>93</ele>
        <time>2020-07-11T16:10:33Z</time>
      </trkpt>
      <trkpt lat="47.40804" lon="0.6175">
        <ele>93</ele>
        <time>2020-07-11T16:10:45Z</time>
      </trkpt>
      <trkpt lat="47.40759" lon="0.61925">
        <ele>95</ele>
        <time>2020-07-11T16:11:08Z</time>
      </trkpt>
      <trkpt lat="47.40731" lon="0.62017">
        <ele>95</ele>
        <time>2020-07-11T16:11:20Z</time>
      </trkpt>
      <trkpt lat="47.40727" lon="0.62027">
        <ele>95</ele>
        <time>2020-07-11T16:11:21Z</time>
      </trkpt>
      <trkpt lat="47.40724" lon="0.62028">
        <ele>95</ele>
        <time>2020-07-11T16:11:22Z</time>
      </trkpt>
      <trkpt lat="47.4072" lon="0.62034">
        <ele>95</ele>
        <time>2020-07-11T16:11:23Z</time>
      </trkpt>
      <trkpt lat="47.4072" lon="0.62042">
        <ele>95</ele>
        <time>2020-07-11T16:11:24Z</time>
      </trkpt>
      <trkpt lat="47.40723" lon="0.62049">
        <ele>95</ele>
        <time>2020-07-11T16:11:25Z</time>
      </trkpt>
      <trkpt lat="47.40713" lon="0.62076">
        <ele>95</ele>
        <time>2020-07-11T16:11:28Z</time>
      </trkpt>
      <trkpt lat="47.40654" lon="0.62272">
        <ele>95</ele>
        <time>2020-07-11T16:11:54Z</time>
      </trkpt>
      <trkpt lat="47.40634" lon="0.62324">
        <ele>94</ele>
        <time>2020-07-11T16:12:01Z</time>
      </trkpt>
      <trkpt lat="47.40554" lon="0.6251">
        <ele>94</ele>
        <time>2020-07-11T16:12:28Z</time>
      </trkpt>
      <trkpt lat="47.40472" lon="0.62682">
        <ele>94</ele>
        <time>2020-07-11T16:12:53Z</time>
      </trkpt>
      <trkpt lat="47.40453" lon="0.62719">
        <ele>93</ele>
        <time>2020-07-11T16:12:59Z</time>
      </trkpt>
      <trkpt lat="47.40445" lon="0.62712">
        <ele>93</ele>
        <time>2020-07-11T16:13:00Z</time>
      </trkpt>
      <trkpt lat="47.4044" lon="0.62712">
        <ele>93</ele>
        <time>2020-07-11T16:13:01Z</time>
      </trkpt>
      <trkpt lat="47.40432" lon="0.62718">
        <ele>93</ele>
        <time>2020-07-11T16:13:03Z</time>
      </trkpt>
      <trkpt lat="47.40429" lon="0.62729">
        <ele>93</ele>
        <time>2020-07-11T16:13:04Z</time>
      </trkpt>
      <trkpt lat="47.4043" lon="0.62742">
        <ele>92</ele>
        <time>2020-07-11T16:13:06Z</time>
      </trkpt>
      <trkpt lat="47.40433" lon="0.62747">
        <ele>92</ele>
        <time>2020-07-11T16:13:07Z</time>
      </trkpt>
      <trkpt lat="47.40363" lon="0.6286">
        <ele>93</ele>
        <time>2020-07-11T16:13:25Z</time>
      </trkpt>
      <trkpt lat="47.40354" lon="0.6287">
        <ele>93</ele>
        <time>2020-07-11T16:13:27Z</time>
      </trkpt>
      <trkpt lat="47.40337" lon="0.62878">
        <ele>94</ele>
        <time>2020-07-11T16:13:30Z</time>
      </trkpt>
      <trkpt lat="47.40315" lon="0.62882">
        <ele>93</ele>
        <time>2020-07-11T16:13:34Z</time>
      </trkpt>
      <trkpt lat="47.40297" lon="0.62881">
        <ele>93</ele>
        <time>2020-07-11T16:13:38Z</time>
      </trkpt>
      <trkpt lat="47.40293" lon="0.62871">
        <ele>93</ele>
        <time>2020-07-11T16:13:39Z</time>
      </trkpt>
      <trkpt lat="47.40285" lon="0.62869">
        <ele>93</ele>
        <time>2020-07-11T16:13:40Z</time>
      </trkpt>
      <trkpt lat="47.40283" lon="0.62871">
        <ele>93</ele>
        <time>2020-07-11T16:13:41Z</time>
      </trkpt>
      <trkpt lat="47.40279" lon="0.62882">
        <ele>93</ele>
        <time>2020-07-11T16:13:42Z</time>
      </trkpt>
      <trkpt lat="47.40279" lon="0.62886">
        <ele>93</ele>
        <time>2020-07-11T16:13:43Z</time>
      </trkpt>
      <trkpt lat="47.4027" lon="0.6289">
        <ele>93</ele>
        <time>2020-07-11T16:13:44Z</time>
      </trkpt>
      <trkpt lat="47.40262" lon="0.62901">
        <ele>93</ele>
        <time>2020-07-11T16:13:46Z</time>
      </trkpt>
      <trkpt lat="47.40254" lon="0.62921">
        <ele>93</ele>
        <time>2020-07-11T16:13:49Z</time>
      </trkpt>
      <trkpt lat="47.40228" lon="0.63024">
        <ele>91</ele>
        <time>2020-07-11T16:14:02Z</time>
      </trkpt>
      <trkpt lat="47.40207" lon="0.63096">
        <ele>92</ele>
        <time>2020-07-11T16:14:12Z</time>
      </trkpt>
      <trkpt lat="47.40193" lon="0.63125">
        <ele>92</ele>
        <time>2020-07-11T16:14:16Z</time>
      </trkpt>
      <trkpt lat="47.40164" lon="0.63172">
        <ele>92</ele>
        <time>2020-07-11T16:14:24Z</time>
      </trkpt>
      <trkpt lat="47.40129" lon="0.63216">
        <ele>91</ele>
        <time>2020-07-11T16:14:32Z</time>
      </trkpt>
      <trkpt lat="47.40113" lon="0.63234">
        <ele>91</ele>
        <time>2020-07-11T16:14:36Z</time>
      </trkpt>
      <trkpt lat="47.40092" lon="0.63253">
        <ele>91</ele>
        <time>2020-07-11T16:14:40Z</time>
      </trkpt>
      <trkpt lat="47.39963" lon="0.63409">
        <ele>89</ele>
        <time>2020-07-11T16:15:10Z</time>
      </trkpt>
      <trkpt lat="47.39953" lon="0.63409">
        <ele>89</ele>
        <time>2020-07-11T16:15:11Z</time>
      </trkpt>
      <trkpt lat="47.39949" lon="0.63413">
        <ele>89</ele>
        <time>2020-07-11T16:15:12Z</time>
      </trkpt>
      <trkpt lat="47.39943" lon="0.63423">
        <ele>88</ele>
        <time>2020-07-11T16:15:14Z</time>
      </trkpt>
      <trkpt lat="47.39941" lon="0.63435">
        <ele>88</ele>
        <time>2020-07-11T16:15:15Z</time>
      </trkpt>
      <trkpt lat="47.39945" lon="0.63449">
        <ele>88</ele>
        <time>2020-07-11T16:15:17Z</time>
      </trkpt>
      <trkpt lat="47.39955" lon="0.63459">
        <ele>89</ele>
        <time>2020-07-11T16:15:19Z</time>
      </trkpt>
      <trkpt lat="47.39965" lon="0.6348">
        <ele>89</ele>
        <time>2020-07-11T16:15:22Z</time>
      </trkpt>
      <trkpt lat="47.39996" lon="0.63564">
        <ele>90</ele>
        <time>2020-07-11T16:15:34Z</time>
      </trkpt>
      <trkpt lat="47.40045" lon="0.63691">
        <ele>93</ele>
        <time>2020-07-11T16:15:52Z</time>
      </trkpt>
      <trkpt lat="47.40057" lon="0.63724">
        <ele>93</ele>
        <time>2020-07-11T16:15:56Z</time>
      </trkpt>
      <trkpt lat="47.40061" lon="0.63746">
        <ele>93</ele>
        <time>2020-07-11T16:15:59Z</time>
      </trkpt>
      <trkpt lat="47.40063" lon="0.6377">
        <ele>94</ele>
        <time>2020-07-11T16:16:02Z</time>
      </trkpt>
      <trkpt lat="47.40064" lon="0.63805">
        <ele>94</ele>
        <time>2020-07-11T16:16:06Z</time>
      </trkpt>
      <trkpt lat="47.40059" lon="0.63844">
        <ele>94</ele>
        <time>2020-07-11T16:16:11Z</time>
      </trkpt>
      <trkpt lat="47.40048" lon="0.63891">
        <ele>94</ele>
        <time>2020-07-11T16:16:17Z</time>
      </trkpt>
      <trkpt lat="47.40031" lon="0.63929">
        <ele>93</ele>
        <time>2020-07-11T16:16:22Z</time>
      </trkpt>
      <trkpt lat="47.39993" lon="0.63988">
        <ele>90</ele>
        <time>2020-07-11T16:16:32Z</time>
      </trkpt>
      <trkpt lat="47.3998" lon="0.64006">
        <ele>89</ele>
        <time>2020-07-11T16:16:35Z</time>
      </trkpt>
      <trkpt lat="47.39973" lon="0.63998">
        <ele>89</ele>
        <time>2020-07-11T16:16:37Z</time>
      </trkpt>
      <trkpt lat="47.39883" lon="0.64059">
        <ele>87</ele>
        <time>2020-07-11T16:16:54Z</time>
      </trkpt>
      <trkpt lat="47.39874" lon="0.64066">
        <ele>86</ele>
        <time>2020-07-11T16:16:56Z</time>
      </trkpt>
      <trkpt lat="47.39825" lon="0.64116">
        <ele>85</ele>
        <time>2020-07-11T16:17:07Z</time>
      </trkpt>
      <trkpt lat="47.39742" lon="0.64236">
        <ele>86</ele>
        <time>2020-07-11T16:17:27Z</time>
      </trkpt>
      <trkpt lat="47.39718" lon="0.64275">
        <ele>85</ele>
        <time>2020-07-11T16:17:34Z</time>
      </trkpt>
      <trkpt lat="47.39674" lon="0.64319">
        <ele>83</ele>
        <time>2020-07-11T16:17:43Z</time>
      </trkpt>
      <trkpt lat="47.39661" lon="0.64361">
        <ele>80</ele>
        <time>2020-07-11T16:17:49Z</time>
      </trkpt>
      <trkpt lat="47.39654" lon="0.64376">
        <ele>79</ele>
        <time>2020-07-11T16:17:51Z</time>
      </trkpt>
      <trkpt lat="47.39645" lon="0.64392">
        <ele>78</ele>
        <time>2020-07-11T16:17:53Z</time>
      </trkpt>
      <trkpt lat="47.39611" lon="0.64438">
        <ele>74</ele>
        <time>2020-07-11T16:18:02Z</time>
      </trkpt>
      <trkpt lat="47.39498" lon="0.64516">
        <ele>65</ele>
        <time>2020-07-11T16:18:24Z</time>
      </trkpt>
      <trkpt lat="47.39472" lon="0.64528">
        <ele>65</ele>
        <time>2020-07-11T16:18:29Z</time>
      </trkpt>
      <trkpt lat="47.39462" lon="0.64541">
        <ele>64</ele>
        <time>2020-07-11T16:18:31Z</time>
      </trkpt>
      <trkpt lat="47.39455" lon="0.64566">
        <ele>60</ele>
        <time>2020-07-11T16:18:34Z</time>
      </trkpt>
      <trkpt lat="47.39428" lon="0.64595">
        <ele>59</ele>
        <time>2020-07-11T16:18:40Z</time>
      </trkpt>
      <trkpt lat="47.39417" lon="0.64598">
        <ele>60</ele>
        <time>2020-07-11T16:18:42Z</time>
      </trkpt>
      <trkpt lat="47.39415" lon="0.64605">
        <ele>59</ele>
        <time>2020-07-11T16:18:43Z</time>
      </trkpt>
      <trkpt lat="47.39419" lon="0.6462">
        <ele>57</ele>
        <time>2020-07-11T16:18:45Z</time>
      </trkpt>
      <trkpt lat="47.39341" lon="0.64675">
        <ele>51</ele>
        <time>2020-07-11T16:19:01Z</time>
      </trkpt>
      <trkpt lat="47.39331" lon="0.64686">
        <ele>50</ele>
        <time>2020-07-11T16:19:03Z</time>
      </trkpt>
      <trkpt lat="47.39343" lon="0.64724">
        <ele>48</ele>
        <time>2020-07-11T16:19:08Z</time>
      </trkpt>
      <trkpt lat="47.39347" lon="0.6474">
        <ele>46</ele>
        <time>2020-07-11T16:19:10Z</time>
      </trkpt>
      <trkpt lat="47.39338" lon="0.64744">
        <ele>46</ele>
        <time>2020-07-11T16:19:12Z</time>
      </trkpt>
      <trkpt lat="47.39347" lon="0.64805">
        <ele>46</ele>
        <time>2020-07-11T16:19:19Z</time>
      </trkpt>
      <trkpt lat="47.39343" lon="0.64808">
        <ele>45</ele>
        <time>2020-07-11T16:19:20Z</time>
      </trkpt>
      <trkpt lat="47.39337" lon="0.64825">
        <ele>45</ele>
        <time>2020-07-11T16:19:22Z</time>
      </trkpt>
      <trkpt lat="47.39338" lon="0.64841">
        <ele>45</ele>
        <time>2020-07-11T16:19:24Z</time>
      </trkpt>
      <trkpt lat="47.39343" lon="0.64865">
        <ele>46</ele>
        <time>2020-07-11T16:19:27Z</time>
      </trkpt>
      <trkpt lat="47.39366" lon="0.64919">
        <ele>47</ele>
        <time>2020-07-11T16:19:35Z</time>
      </trkpt>
      <trkpt lat="47.39382" lon="0.64966">
        <ele>48</ele>
        <time>2020-07-11T16:19:41Z</time>
      </trkpt>
      <trkpt lat="47.39392" lon="0.64989">
        <ele>48</ele>
        <time>2020-07-11T16:19:44Z</time>
      </trkpt>
      <trkpt lat="47.3944" lon="0.65198">
        <ele>47</ele>
        <time>2020-07-11T16:20:11Z</time>
      </trkpt>
      <trkpt lat="47.39469" lon="0.65337">
        <ele>48</ele>
        <time>2020-07-11T16:20:29Z</time>
      </trkpt>
      <trkpt lat="47.3952" lon="0.65606">
        <ele>49</ele>
        <time>2020-07-11T16:21:02Z</time>
      </trkpt>
      <trkpt lat="47.39527" lon="0.65616">
        <ele>50</ele>
        <time>2020-07-11T16:21:04Z</time>
      </trkpt>
      <trkpt lat="47.39538" lon="0.65641">
        <ele>50</ele>
        <time>2020-07-11T16:21:08Z</time>
      </trkpt>
      <trkpt lat="47.39546" lon="0.65636">
        <ele>50</ele>
        <time>2020-07-11T16:21:09Z</time>
      </trkpt>
      <trkpt lat="47.39612" lon="0.65844">
        <ele>52</ele>
        <time>2020-07-11T16:21:37Z</time>
      </trkpt>
      <trkpt lat="47.3962" lon="0.65892">
        <ele>53</ele>
        <time>2020-07-11T16:21:43Z</time>
      </trkpt>
      <trkpt lat="47.3963" lon="0.65889">
        <ele>54</ele>
        <time>2020-07-11T16:21:44Z</time>
      </trkpt>
      <trkpt lat="47.39632" lon="0.65885">
        <ele>54</ele>
        <time>2020-07-11T16:21:45Z</time>
      </trkpt>
      <trkpt lat="47.3963" lon="0.65855">
        <ele>53</ele>
        <time>2020-07-11T16:21:49Z</time>
      </trkpt>
      <trkpt lat="47.39623" lon="0.65823">
        <ele>53</ele>
        <time>2020-07-11T16:21:53Z</time>
      </trkpt>
      <trkpt lat="47.39621" lon="0.65819">
        <ele>53</ele>
        <time>2020-07-11T16:21:53Z</time>
      </trkpt>
      <trkpt lat="47.39617" lon="0.65817">
        <ele>53</ele>
        <time>2020-07-11T16:21:54Z</time>
      </trkpt>
      <trkpt lat="47.39606" lon="0.65824">
        <ele>52</ele>
        <time>2020-07-11T16:21:56Z</time>
      </trkpt>
      <trkpt lat="47.39615" lon="0.65857">
        <ele>53</ele>
        <time>2020-07-11T16:22:01Z</time>
      </trkpt>
      <trkpt lat="47.39636" lon="0.66018">
        <ele>54</ele>
        <time>2020-07-11T16:22:20Z</time>
      </trkpt>
      <trkpt lat="47.39635" lon="0.66038">
        <ele>54</ele>
        <time>2020-07-11T16:22:23Z</time>
      </trkpt>
      <trkpt lat="47.39645" lon="0.66109">
        <ele>55</ele>
        <time>2020-07-11T16:22:31Z</time>
      </trkpt>
      <trkpt lat="47.39667" lon="0.66231">
        <ele>58</ele>
        <time>2020-07-11T16:22:47Z</time>
      </trkpt>
      <trkpt lat="47.3969" lon="0.66337">
        <ele>57</ele>
        <time>2020-07-11T16:23:00Z</time>
      </trkpt>
      <trkpt lat="47.397" lon="0.66394">
        <ele>58</ele>
        <time>2020-07-11T16:23:07Z</time>
      </trkpt>
      <trkpt lat="47.3973" lon="0.66606">
        <ele>56</ele>
        <time>2020-07-11T16:23:33Z</time>
      </trkpt>
      <trkpt lat="47.39734" lon="0.66633">
        <ele>55</ele>
        <time>2020-07-11T16:23:37Z</time>
      </trkpt>
      <trkpt lat="47.39736" lon="0.66651">
        <ele>54</ele>
        <time>2020-07-11T16:23:39Z</time>
      </trkpt>
      <trkpt lat="47.39741" lon="0.66688">
        <ele>53</ele>
        <time>2020-07-11T16:23:43Z</time>
      </trkpt>
      <trkpt lat="47.39741" lon="0.66696">
        <ele>53</ele>
        <time>2020-07-11T16:23:44Z</time>
      </trkpt>
      <trkpt lat="47.39742" lon="0.66705">
        <ele>52</ele>
        <time>2020-07-11T16:23:45Z</time>
      </trkpt>
      <trkpt lat="47.39744" lon="0.6672">
        <ele>52</ele>
        <time>2020-07-11T16:23:47Z</time>
      </trkpt>
      <trkpt lat="47.39745" lon="0.66729">
        <ele>52</ele>
        <time>2020-07-11T16:23:48Z</time>
      </trkpt>
      <trkpt lat="47.39748" lon="0.66744">
        <ele>52</ele>
        <time>2020-07-11T16:23:50Z</time>
      </trkpt>
      <trkpt lat="47.39751" lon="0.66758">
        <ele>52</ele>
        <time>2020-07-11T16:23:52Z</time>
      </trkpt>
      <trkpt lat="47.39756" lon="0.6679">
        <ele>53</ele>
        <time>2020-07-11T16:23:56Z</time>
      </trkpt>
      <trkpt lat="47.39765" lon="0.66834">
        <ele>56</ele>
        <time>2020-07-11T16:24:01Z</time>
      </trkpt>
      <trkpt lat="47.39767" lon="0.6685">
        <ele>56</ele>
        <time>2020-07-11T16:24:03Z</time>
      </trkpt>
      <trkpt lat="47.39782" lon="0.6693">
        <ele>59</ele>
        <time>2020-07-11T16:24:13Z</time>
      </trkpt>
      <trkpt lat="47.39793" lon="0.66975">
        <ele>60</ele>
        <time>2020-07-11T16:24:19Z</time>
      </trkpt>
      <trkpt lat="47.3983" lon="0.6707">
        <ele>60</ele>
        <time>2020-07-11T16:24:32Z</time>
      </trkpt>
      <trkpt lat="47.39868" lon="0.67221">
        <ele>58</ele>
        <time>2020-07-11T16:24:52Z</time>
      </trkpt>
      <trkpt lat="47.39889" lon="0.67281">
        <ele>57</ele>
        <time>2020-07-11T16:25:00Z</time>
      </trkpt>
      <trkpt lat="47.39898" lon="0.67311">
        <ele>56</ele>
        <time>2020-07-11T16:25:04Z</time>
      </trkpt>
      <trkpt lat="47.39902" lon="0.67325">
        <ele>55</ele>
        <time>2020-07-11T16:25:06Z</time>
      </trkpt>
      <trkpt lat="47.39911" lon="0.67357">
        <ele>55</ele>
        <time>2020-07-11T16:25:10Z</time>
      </trkpt>
      <trkpt lat="47.39915" lon="0.67377">
        <ele>55</ele>
        <time>2020-07-11T16:25:12Z</time>
      </trkpt>
      <trkpt lat="47.39922" lon="0.67399">
        <ele>56</ele>
        <time>2020-07-11T16:25:15Z</time>
      </trkpt>
      <trkpt lat="47.39923" lon="0.67398">
        <ele>56</ele>
        <time>2020-07-11T16:25:16Z</time>
      </trkpt>
      <trkpt lat="47.39926" lon="0.67396">
        <ele>57</ele>
        <time>2020-07-11T16:25:16Z</time>
      </trkpt>
      <trkpt lat="47.39935" lon="0.67426">
        <ele>58</ele>
        <time>2020-07-11T16:25:20Z</time>
      </trkpt>
      <trkpt lat="47.39956" lon="0.67499">
        <ele>57</ele>
        <time>2020-07-11T16:25:30Z</time>
      </trkpt>
      <trkpt lat="47.39957" lon="0.67507">
        <ele>57</ele>
        <time>2020-07-11T16:25:31Z</time>
      </trkpt>
      <trkpt lat="47.39956" lon="0.67513">
        <ele>57</ele>
        <time>2020-07-11T16:25:31Z</time>
      </trkpt>
      <trkpt lat="47.39953" lon="0.67517">
        <ele>56</ele>
        <time>2020-07-11T16:25:32Z</time>
      </trkpt>
      <trkpt lat="47.39951" lon="0.67519">
        <ele>56</ele>
        <time>2020-07-11T16:25:32Z</time>
      </trkpt>
      <trkpt lat="47.3995" lon="0.67519">
        <ele>55</ele>
        <time>2020-07-11T16:25:33Z</time>
      </trkpt>
      <trkpt lat="47.3961" lon="0.67692">
        <ele>51</ele>
        <time>2020-07-11T16:26:37Z</time>
      </trkpt>
      <trkpt lat="47.39603" lon="0.67698">
        <ele>51</ele>
        <time>2020-07-11T16:26:38Z</time>
      </trkpt>
      <trkpt lat="47.39597" lon="0.67701">
        <ele>52</ele>
        <time>2020-07-11T16:26:39Z</time>
      </trkpt>
      <trkpt lat="47.39599" lon="0.67713">
        <ele>52</ele>
        <time>2020-07-11T16:26:41Z</time>
      </trkpt>
      <trkpt lat="47.39601" lon="0.67722">
        <ele>52</ele>
        <time>2020-07-11T16:26:42Z</time>
      </trkpt>
      <trkpt lat="47.39626" lon="0.67842">
        <ele>54</ele>
        <time>2020-07-11T16:26:57Z</time>
      </trkpt>
      <trkpt lat="47.39629" lon="0.67854">
        <ele>53</ele>
        <time>2020-07-11T16:26:58Z</time>
      </trkpt>
      <trkpt lat="47.3964" lon="0.6791">
        <ele>54</ele>
        <time>2020-07-11T16:27:06Z</time>
      </trkpt>
      <trkpt lat="47.39659" lon="0.68001">
        <ele>53</ele>
        <time>2020-07-11T16:27:17Z</time>
      </trkpt>
      <trkpt lat="47.39665" lon="0.68052">
        <ele>54</ele>
        <time>2020-07-11T16:27:23Z</time>
      </trkpt>
      <trkpt lat="47.39673" lon="0.68202">
        <ele>53</ele>
        <time>2020-07-11T16:27:41Z</time>
      </trkpt>
      <trkpt lat="47.39667" lon="0.68255">
        <ele>52</ele>
        <time>2020-07-11T16:27:48Z</time>
      </trkpt>
      <trkpt lat="47.39658" lon="0.6836">
        <ele>52</ele>
        <time>2020-07-11T16:28:01Z</time>
      </trkpt>
      <trkpt lat="47.39654" lon="0.68373">
        <ele>52</ele>
        <time>2020-07-11T16:28:02Z</time>
      </trkpt>
      <trkpt lat="47.39686" lon="0.68538">
        <ele>52</ele>
        <time>2020-07-11T16:28:23Z</time>
      </trkpt>
      <trkpt lat="47.39686" lon="0.68552">
        <ele>51</ele>
        <time>2020-07-11T16:28:25Z</time>
      </trkpt>
      <trkpt lat="47.39682" lon="0.68589">
        <ele>51</ele>
        <time>2020-07-11T16:28:29Z</time>
      </trkpt>
      <trkpt lat="47.39686" lon="0.68608">
        <ele>51</ele>
        <time>2020-07-11T16:28:32Z</time>
      </trkpt>
      <trkpt lat="47.39685" lon="0.68626">
        <ele>51</ele>
        <time>2020-07-11T16:28:34Z</time>
      </trkpt>
      <trkpt lat="47.39682" lon="0.68627">
        <ele>51</ele>
        <time>2020-07-11T16:28:34Z</time>
      </trkpt>
      <trkpt lat="47.39678" lon="0.68629">
        <ele>51</ele>
        <time>2020-07-11T16:28:35Z</time>
      </trkpt>
      <trkpt lat="47.39671" lon="0.68632">
        <ele>52</ele>
        <time>2020-07-11T16:28:36Z</time>
      </trkpt>
      <trkpt lat="47.39741" lon="0.69007">
        <ele>52</ele>
        <time>2020-07-11T16:29:23Z</time>
      </trkpt>
      <trkpt lat="47.39744" lon="0.69065">
        <ele>51</ele>
        <time>2020-07-11T16:29:30Z</time>
      </trkpt>
      <trkpt lat="47.39746" lon="0.69152">
        <ele>53</ele>
        <time>2020-07-11T16:29:41Z</time>
      </trkpt>
      <trkpt lat="47.39747" lon="0.69283">
        <ele>55</ele>
        <time>2020-07-11T16:29:56Z</time>
      </trkpt>
      <trkpt lat="47.39753" lon="0.69283">
        <ele>55</ele>
        <time>2020-07-11T16:29:58Z</time>
      </trkpt>
      <trkpt lat="47.39756" lon="0.69284">
        <ele>54</ele>
        <time>2020-07-11T16:29:58Z</time>
      </trkpt>
      <trkpt lat="47.39766" lon="0.69777">
        <ele>54</ele>
        <time>2020-07-11T16:30:57Z</time>
      </trkpt>
      <trkpt lat="47.39766" lon="0.69817">
        <ele>54</ele>
        <time>2020-07-11T16:31:02Z</time>
      </trkpt>
      <trkpt lat="47.39763" lon="0.69843">
        <ele>54</ele>
        <time>2020-07-11T16:31:05Z</time>
      </trkpt>
      <trkpt lat="47.39762" lon="0.69902">
        <ele>54</ele>
        <time>2020-07-11T16:31:13Z</time>
      </trkpt>
      <trkpt lat="47.39764" lon="0.69918">
        <ele>54</ele>
        <time>2020-07-11T16:31:15Z</time>
      </trkpt>
      <trkpt lat="47.39764" lon="0.69964">
        <ele>54</ele>
        <time>2020-07-11T16:31:20Z</time>
      </trkpt>
      <trkpt lat="47.39762" lon="0.70156">
        <ele>54</ele>
        <time>2020-07-11T16:31:43Z</time>
      </trkpt>
      <trkpt lat="47.39734" lon="0.70405">
        <ele>53</ele>
        <time>2020-07-11T16:32:14Z</time>
      </trkpt>
      <trkpt lat="47.3973" lon="0.70423">
        <ele>53</ele>
        <time>2020-07-11T16:32:16Z</time>
      </trkpt>
      <trkpt lat="47.39724" lon="0.70433">
        <ele>53</ele>
        <time>2020-07-11T16:32:17Z</time>
      </trkpt>
      <trkpt lat="47.39708" lon="0.70581">
        <ele>51</ele>
        <time>2020-07-11T16:32:36Z</time>
      </trkpt>
      <trkpt lat="47.39712" lon="0.70588">
        <ele>51</ele>
        <time>2020-07-11T16:32:37Z</time>
      </trkpt>
      <trkpt lat="47.39714" lon="0.70593">
        <ele>51</ele>
        <time>2020-07-11T16:32:37Z</time>
      </trkpt>
      <trkpt lat="47.39713" lon="0.70619">
        <ele>51</ele>
        <time>2020-07-11T16:32:40Z</time>
      </trkpt>
      <trkpt lat="47.39711" lon="0.70652">
        <ele>51</ele>
        <time>2020-07-11T16:32:44Z</time>
      </trkpt>
      <trkpt lat="47.39704" lon="0.70759">
        <ele>53</ele>
        <time>2020-07-11T16:32:57Z</time>
      </trkpt>
      <trkpt lat="47.39704" lon="0.70775">
        <ele>52</ele>
        <time>2020-07-11T16:32:59Z</time>
      </trkpt>
      <trkpt lat="47.39701" lon="0.70834">
        <ele>50</ele>
        <time>2020-07-11T16:33:06Z</time>
      </trkpt>
      <trkpt lat="47.39699" lon="0.7087">
        <ele>50</ele>
        <time>2020-07-11T16:33:11Z</time>
      </trkpt>
      <trkpt lat="47.39698" lon="0.70999">
        <ele>49</ele>
        <time>2020-07-11T16:33:26Z</time>
      </trkpt>
      <trkpt lat="47.39701" lon="0.7107">
        <ele>49</ele>
        <time>2020-07-11T16:33:35Z</time>
      </trkpt>
      <trkpt lat="47.39702" lon="0.71248">
        <ele>48</ele>
        <time>2020-07-11T16:33:56Z</time>
      </trkpt>
      <trkpt lat="47.39706" lon="0.7132">
        <ele>49</ele>
        <time>2020-07-11T16:34:05Z</time>
      </trkpt>
      <trkpt lat="47.39705" lon="0.71367">
        <ele>49</ele>
        <time>2020-07-11T16:34:11Z</time>
      </trkpt>
      <trkpt lat="47.397" lon="0.71422">
        <ele>49</ele>
        <time>2020-07-11T16:34:17Z</time>
      </trkpt>
      <trkpt lat="47.39699" lon="0.71486">
        <ele>49</ele>
        <time>2020-07-11T16:34:25Z</time>
      </trkpt>
      <trkpt lat="47.39701" lon="0.71616">
        <ele>49</ele>
        <time>2020-07-11T16:34:41Z</time>
      </trkpt>
      <trkpt lat="47.39696" lon="0.72145">
        <ele>50</ele>
        <time>2020-07-11T16:35:45Z</time>
      </trkpt>
      <trkpt lat="47.39693" lon="0.72295">
        <ele>49</ele>
        <time>2020-07-11T16:36:03Z</time>
      </trkpt>
      <trkpt lat="47.39699" lon="0.72445">
        <ele>49</ele>
        <time>2020-07-11T16:36:21Z</time>
      </trkpt>
      <trkpt lat="47.39701" lon="0.72477">
        <ele>49</ele>
        <time>2020-07-11T16:36:25Z</time>
      </trkpt>
      <trkpt lat="47.39706" lon="0.72521">
        <ele>49</ele>
        <time>2020-07-11T16:36:30Z</time>
      </trkpt>
      <trkpt lat="47.39713" lon="0.72589">
        <ele>48</ele>
        <time>2020-07-11T16:36:38Z</time>
      </trkpt>
      <trkpt lat="47.39708" lon="0.72588">
        <ele>48</ele>
        <time>2020-07-11T16:36:39Z</time>
      </trkpt>
      <trkpt lat="47.397" lon="0.7259">
        <ele>48</ele>
        <time>2020-07-11T16:36:41Z</time>
      </trkpt>
      <trkpt lat="47.3969" lon="0.72604">
        <ele>49</ele>
        <time>2020-07-11T16:36:43Z</time>
      </trkpt>
      <trkpt lat="47.39686" lon="0.7261">
        <ele>49</ele>
        <time>2020-07-11T16:36:44Z</time>
      </trkpt>
      <trkpt lat="47.39674" lon="0.7265">
        <ele>50</ele>
        <time>2020-07-11T16:36:49Z</time>
      </trkpt>
      <trkpt lat="47.3967" lon="0.72652">
        <ele>50</ele>
        <time>2020-07-11T16:36:50Z</time>
      </trkpt>
      <trkpt lat="47.39678" lon="0.72758">
        <ele>51</ele>
        <time>2020-07-11T16:37:03Z</time>
      </trkpt>
      <trkpt lat="47.39694" lon="0.72886">
        <ele>49</ele>
        <time>2020-07-11T16:37:19Z</time>
      </trkpt>
      <trkpt lat="47.39717" lon="0.73014">
        <ele>51</ele>
        <time>2020-07-11T16:37:35Z</time>
      </trkpt>
      <trkpt lat="47.39743" lon="0.73136">
        <ele>52</ele>
        <time>2020-07-11T16:37:50Z</time>
      </trkpt>
      <trkpt lat="47.39755" lon="0.73179">
        <ele>51</ele>
        <time>2020-07-11T16:37:56Z</time>
      </trkpt>
      <trkpt lat="47.39785" lon="0.73266">
        <ele>51</ele>
        <time>2020-07-11T16:38:07Z</time>
      </trkpt>
      <trkpt lat="47.39867" lon="0.73489">
        <ele>48</ele>
        <time>2020-07-11T16:38:38Z</time>
      </trkpt>
      <trkpt lat="47.39966" lon="0.73773">
        <ele>51</ele>
        <time>2020-07-11T16:39:16Z</time>
      </trkpt>
      <trkpt lat="47.39987" lon="0.73844">
        <ele>50</ele>
        <time>2020-07-11T16:39:26Z</time>
      </trkpt>
      <trkpt lat="47.40006" lon="0.73935">
        <ele>50</ele>
        <time>2020-07-11T16:39:37Z</time>
      </trkpt>
      <trkpt lat="47.40038" lon="0.74144">
        <ele>50</ele>
        <time>2020-07-11T16:40:03Z</time>
      </trkpt>
      <trkpt lat="47.40059" lon="0.7425">
        <ele>47</ele>
        <time>2020-07-11T16:40:16Z</time>
      </trkpt>
      <trkpt lat="47.40176" lon="0.74768">
        <ele>48</ele>
        <time>2020-07-11T16:41:22Z</time>
      </trkpt>
      <trkpt lat="47.4019" lon="0.74852">
        <ele>48</ele>
        <time>2020-07-11T16:41:32Z</time>
      </trkpt>
      <trkpt lat="47.40197" lon="0.74908">
        <ele>49</ele>
        <time>2020-07-11T16:41:39Z</time>
      </trkpt>
      <trkpt lat="47.40207" lon="0.74984">
        <ele>50</ele>
        <time>2020-07-11T16:41:49Z</time>
      </trkpt>
      <trkpt lat="47.40227" lon="0.75079">
        <ele>52</ele>
        <time>2020-07-11T16:42:01Z</time>
      </trkpt>
      <trkpt lat="47.40241" lon="0.75186">
        <ele>53</ele>
        <time>2020-07-11T16:42:14Z</time>
      </trkpt>
      <trkpt lat="47.40254" lon="0.75268">
        <ele>52</ele>
        <time>2020-07-11T16:42:24Z</time>
      </trkpt>
      <trkpt lat="47.40268" lon="0.75334">
        <ele>50</ele>
        <time>2020-07-11T16:42:32Z</time>
      </trkpt>
      <trkpt lat="47.40276" lon="0.75362">
        <ele>50</ele>
        <time>2020-07-11T16:42:36Z</time>
      </trkpt>
      <trkpt lat="47.40286" lon="0.7541">
        <ele>49</ele>
        <time>2020-07-11T16:42:42Z</time>
      </trkpt>
      <trkpt lat="47.40328" lon="0.75588">
        <ele>55</ele>
        <time>2020-07-11T16:43:05Z</time>
      </trkpt>
      <trkpt lat="47.40347" lon="0.75699">
        <ele>51</ele>
        <time>2020-07-11T16:43:18Z</time>
      </trkpt>
      <trkpt lat="47.40373" lon="0.75904">
        <ele>51</ele>
        <time>2020-07-11T16:43:43Z</time>
      </trkpt>
      <trkpt lat="47.40396" lon="0.76068">
        <ele>52</ele>
        <time>2020-07-11T16:44:04Z</time>
      </trkpt>
      <trkpt lat="47.40405" lon="0.7616">
        <ele>53</ele>
        <time>2020-07-11T16:44:15Z</time>
      </trkpt>
      <trkpt lat="47.40411" lon="0.76315">
        <ele>52</ele>
        <time>2020-07-11T16:44:34Z</time>
      </trkpt>
      <trkpt lat="47.40411" lon="0.76356">
        <ele>52</ele>
        <time>2020-07-11T16:44:38Z</time>
      </trkpt>
      <trkpt lat="47.40406" lon="0.76437">
        <ele>53</ele>
        <time>2020-07-11T16:44:48Z</time>
      </trkpt>
      <trkpt lat="47.40401" lon="0.76489">
        <ele>54</ele>
        <time>2020-07-11T16:44:55Z</time>
      </trkpt>
      <trkpt lat="47.40385" lon="0.76585">
        <ele>51</ele>
        <time>2020-07-11T16:45:07Z</time>
      </trkpt>
      <trkpt lat="47.40312" lon="0.76893">
        <ele>55</ele>
        <time>2020-07-11T16:45:46Z</time>
      </trkpt>
      <trkpt lat="47.40295" lon="0.76933">
        <ele>55</ele>
        <time>2020-07-11T16:45:51Z</time>
      </trkpt>
      <trkpt lat="47.40286" lon="0.76946">
        <ele>55</ele>
        <time>2020-07-11T16:45:54Z</time>
      </trkpt>
      <trkpt lat="47.40281" lon="0.76951">
        <ele>55</ele>
        <time>2020-07-11T16:45:55Z</time>
      </trkpt>
      <trkpt lat="47.40276" lon="0.7695">
        <ele>55</ele>
        <time>2020-07-11T16:45:56Z</time>
      </trkpt>
      <trkpt lat="47.40271" lon="0.76953">
        <ele>55</ele>
        <time>2020-07-11T16:45:57Z</time>
      </trkpt>
      <trkpt lat="47.40264" lon="0.76963">
        <ele>55</ele>
        <time>2020-07-11T16:45:58Z</time>
      </trkpt>
      <trkpt lat="47.40263" lon="0.76978">
        <ele>55</ele>
        <time>2020-07-11T16:46:00Z</time>
      </trkpt>
      <trkpt lat="47.40265" lon="0.76986">
        <ele>55</ele>
        <time>2020-07-11T16:46:01Z</time>
      </trkpt>
      <trkpt lat="47.40269" lon="0.76992">
        <ele>55</ele>
        <time>2020-07-11T16:46:02Z</time>
      </trkpt>
      <trkpt lat="47.40274" lon="0.76996">
        <ele>55</ele>
        <time>2020-07-11T16:46:03Z</time>
      </trkpt>
      <trkpt lat="47.40284" lon="0.76995">
        <ele>55</ele>
        <time>2020-07-11T16:46:05Z</time>
      </trkpt>
      <trkpt lat="47.40289" lon="0.76989">
        <ele>55</ele>
        <time>2020-07-11T16:46:06Z</time>
      </trkpt>
      <trkpt lat="47.40293" lon="0.76982">
        <ele>55</ele>
        <time>2020-07-11T16:46:07Z</time>
      </trkpt>
      <trkpt lat="47.40297" lon="0.76985">
        <ele>55</ele>
        <time>2020-07-11T16:46:08Z</time>
      </trkpt>
      <trkpt lat="47.403" lon="0.76993">
        <ele>54</ele>
        <time>2020-07-11T16:46:09Z</time>
      </trkpt>
      <trkpt lat="47.40293" lon="0.77085">
        <ele>53</ele>
        <time>2020-07-11T16:46:20Z</time>
      </trkpt>
      <trkpt lat="47.40281" lon="0.77164">
        <ele>54</ele>
        <time>2020-07-11T16:46:30Z</time>
      </trkpt>
      <trkpt lat="47.40264" lon="0.77358">
        <ele>53</ele>
        <time>2020-07-11T16:46:54Z</time>
      </trkpt>
      <trkpt lat="47.40267" lon="0.7744">
        <ele>55</ele>
        <time>2020-07-11T16:47:04Z</time>
      </trkpt>
      <trkpt lat="47.40294" lon="0.77683">
        <ele>51</ele>
        <time>2020-07-11T16:47:33Z</time>
      </trkpt>
      <trkpt lat="47.403" lon="0.7777">
        <ele>52</ele>
        <time>2020-07-11T16:47:44Z</time>
      </trkpt>
      <trkpt lat="47.40312" lon="0.77853">
        <ele>54</ele>
        <time>2020-07-11T16:47:54Z</time>
      </trkpt>
      <trkpt lat="47.40313" lon="0.77945">
        <ele>55</ele>
        <time>2020-07-11T16:48:05Z</time>
      </trkpt>
      <trkpt lat="47.40316" lon="0.77986">
        <ele>55</ele>
        <time>2020-07-11T16:48:10Z</time>
      </trkpt>
      <trkpt lat="47.40323" lon="0.78053">
        <ele>54</ele>
        <time>2020-07-11T16:48:18Z</time>
      </trkpt>
      <trkpt lat="47.40319" lon="0.782">
        <ele>52</ele>
        <time>2020-07-11T16:48:36Z</time>
      </trkpt>
      <trkpt lat="47.40322" lon="0.78233">
        <ele>52</ele>
        <time>2020-07-11T16:48:40Z</time>
      </trkpt>
      <trkpt lat="47.4032" lon="0.78328">
        <ele>52</ele>
        <time>2020-07-11T16:48:51Z</time>
      </trkpt>
      <trkpt lat="47.40323" lon="0.78368">
        <ele>53</ele>
        <time>2020-07-11T16:48:56Z</time>
      </trkpt>
      <trkpt lat="47.40322" lon="0.78386">
        <ele>53</ele>
        <time>2020-07-11T16:48:58Z</time>
      </trkpt>
      <trkpt lat="47.40317" lon="0.78438">
        <ele>54</ele>
        <time>2020-07-11T16:49:05Z</time>
      </trkpt>
      <trkpt lat="47.40317" lon="0.7853">
        <ele>53</ele>
        <time>2020-07-11T16:49:16Z</time>
      </trkpt>
      <trkpt lat="47.40315" lon="0.78541">
        <ele>53</ele>
        <time>2020-07-11T16:49:17Z</time>
      </trkpt>
      <trkpt lat="47.40298" lon="0.78565">
        <ele>53</ele>
        <time>2020-07-11T16:49:21Z</time>
      </trkpt>
      <trkpt lat="47.40296" lon="0.78571">
        <ele>53</ele>
        <time>2020-07-11T16:49:22Z</time>
      </trkpt>
      <trkpt lat="47.40285" lon="0.78713">
        <ele>54</ele>
        <time>2020-07-11T16:49:39Z</time>
      </trkpt>
      <trkpt lat="47.40275" lon="0.78814">
        <ele>55</ele>
        <time>2020-07-11T16:49:52Z</time>
      </trkpt>
      <trkpt lat="47.40271" lon="0.78833">
        <ele>54</ele>
        <time>2020-07-11T16:49:54Z</time>
      </trkpt>
      <trkpt lat="47.40253" lon="0.78909">
        <ele>57</ele>
        <time>2020-07-11T16:50:04Z</time>
      </trkpt>
      <trkpt lat="47.40237" lon="0.78962">
        <ele>56</ele>
        <time>2020-07-11T16:50:11Z</time>
      </trkpt>
      <trkpt lat="47.40221" lon="0.78994">
        <ele>55</ele>
        <time>2020-07-11T16:50:16Z</time>
      </trkpt>
      <trkpt lat="47.40147" lon="0.79335">
        <ele>51</ele>
        <time>2020-07-11T16:50:59Z</time>
      </trkpt>
      <trkpt lat="47.40137" lon="0.79392">
        <ele>50</ele>
        <time>2020-07-11T16:51:06Z</time>
      </trkpt>
      <trkpt lat="47.40135" lon="0.79413">
        <ele>50</ele>
        <time>2020-07-11T16:51:08Z</time>
      </trkpt>
      <trkpt lat="47.40136" lon="0.79434">
        <ele>50</ele>
        <time>2020-07-11T16:51:11Z</time>
      </trkpt>
      <trkpt lat="47.40146" lon="0.79509">
        <ele>52</ele>
        <time>2020-07-11T16:51:20Z</time>
      </trkpt>
      <trkpt lat="47.40145" lon="0.79524">
        <ele>52</ele>
        <time>2020-07-11T16:51:22Z</time>
      </trkpt>
      <trkpt lat="47.40132" lon="0.79546">
        <ele>52</ele>
        <time>2020-07-11T16:51:25Z</time>
      </trkpt>
      <trkpt lat="47.4013" lon="0.79586">
        <ele>53</ele>
        <time>2020-07-11T16:51:30Z</time>
      </trkpt>
      <trkpt lat="47.40125" lon="0.7964">
        <ele>52</ele>
        <time>2020-07-11T16:51:37Z</time>
      </trkpt>
      <trkpt lat="47.40126" lon="0.79646">
        <ele>51</ele>
        <time>2020-07-11T16:51:37Z</time>
      </trkpt>
      <trkpt lat="47.4013" lon="0.79654">
        <ele>51</ele>
        <time>2020-07-11T16:51:39Z</time>
      </trkpt>
      <trkpt lat="47.40137" lon="0.79656">
        <ele>51</ele>
        <time>2020-07-11T16:51:40Z</time>
      </trkpt>
      <trkpt lat="47.40148" lon="0.79639">
        <ele>51</ele>
        <time>2020-07-11T16:51:43Z</time>
      </trkpt>
      <trkpt lat="47.4015" lon="0.79638">
        <ele>51</ele>
        <time>2020-07-11T16:51:43Z</time>
      </trkpt>
      <trkpt lat="47.40153" lon="0.7964">
        <ele>51</ele>
        <time>2020-07-11T16:51:44Z</time>
      </trkpt>
      <trkpt lat="47.40154" lon="0.79644">
        <ele>51</ele>
        <time>2020-07-11T16:51:44Z</time>
      </trkpt>
      <trkpt lat="47.40154" lon="0.7965">
        <ele>51</ele>
        <time>2020-07-11T16:51:45Z</time>
      </trkpt>
      <trkpt lat="47.40133" lon="0.79711">
        <ele>50</ele>
        <time>2020-07-11T16:51:53Z</time>
      </trkpt>
      <trkpt lat="47.40111" lon="0.79789">
        <ele>51</ele>
        <time>2020-07-11T16:52:03Z</time>
      </trkpt>
      <trkpt lat="47.40086" lon="0.79871">
        <ele>51</ele>
        <time>2020-07-11T16:52:14Z</time>
      </trkpt>
      <trkpt lat="47.40069" lon="0.79939">
        <ele>51</ele>
        <time>2020-07-11T16:52:23Z</time>
      </trkpt>
      <trkpt lat="47.40049" lon="0.80004">
        <ele>52</ele>
        <time>2020-07-11T16:52:32Z</time>
      </trkpt>
      <trkpt lat="47.40026" lon="0.80069">
        <ele>51</ele>
        <time>2020-07-11T16:52:40Z</time>
      </trkpt>
      <trkpt lat="47.39998" lon="0.8012">
        <ele>52</ele>
        <time>2020-07-11T16:52:48Z</time>
      </trkpt>
      <trkpt lat="47.39961" lon="0.80167">
        <ele>52</ele>
        <time>2020-07-11T16:52:57Z</time>
      </trkpt>
      <trkpt lat="47.39899" lon="0.80266">
        <ele>54</ele>
        <time>2020-07-11T16:53:13Z</time>
      </trkpt>
      <trkpt lat="47.39864" lon="0.80312">
        <ele>54</ele>
        <time>2020-07-11T16:53:22Z</time>
      </trkpt>
      <trkpt lat="47.39855" lon="0.80327">
        <ele>53</ele>
        <time>2020-07-11T16:53:24Z</time>
      </trkpt>
      <trkpt lat="47.39829" lon="0.80387">
        <ele>54</ele>
        <time>2020-07-11T16:53:33Z</time>
      </trkpt>
      <trkpt lat="47.39803" lon="0.80427">
        <ele>53</ele>
        <time>2020-07-11T16:53:39Z</time>
      </trkpt>
      <trkpt lat="47.39795" lon="0.80444">
        <ele>53</ele>
        <time>2020-07-11T16:53:42Z</time>
      </trkpt>
      <trkpt lat="47.39769" lon="0.80536">
        <ele>52</ele>
        <time>2020-07-11T16:53:54Z</time>
      </trkpt>
      <trkpt lat="47.39762" lon="0.80558">
        <ele>52</ele>
        <time>2020-07-11T16:53:57Z</time>
      </trkpt>
      <trkpt lat="47.39752" lon="0.80575">
        <ele>52</ele>
        <time>2020-07-11T16:53:59Z</time>
      </trkpt>
      <trkpt lat="47.39732" lon="0.80606">
        <ele>52</ele>
        <time>2020-07-11T16:54:05Z</time>
      </trkpt>
      <trkpt lat="47.39693" lon="0.80647">
        <ele>52</ele>
        <time>2020-07-11T16:54:13Z</time>
      </trkpt>
      <trkpt lat="47.39672" lon="0.80671">
        <ele>53</ele>
        <time>2020-07-11T16:54:18Z</time>
      </trkpt>
      <trkpt lat="47.39659" lon="0.80695">
        <ele>52</ele>
        <time>2020-07-11T16:54:21Z</time>
      </trkpt>
      <trkpt lat="47.3962" lon="0.80779">
        <ele>51</ele>
        <time>2020-07-11T16:54:34Z</time>
      </trkpt>
      <trkpt lat="47.39594" lon="0.80848">
        <ele>52</ele>
        <time>2020-07-11T16:54:43Z</time>
      </trkpt>
      <trkpt lat="47.3957" lon="0.80932">
        <ele>52</ele>
        <time>2020-07-11T16:54:54Z</time>
      </trkpt>
      <trkpt lat="47.3955" lon="0.8102">
        <ele>50</ele>
        <time>2020-07-11T16:55:05Z</time>
      </trkpt>
      <trkpt lat="47.39541" lon="0.81032">
        <ele>50</ele>
        <time>2020-07-11T16:55:08Z</time>
      </trkpt>
      <trkpt lat="47.39533" lon="0.81055">
        <ele>50</ele>
        <time>2020-07-11T16:55:11Z</time>
      </trkpt>
      <trkpt lat="47.39529" lon="0.81056">
        <ele>50</ele>
        <time>2020-07-11T16:55:11Z</time>
      </trkpt>
      <trkpt lat="47.39519" lon="0.81046">
        <ele>51</ele>
        <time>2020-07-11T16:55:14Z</time>
      </trkpt>
      <trkpt lat="47.39521" lon="0.81039">
        <ele>51</ele>
        <time>2020-07-11T16:55:14Z</time>
      </trkpt>
      <trkpt lat="47.39518" lon="0.81037">
        <ele>51</ele>
        <time>2020-07-11T16:55:15Z</time>
      </trkpt>
      <trkpt lat="47.39513" lon="0.81054">
        <ele>51</ele>
        <time>2020-07-11T16:55:17Z</time>
      </trkpt>
      <trkpt lat="47.39482" lon="0.81126">
        <ele>50</ele>
        <time>2020-07-11T16:55:28Z</time>
      </trkpt>
      <trkpt lat="47.39443" lon="0.81201">
        <ele>50</ele>
        <time>2020-07-11T16:55:39Z</time>
      </trkpt>
      <trkpt lat="47.39418" lon="0.81237">
        <ele>49</ele>
        <time>2020-07-11T16:55:45Z</time>
      </trkpt>
      <trkpt lat="47.39367" lon="0.81297">
        <ele>50</ele>
        <time>2020-07-11T16:55:57Z</time>
      </trkpt>
      <trkpt lat="47.3935" lon="0.81325">
        <ele>50</ele>
        <time>2020-07-11T16:56:01Z</time>
      </trkpt>
      <trkpt lat="47.39331" lon="0.81368">
        <ele>50</ele>
        <time>2020-07-11T16:56:07Z</time>
      </trkpt>
      <trkpt lat="47.39292" lon="0.81475">
        <ele>49</ele>
        <time>2020-07-11T16:56:22Z</time>
      </trkpt>
      <trkpt lat="47.39249" lon="0.81614">
        <ele>48</ele>
        <time>2020-07-11T16:56:41Z</time>
      </trkpt>
      <trkpt lat="47.39233" lon="0.81651">
        <ele>48</ele>
        <time>2020-07-11T16:56:46Z</time>
      </trkpt>
      <trkpt lat="47.39216" lon="0.81697">
        <ele>49</ele>
        <time>2020-07-11T16:56:52Z</time>
      </trkpt>
      <trkpt lat="47.39189" lon="0.8178">
        <ele>52</ele>
        <time>2020-07-11T16:57:03Z</time>
      </trkpt>
      <trkpt lat="47.39182" lon="0.81793">
        <ele>53</ele>
        <time>2020-07-11T16:57:05Z</time>
      </trkpt>
      <trkpt lat="47.3917" lon="0.81829">
        <ele>53</ele>
        <time>2020-07-11T16:57:10Z</time>
      </trkpt>
      <trkpt lat="47.3914" lon="0.81946">
        <ele>51</ele>
        <time>2020-07-11T16:57:25Z</time>
      </trkpt>
      <trkpt lat="47.39046" lon="0.82277">
        <ele>53</ele>
        <time>2020-07-11T16:58:08Z</time>
      </trkpt>
      <trkpt lat="47.39039" lon="0.82327">
        <ele>52</ele>
        <time>2020-07-11T16:58:15Z</time>
      </trkpt>
      <trkpt lat="47.39027" lon="0.8246">
        <ele>52</ele>
        <time>2020-07-11T16:58:31Z</time>
      </trkpt>
      <trkpt lat="47.39024" lon="0.82507">
        <ele>52</ele>
        <time>2020-07-11T16:58:36Z</time>
      </trkpt>
      <trkpt lat="47.39026" lon="0.82552">
        <ele>52</ele>
        <time>2020-07-11T16:58:42Z</time>
      </trkpt>
      <trkpt lat="47.39061" lon="0.82936">
        <ele>54</ele>
        <time>2020-07-11T16:59:28Z</time>
      </trkpt>
      <trkpt lat="47.39068" lon="0.83049">
        <ele>55</ele>
        <time>2020-07-11T16:59:42Z</time>
      </trkpt>
      <trkpt lat="47.39072" lon="0.83128">
        <ele>56</ele>
        <time>2020-07-11T16:59:52Z</time>
      </trkpt>
      <trkpt lat="47.39074" lon="0.83241">
        <ele>56</ele>
        <time>2020-07-11T17:00:05Z</time>
      </trkpt>
      <trkpt lat="47.39093" lon="0.83614">
        <ele>58</ele>
        <time>2020-07-11T17:00:50Z</time>
      </trkpt>
      <trkpt lat="47.39097" lon="0.83761">
        <ele>57</ele>
        <time>2020-07-11T17:01:08Z</time>
      </trkpt>
      <trkpt lat="47.39099" lon="0.83804">
        <ele>59</ele>
        <time>2020-07-11T17:01:13Z</time>
      </trkpt>
      <trkpt lat="47.39105" lon="0.83871">
        <ele>59</ele>
        <time>2020-07-11T17:01:21Z</time>
      </trkpt>
      <trkpt lat="47.39105" lon="0.83926">
        <ele>59</ele>
        <time>2020-07-11T17:01:28Z</time>
      </trkpt>
      <trkpt lat="47.39103" lon="0.84014">
        <ele>57</ele>
        <time>2020-07-11T17:01:39Z</time>
      </trkpt>
      <trkpt lat="47.39106" lon="0.84146">
        <ele>61</ele>
        <time>2020-07-11T17:01:55Z</time>
      </trkpt>
      <trkpt lat="47.39117" lon="0.84415">
        <ele>66</ele>
        <time>2020-07-11T17:02:27Z</time>
      </trkpt>
      <trkpt lat="47.39129" lon="0.84548">
        <ele>64</ele>
        <time>2020-07-11T17:02:43Z</time>
      </trkpt>
      <trkpt lat="47.39131" lon="0.84614">
        <ele>64</ele>
        <time>2020-07-11T17:02:51Z</time>
      </trkpt>
      <trkpt lat="47.39131" lon="0.84739">
        <ele>63</ele>
        <time>2020-07-11T17:03:06Z</time>
      </trkpt>
      <trkpt lat="47.39114" lon="0.85185">
        <ele>71</ele>
        <time>2020-07-11T17:04:00Z</time>
      </trkpt>
      <trkpt lat="47.39116" lon="0.85219">
        <ele>70</ele>
        <time>2020-07-11T17:04:04Z</time>
      </trkpt>
      <trkpt lat="47.3914" lon="0.85376">
        <ele>61</ele>
        <time>2020-07-11T17:04:24Z</time>
      </trkpt>
      <trkpt lat="47.39139" lon="0.85377">
        <ele>61</ele>
        <time>2020-07-11T17:04:24Z</time>
      </trkpt>
      <trkpt lat="47.39135" lon="0.85455">
        <ele>62</ele>
        <time>2020-07-11T17:04:33Z</time>
      </trkpt>
      <trkpt lat="47.39135" lon="0.85486">
        <ele>62</ele>
        <time>2020-07-11T17:04:37Z</time>
      </trkpt>
      <trkpt lat="47.3914" lon="0.85495">
        <ele>61</ele>
        <time>2020-07-11T17:04:38Z</time>
      </trkpt>
      <trkpt lat="47.39133" lon="0.85526">
        <ele>63</ele>
        <time>2020-07-11T17:04:42Z</time>
      </trkpt>
      <trkpt lat="47.39123" lon="0.85611">
        <ele>67</ele>
        <time>2020-07-11T17:04:53Z</time>
      </trkpt>
      <trkpt lat="47.39119" lon="0.85756">
        <ele>68</ele>
        <time>2020-07-11T17:05:10Z</time>
      </trkpt>
      <trkpt lat="47.39114" lon="0.86002">
        <ele>60</ele>
        <time>2020-07-11T17:05:40Z</time>
      </trkpt>
      <trkpt lat="47.39115" lon="0.86078">
        <ele>60</ele>
        <time>2020-07-11T17:05:49Z</time>
      </trkpt>
      <trkpt lat="47.39123" lon="0.86164">
        <ele>59</ele>
        <time>2020-07-11T17:05:59Z</time>
      </trkpt>
      <trkpt lat="47.39125" lon="0.86202">
        <ele>58</ele>
        <time>2020-07-11T17:06:04Z</time>
      </trkpt>
      <trkpt lat="47.39123" lon="0.86228">
        <ele>58</ele>
        <time>2020-07-11T17:06:07Z</time>
      </trkpt>
      <trkpt lat="47.39116" lon="0.86254">
        <ele>57</ele>
        <time>2020-07-11T17:06:10Z</time>
      </trkpt>
      <trkpt lat="47.39103" lon="0.86284">
        <ele>57</ele>
        <time>2020-07-11T17:06:15Z</time>
      </trkpt>
      <trkpt lat="47.3909" lon="0.86302">
        <ele>57</ele>
        <time>2020-07-11T17:06:18Z</time>
      </trkpt>
      <trkpt lat="47.38934" lon="0.86395">
        <ele>62</ele>
        <time>2020-07-11T17:06:48Z</time>
      </trkpt>
      <trkpt lat="47.38845" lon="0.86444">
        <ele>64</ele>
        <time>2020-07-11T17:07:05Z</time>
      </trkpt>
      <trkpt lat="47.38814" lon="0.86458">
        <ele>64</ele>
        <time>2020-07-11T17:07:11Z</time>
      </trkpt>
      <trkpt lat="47.38731" lon="0.86484">
        <ele>64</ele>
        <time>2020-07-11T17:07:26Z</time>
      </trkpt>
      <trkpt lat="47.38682" lon="0.86493">
        <ele>64</ele>
        <time>2020-07-11T17:07:34Z</time>
      </trkpt>
      <trkpt lat="47.38596" lon="0.86498">
        <ele>64</ele>
        <time>2020-07-11T17:07:50Z</time>
      </trkpt>
      <trkpt lat="47.38524" lon="0.86486">
        <ele>64</ele>
        <time>2020-07-11T17:08:03Z</time>
      </trkpt>
      <trkpt lat="47.3851" lon="0.86488">
        <ele>64</ele>
        <time>2020-07-11T17:08:05Z</time>
      </trkpt>
      <trkpt lat="47.38494" lon="0.86492">
        <ele>64</ele>
        <time>2020-07-11T17:08:08Z</time>
      </trkpt>
      <trkpt lat="47.38422" lon="0.86523">
        <ele>65</ele>
        <time>2020-07-11T17:08:21Z</time>
      </trkpt>
      <trkpt lat="47.38343" lon="0.86561">
        <ele>66</ele>
        <time>2020-07-11T17:08:36Z</time>
      </trkpt>
      <trkpt lat="47.38305" lon="0.86582">
        <ele>66</ele>
        <time>2020-07-11T17:08:43Z</time>
      </trkpt>
      <trkpt lat="47.38285" lon="0.86596">
        <ele>66</ele>
        <time>2020-07-11T17:08:47Z</time>
      </trkpt>
      <trkpt lat="47.38197" lon="0.86663">
        <ele>66</ele>
        <time>2020-07-11T17:09:05Z</time>
      </trkpt>
      <trkpt lat="47.38087" lon="0.86733">
        <ele>68</ele>
        <time>2020-07-11T17:09:26Z</time>
      </trkpt>
      <trkpt lat="47.38074" lon="0.86744">
        <ele>68</ele>
        <time>2020-07-11T17:09:29Z</time>
      </trkpt>
      <trkpt lat="47.38049" lon="0.86768">
        <ele>69</ele>
        <time>2020-07-11T17:09:34Z</time>
      </trkpt>
      <trkpt lat="47.37958" lon="0.86888">
        <ele>70</ele>
        <time>2020-07-11T17:09:56Z</time>
      </trkpt>
      <trkpt lat="47.37937" lon="0.8691">
        <ele>71</ele>
        <time>2020-07-11T17:10:00Z</time>
      </trkpt>
      <trkpt lat="47.37889" lon="0.86953">
        <ele>73</ele>
        <time>2020-07-11T17:10:10Z</time>
      </trkpt>
      <trkpt lat="47.37776" lon="0.87064">
        <ele>74</ele>
        <time>2020-07-11T17:10:35Z</time>
      </trkpt>
      <trkpt lat="47.37708" lon="0.87125">
        <ele>75</ele>
        <time>2020-07-11T17:10:49Z</time>
      </trkpt>
      <trkpt lat="47.37585" lon="0.87243">
        <ele>70</ele>
        <time>2020-07-11T17:11:15Z</time>
      </trkpt>
      <trkpt lat="47.37581" lon="0.8725">
        <ele>70</ele>
        <time>2020-07-11T17:11:16Z</time>
      </trkpt>
      <trkpt lat="47.37585" lon="0.87243">
        <ele>70</ele>
        <time>2020-07-11T17:11:17Z</time>
      </trkpt>
      <trkpt lat="47.37519" lon="0.87309">
        <ele>69</ele>
        <time>2020-07-11T17:11:31Z</time>
      </trkpt>
      <trkpt lat="47.37482" lon="0.87359">
        <ele>69</ele>
        <time>2020-07-11T17:11:40Z</time>
      </trkpt>
      <trkpt lat="47.37374" lon="0.87511">
        <ele>69</ele>
        <time>2020-07-11T17:12:07Z</time>
      </trkpt>
      <trkpt lat="47.37293" lon="0.87635">
        <ele>66</ele>
        <time>2020-07-11T17:12:27Z</time>
      </trkpt>
      <trkpt lat="47.37283" lon="0.87654">
        <ele>66</ele>
        <time>2020-07-11T17:12:30Z</time>
      </trkpt>
      <trkpt lat="47.37272" lon="0.87684">
        <ele>67</ele>
        <time>2020-07-11T17:12:34Z</time>
      </trkpt>
      <trkpt lat="47.37265" lon="0.87707">
        <ele>67</ele>
        <time>2020-07-11T17:12:38Z</time>
      </trkpt>
      <trkpt lat="47.37259" lon="0.87771">
        <ele>66</ele>
        <time>2020-07-11T17:12:45Z</time>
      </trkpt>
      <trkpt lat="47.37252" lon="0.87814">
        <ele>65</ele>
        <time>2020-07-11T17:12:51Z</time>
      </trkpt>
      <trkpt lat="47.37237" lon="0.87865">
        <ele>65</ele>
        <time>2020-07-11T17:12:57Z</time>
      </trkpt>
      <trkpt lat="47.37226" lon="0.87895">
        <ele>65</ele>
        <time>2020-07-11T17:13:01Z</time>
      </trkpt>
      <trkpt lat="47.37213" lon="0.87924">
        <ele>65</ele>
        <time>2020-07-11T17:13:06Z</time>
      </trkpt>
      <trkpt lat="47.37164" lon="0.8802">
        <ele>67</ele>
        <time>2020-07-11T17:13:20Z</time>
      </trkpt>
      <trkpt lat="47.37102" lon="0.88121">
        <ele>68</ele>
        <time>2020-07-11T17:13:37Z</time>
      </trkpt>
      <trkpt lat="47.37025" lon="0.88259">
        <ele>70</ele>
        <time>2020-07-11T17:13:58Z</time>
      </trkpt>
      <trkpt lat="47.37013" lon="0.88287">
        <ele>70</ele>
        <time>2020-07-11T17:14:02Z</time>
      </trkpt>
      <trkpt lat="47.36971" lon="0.88434">
        <ele>74</ele>
        <time>2020-07-11T17:14:21Z</time>
      </trkpt>
      <trkpt lat="47.3695" lon="0.88525">
        <ele>74</ele>
        <time>2020-07-11T17:14:33Z</time>
      </trkpt>
      <trkpt lat="47.36935" lon="0.88577">
        <ele>75</ele>
        <time>2020-07-11T17:14:40Z</time>
      </trkpt>
      <trkpt lat="47.36738" lon="0.89105">
        <ele>74</ele>
        <time>2020-07-11T17:15:52Z</time>
      </trkpt>
      <trkpt lat="47.36721" lon="0.89142">
        <ele>73</ele>
        <time>2020-07-11T17:15:58Z</time>
      </trkpt>
      <trkpt lat="47.3669" lon="0.89196">
        <ele>71</ele>
        <time>2020-07-11T17:16:06Z</time>
      </trkpt>
      <trkpt lat="47.36658" lon="0.89237">
        <ele>70</ele>
        <time>2020-07-11T17:16:14Z</time>
      </trkpt>
      <trkpt lat="47.36648" lon="0.89248">
        <ele>70</ele>
        <time>2020-07-11T17:16:16Z</time>
      </trkpt>
      <trkpt lat="47.36612" lon="0.89276">
        <ele>69</ele>
        <time>2020-07-11T17:16:23Z</time>
      </trkpt>
      <trkpt lat="47.36369" lon="0.89452">
        <ele>67</ele>
        <time>2020-07-11T17:17:11Z</time>
      </trkpt>
      <trkpt lat="47.36345" lon="0.89473">
        <ele>66</ele>
        <time>2020-07-11T17:17:16Z</time>
      </trkpt>
      <trkpt lat="47.36304" lon="0.89514">
        <ele>65</ele>
        <time>2020-07-11T17:17:25Z</time>
      </trkpt>
      <trkpt lat="47.36286" lon="0.89535">
        <ele>65</ele>
        <time>2020-07-11T17:17:29Z</time>
      </trkpt>
      <trkpt lat="47.36264" lon="0.89565">
        <ele>64</ele>
        <time>2020-07-11T17:17:35Z</time>
      </trkpt>
      <trkpt lat="47.36231" lon="0.89618">
        <ele>65</ele>
        <time>2020-07-11T17:17:43Z</time>
      </trkpt>
      <trkpt lat="47.36201" lon="0.89678">
        <ele>66</ele>
        <time>2020-07-11T17:17:52Z</time>
      </trkpt>
      <trkpt lat="47.36161" lon="0.89776">
        <ele>68</ele>
        <time>2020-07-11T17:18:06Z</time>
      </trkpt>
      <trkpt lat="47.36141" lon="0.89818">
        <ele>67</ele>
        <time>2020-07-11T17:18:12Z</time>
      </trkpt>
      <trkpt lat="47.36114" lon="0.89869">
        <ele>65</ele>
        <time>2020-07-11T17:18:20Z</time>
      </trkpt>
      <trkpt lat="47.36096" lon="0.89899">
        <ele>65</ele>
        <time>2020-07-11T17:18:25Z</time>
      </trkpt>
      <trkpt lat="47.36074" lon="0.8993">
        <ele>64</ele>
        <time>2020-07-11T17:18:30Z</time>
      </trkpt>
      <trkpt lat="47.35984" lon="0.90051">
        <ele>64</ele>
        <time>2020-07-11T17:18:52Z</time>
      </trkpt>
      <trkpt lat="47.35933" lon="0.90116">
        <ele>64</ele>
        <time>2020-07-11T17:19:04Z</time>
      </trkpt>
      <trkpt lat="47.35895" lon="0.90151">
        <ele>64</ele>
        <time>2020-07-11T17:19:12Z</time>
      </trkpt>
      <trkpt lat="47.3588" lon="0.90163">
        <ele>64</ele>
        <time>2020-07-11T17:19:15Z</time>
      </trkpt>
      <trkpt lat="47.35805" lon="0.902">
        <ele>62</ele>
        <time>2020-07-11T17:19:29Z</time>
      </trkpt>
      <trkpt lat="47.35767" lon="0.90223">
        <ele>61</ele>
        <time>2020-07-11T17:19:36Z</time>
      </trkpt>
      <trkpt lat="47.35745" lon="0.90243">
        <ele>61</ele>
        <time>2020-07-11T17:19:41Z</time>
      </trkpt>
      <trkpt lat="47.35725" lon="0.90267">
        <ele>61</ele>
        <time>2020-07-11T17:19:46Z</time>
      </trkpt>
      <trkpt lat="47.35692" lon="0.90309">
        <ele>61</ele>
        <time>2020-07-11T17:19:53Z</time>
      </trkpt>
      <trkpt lat="47.35662" lon="0.9036">
        <ele>61</ele>
        <time>2020-07-11T17:20:01Z</time>
      </trkpt>
      <trkpt lat="47.35639" lon="0.90408">
        <ele>59</ele>
        <time>2020-07-11T17:20:09Z</time>
      </trkpt>
      <trkpt lat="47.35621" lon="0.90456">
        <ele>58</ele>
        <time>2020-07-11T17:20:15Z</time>
      </trkpt>
      <trkpt lat="47.35617" lon="0.90473">
        <ele>58</ele>
        <time>2020-07-11T17:20:17Z</time>
      </trkpt>
      <trkpt lat="47.35614" lon="0.90535">
        <ele>58</ele>
        <time>2020-07-11T17:20:25Z</time>
      </trkpt>
      <trkpt lat="47.35606" lon="0.90598">
        <ele>58</ele>
        <time>2020-07-11T17:20:33Z</time>
      </trkpt>
      <trkpt lat="47.35582" lon="0.90738">
        <ele>60</ele>
        <time>2020-07-11T17:20:50Z</time>
      </trkpt>
      <trkpt lat="47.35569" lon="0.90829">
        <ele>60</ele>
        <time>2020-07-11T17:21:01Z</time>
      </trkpt>
      <trkpt lat="47.3556" lon="0.90864">
        <ele>60</ele>
        <time>2020-07-11T17:21:06Z</time>
      </trkpt>
      <trkpt lat="47.35535" lon="0.90935">
        <ele>60</ele>
        <time>2020-07-11T17:21:15Z</time>
      </trkpt>
      <trkpt lat="47.35502" lon="0.91033">
        <ele>58</ele>
        <time>2020-07-11T17:21:28Z</time>
      </trkpt>
      <trkpt lat="47.35501" lon="0.91155">
        <ele>58</ele>
        <time>2020-07-11T17:21:43Z</time>
      </trkpt>
      <trkpt lat="47.35433" lon="0.91362">
        <ele>58</ele>
        <time>2020-07-11T17:22:11Z</time>
      </trkpt>
      <trkpt lat="47.35363" lon="0.91601">
        <ele>57</ele>
        <time>2020-07-11T17:22:42Z</time>
      </trkpt>
      <trkpt lat="47.35312" lon="0.91795">
        <ele>58</ele>
        <time>2020-07-11T17:23:07Z</time>
      </trkpt>
      <trkpt lat="47.35298" lon="0.9188">
        <ele>58</ele>
        <time>2020-07-11T17:23:18Z</time>
      </trkpt>
      <trkpt lat="47.35293" lon="0.91895">
        <ele>58</ele>
        <time>2020-07-11T17:23:20Z</time>
      </trkpt>
      <trkpt lat="47.35288" lon="0.91903">
        <ele>57</ele>
        <time>2020-07-11T17:23:21Z</time>
      </trkpt>
      <trkpt lat="47.35281" lon="0.91907">
        <ele>57</ele>
        <time>2020-07-11T17:23:23Z</time>
      </trkpt>
      <trkpt lat="47.35262" lon="0.91906">
        <ele>56</ele>
        <time>2020-07-11T17:23:26Z</time>
      </trkpt>
      <trkpt lat="47.35262" lon="0.91912">
        <ele>56</ele>
        <time>2020-07-11T17:23:27Z</time>
      </trkpt>
      <trkpt lat="47.3526" lon="0.91924">
        <ele>56</ele>
        <time>2020-07-11T17:23:28Z</time>
      </trkpt>
      <trkpt lat="47.35251" lon="0.9196">
        <ele>56</ele>
        <time>2020-07-11T17:23:33Z</time>
      </trkpt>
      <trkpt lat="47.35239" lon="0.92001">
        <ele>56</ele>
        <time>2020-07-11T17:23:38Z</time>
      </trkpt>
      <trkpt lat="47.35237" lon="0.9201">
        <ele>56</ele>
        <time>2020-07-11T17:23:39Z</time>
      </trkpt>
      <trkpt lat="47.35234" lon="0.92021">
        <ele>56</ele>
        <time>2020-07-11T17:23:41Z</time>
      </trkpt>
      <trkpt lat="47.35226" lon="0.92052">
        <ele>57</ele>
        <time>2020-07-11T17:23:45Z</time>
      </trkpt>
      <trkpt lat="47.35215" lon="0.92108">
        <ele>58</ele>
        <time>2020-07-11T17:23:52Z</time>
      </trkpt>
      <trkpt lat="47.3518" lon="0.92311">
        <ele>57</ele>
        <time>2020-07-11T17:24:17Z</time>
      </trkpt>
      <trkpt lat="47.35162" lon="0.92414">
        <ele>56</ele>
        <time>2020-07-11T17:24:30Z</time>
      </trkpt>
      <trkpt lat="47.35161" lon="0.92422">
        <ele>56</ele>
        <time>2020-07-11T17:24:31Z</time>
      </trkpt>
      <trkpt lat="47.35149" lon="0.92493">
        <ele>56</ele>
        <time>2020-07-11T17:24:40Z</time>
      </trkpt>
      <trkpt lat="47.35136" lon="0.92569">
        <ele>57</ele>
        <time>2020-07-11T17:24:49Z</time>
      </trkpt>
      <trkpt lat="47.35108" lon="0.92726">
        <ele>59</ele>
        <time>2020-07-11T17:25:09Z</time>
      </trkpt>
      <trkpt lat="47.35096" lon="0.92798">
        <ele>59</ele>
        <time>2020-07-11T17:25:18Z</time>
      </trkpt>
      <trkpt lat="47.35057" lon="0.93019">
        <ele>59</ele>
        <time>2020-07-11T17:25:45Z</time>
      </trkpt>
      <trkpt lat="47.35011" lon="0.9326">
        <ele>62</ele>
        <time>2020-07-11T17:26:15Z</time>
      </trkpt>
      <trkpt lat="47.34989" lon="0.93376">
        <ele>61</ele>
        <time>2020-07-11T17:26:30Z</time>
      </trkpt>
      <trkpt lat="47.34979" lon="0.93422">
        <ele>60</ele>
        <time>2020-07-11T17:26:36Z</time>
      </trkpt>
      <trkpt lat="47.34964" lon="0.93487">
        <ele>59</ele>
        <time>2020-07-11T17:26:44Z</time>
      </trkpt>
      <trkpt lat="47.34933" lon="0.93618">
        <ele>57</ele>
        <time>2020-07-11T17:27:01Z</time>
      </trkpt>
      <trkpt lat="47.34926" lon="0.93652">
        <ele>58</ele>
        <time>2020-07-11T17:27:05Z</time>
      </trkpt>
      <trkpt lat="47.34889" lon="0.93812">
        <ele>58</ele>
        <time>2020-07-11T17:27:25Z</time>
      </trkpt>
      <trkpt lat="47.34873" lon="0.93882">
        <ele>59</ele>
        <time>2020-07-11T17:27:34Z</time>
      </trkpt>
      <trkpt lat="47.3487" lon="0.93892">
        <ele>59</ele>
        <time>2020-07-11T17:27:36Z</time>
      </trkpt>
      <trkpt lat="47.34843" lon="0.94009">
        <ele>57</ele>
        <time>2020-07-11T17:27:50Z</time>
      </trkpt>
      <trkpt lat="47.34826" lon="0.94093">
        <ele>57</ele>
        <time>2020-07-11T17:28:01Z</time>
      </trkpt>
      <trkpt lat="47.3482" lon="0.94136">
        <ele>59</ele>
        <time>2020-07-11T17:28:06Z</time>
      </trkpt>
      <trkpt lat="47.34816" lon="0.94161">
        <ele>59</ele>
        <time>2020-07-11T17:28:09Z</time>
      </trkpt>
      <trkpt lat="47.34803" lon="0.94242">
        <ele>59</ele>
        <time>2020-07-11T17:28:19Z</time>
      </trkpt>
      <trkpt lat="47.34789" lon="0.94324">
        <ele>59</ele>
        <time>2020-07-11T17:28:30Z</time>
      </trkpt>
      <trkpt lat="47.34787" lon="0.94333">
        <ele>59</ele>
        <time>2020-07-11T17:28:31Z</time>
      </trkpt>
      <trkpt lat="47.34767" lon="0.94446">
        <ele>58</ele>
        <time>2020-07-11T17:28:45Z</time>
      </trkpt>
      <trkpt lat="47.34756" lon="0.94502">
        <ele>58</ele>
        <time>2020-07-11T17:28:52Z</time>
      </trkpt>
      <trkpt lat="47.34748" lon="0.94539">
        <ele>59</ele>
        <time>2020-07-11T17:28:57Z</time>
      </trkpt>
      <trkpt lat="47.34734" lon="0.94597">
        <ele>61</ele>
        <time>2020-07-11T17:29:04Z</time>
      </trkpt>
      <trkpt lat="47.34713" lon="0.94685">
        <ele>60</ele>
        <time>2020-07-11T17:29:15Z</time>
      </trkpt>
      <trkpt lat="47.34705" lon="0.94748">
        <ele>61</ele>
        <time>2020-07-11T17:29:23Z</time>
      </trkpt>
      <trkpt lat="47.347" lon="0.94818">
        <ele>61</ele>
        <time>2020-07-11T17:29:31Z</time>
      </trkpt>
      <trkpt lat="47.34699" lon="0.94838">
        <ele>61</ele>
        <time>2020-07-11T17:29:34Z</time>
      </trkpt>
      <trkpt lat="47.34698" lon="0.94843">
        <ele>61</ele>
        <time>2020-07-11T17:29:35Z</time>
      </trkpt>
      <trkpt lat="47.34691" lon="0.94873">
        <ele>62</ele>
        <time>2020-07-11T17:29:38Z</time>
      </trkpt>
      <trkpt lat="47.34686" lon="0.94891">
        <ele>62</ele>
        <time>2020-07-11T17:29:41Z</time>
      </trkpt>
      <trkpt lat="47.34681" lon="0.94911">
        <ele>62</ele>
        <time>2020-07-11T17:29:43Z</time>
      </trkpt>
      <trkpt lat="47.34677" lon="0.9493">
        <ele>62</ele>
        <time>2020-07-11T17:29:46Z</time>
      </trkpt>
      <trkpt lat="47.34675" lon="0.94937">
        <ele>62</ele>
        <time>2020-07-11T17:29:47Z</time>
      </trkpt>
      <trkpt lat="47.3467" lon="0.9496">
        <ele>62</ele>
        <time>2020-07-11T17:29:49Z</time>
      </trkpt>
      <trkpt lat="47.3467" lon="0.94962">
        <ele>62</ele>
        <time>2020-07-11T17:29:50Z</time>
      </trkpt>
      <trkpt lat="47.34668" lon="0.94973">
        <ele>62</ele>
        <time>2020-07-11T17:29:51Z</time>
      </trkpt>
      <trkpt lat="47.34667" lon="0.94977">
        <ele>62</ele>
        <time>2020-07-11T17:29:52Z</time>
      </trkpt>
      <trkpt lat="47.34665" lon="0.94986">
        <ele>62</ele>
        <time>2020-07-11T17:29:53Z</time>
      </trkpt>
      <trkpt lat="47.34648" lon="0.95082">
        <ele>63</ele>
        <time>2020-07-11T17:30:05Z</time>
      </trkpt>
      <trkpt lat="47.34636" lon="0.95125">
        <ele>63</ele>
        <time>2020-07-11T17:30:10Z</time>
      </trkpt>
      <trkpt lat="47.34635" lon="0.95128">
        <ele>63</ele>
        <time>2020-07-11T17:30:11Z</time>
      </trkpt>
      <trkpt lat="47.34631" lon="0.95138">
        <ele>63</ele>
        <time>2020-07-11T17:30:12Z</time>
      </trkpt>
      <trkpt lat="47.34629" lon="0.95145">
        <ele>62</ele>
        <time>2020-07-11T17:30:13Z</time>
      </trkpt>
      <trkpt lat="47.34616" lon="0.95179">
        <ele>62</ele>
        <time>2020-07-11T17:30:18Z</time>
      </trkpt>
      <trkpt lat="47.34613" lon="0.95187">
        <ele>62</ele>
        <time>2020-07-11T17:30:19Z</time>
      </trkpt>
      <trkpt lat="47.34602" lon="0.95222">
        <ele>61</ele>
        <time>2020-07-11T17:30:24Z</time>
      </trkpt>
      <trkpt lat="47.34592" lon="0.95253">
        <ele>61</ele>
        <time>2020-07-11T17:30:28Z</time>
      </trkpt>
      <trkpt lat="47.34584" lon="0.95276">
        <ele>60</ele>
        <time>2020-07-11T17:30:31Z</time>
      </trkpt>
      <trkpt lat="47.34567" lon="0.95323">
        <ele>60</ele>
        <time>2020-07-11T17:30:37Z</time>
      </trkpt>
      <trkpt lat="47.34553" lon="0.95361">
        <ele>60</ele>
        <time>2020-07-11T17:30:42Z</time>
      </trkpt>
      <trkpt lat="47.34545" lon="0.9538">
        <ele>60</ele>
        <time>2020-07-11T17:30:45Z</time>
      </trkpt>
      <trkpt lat="47.34533" lon="0.95414">
        <ele>59</ele>
        <time>2020-07-11T17:30:50Z</time>
      </trkpt>
      <trkpt lat="47.34514" lon="0.95462">
        <ele>57</ele>
        <time>2020-07-11T17:30:56Z</time>
      </trkpt>
      <trkpt lat="47.3451" lon="0.95473">
        <ele>57</ele>
        <time>2020-07-11T17:30:58Z</time>
      </trkpt>
      <trkpt lat="47.34504" lon="0.95487">
        <ele>56</ele>
        <time>2020-07-11T17:31:00Z</time>
      </trkpt>
      <trkpt lat="47.34471" lon="0.95601">
        <ele>56</ele>
        <time>2020-07-11T17:31:15Z</time>
      </trkpt>
      <trkpt lat="47.34465" lon="0.95629">
        <ele>56</ele>
        <time>2020-07-11T17:31:18Z</time>
      </trkpt>
      <trkpt lat="47.34459" lon="0.95668">
        <ele>56</ele>
        <time>2020-07-11T17:31:23Z</time>
      </trkpt>
      <trkpt lat="47.34457" lon="0.95682">
        <ele>56</ele>
        <time>2020-07-11T17:31:25Z</time>
      </trkpt>
      <trkpt lat="47.34456" lon="0.95692">
        <ele>56</ele>
        <time>2020-07-11T17:31:26Z</time>
      </trkpt>
      <trkpt lat="47.34449" lon="0.95742">
        <ele>56</ele>
        <time>2020-07-11T17:31:32Z</time>
      </trkpt>
      <trkpt lat="47.34446" lon="0.95769">
        <ele>56</ele>
        <time>2020-07-11T17:31:36Z</time>
      </trkpt>
      <trkpt lat="47.34443" lon="0.95785">
        <ele>56</ele>
        <time>2020-07-11T17:31:38Z</time>
      </trkpt>
      <trkpt lat="47.34442" lon="0.95802">
        <ele>56</ele>
        <time>2020-07-11T17:31:40Z</time>
      </trkpt>
      <trkpt lat="47.34437" lon="0.9584">
        <ele>57</ele>
        <time>2020-07-11T17:31:44Z</time>
      </trkpt>
      <trkpt lat="47.3441" lon="0.96051">
        <ele>57</ele>
        <time>2020-07-11T17:32:10Z</time>
      </trkpt>
      <trkpt lat="47.34392" lon="0.96186">
        <ele>60</ele>
        <time>2020-07-11T17:32:27Z</time>
      </trkpt>
      <trkpt lat="47.34384" lon="0.96248">
        <ele>62</ele>
        <time>2020-07-11T17:32:34Z</time>
      </trkpt>
      <trkpt lat="47.34371" lon="0.96344">
        <ele>60</ele>
        <time>2020-07-11T17:32:46Z</time>
      </trkpt>
      <trkpt lat="47.34357" lon="0.96459">
        <ele>60</ele>
        <time>2020-07-11T17:33:00Z</time>
      </trkpt>
      <trkpt lat="47.34347" lon="0.96531">
        <ele>60</ele>
        <time>2020-07-11T17:33:09Z</time>
      </trkpt>
      <trkpt lat="47.34337" lon="0.96616">
        <ele>60</ele>
        <time>2020-07-11T17:33:20Z</time>
      </trkpt>
      <trkpt lat="47.34335" lon="0.96699">
        <ele>61</ele>
        <time>2020-07-11T17:33:30Z</time>
      </trkpt>
      <trkpt lat="47.34332" lon="0.96728">
        <ele>61</ele>
        <time>2020-07-11T17:33:33Z</time>
      </trkpt>
      <trkpt lat="47.34327" lon="0.9676">
        <ele>61</ele>
        <time>2020-07-11T17:33:37Z</time>
      </trkpt>
      <trkpt lat="47.34303" lon="0.96876">
        <ele>62</ele>
        <time>2020-07-11T17:33:52Z</time>
      </trkpt>
      <trkpt lat="47.34278" lon="0.96996">
        <ele>61</ele>
        <time>2020-07-11T17:34:07Z</time>
      </trkpt>
      <trkpt lat="47.34257" lon="0.97087">
        <ele>58</ele>
        <time>2020-07-11T17:34:18Z</time>
      </trkpt>
      <trkpt lat="47.34248" lon="0.97127">
        <ele>60</ele>
        <time>2020-07-11T17:34:24Z</time>
      </trkpt>
      <trkpt lat="47.3424" lon="0.97158">
        <ele>61</ele>
        <time>2020-07-11T17:34:28Z</time>
      </trkpt>
      <trkpt lat="47.34214" lon="0.97254">
        <ele>62</ele>
        <time>2020-07-11T17:34:40Z</time>
      </trkpt>
      <trkpt lat="47.34153" lon="0.97481">
        <ele>60</ele>
        <time>2020-07-11T17:35:09Z</time>
      </trkpt>
      <trkpt lat="47.34139" lon="0.97528">
        <ele>60</ele>
        <time>2020-07-11T17:35:16Z</time>
      </trkpt>
      <trkpt lat="47.34128" lon="0.97575">
        <ele>60</ele>
        <time>2020-07-11T17:35:22Z</time>
      </trkpt>
      <trkpt lat="47.34125" lon="0.97593">
        <ele>60</ele>
        <time>2020-07-11T17:35:24Z</time>
      </trkpt>
      <trkpt lat="47.34111" lon="0.97723">
        <ele>61</ele>
        <time>2020-07-11T17:35:40Z</time>
      </trkpt>
      <trkpt lat="47.34112" lon="0.97753">
        <ele>62</ele>
        <time>2020-07-11T17:35:43Z</time>
      </trkpt>
      <trkpt lat="47.34122" lon="0.97805">
        <ele>63</ele>
        <time>2020-07-11T17:35:50Z</time>
      </trkpt>
      <trkpt lat="47.34134" lon="0.97975">
        <ele>60</ele>
        <time>2020-07-11T17:36:10Z</time>
      </trkpt>
      <trkpt lat="47.34139" lon="0.98016">
        <ele>60</ele>
        <time>2020-07-11T17:36:16Z</time>
      </trkpt>
      <trkpt lat="47.34149" lon="0.98095">
        <ele>60</ele>
        <time>2020-07-11T17:36:25Z</time>
      </trkpt>
      <trkpt lat="47.34166" lon="0.98241">
        <ele>59</ele>
        <time>2020-07-11T17:36:43Z</time>
      </trkpt>
      <trkpt lat="47.34167" lon="0.98255">
        <ele>59</ele>
        <time>2020-07-11T17:36:45Z</time>
      </trkpt>
      <trkpt lat="47.34171" lon="0.98337">
        <ele>61</ele>
        <time>2020-07-11T17:36:55Z</time>
      </trkpt>
      <trkpt lat="47.34174" lon="0.98388">
        <ele>60</ele>
        <time>2020-07-11T17:37:01Z</time>
      </trkpt>
      <trkpt lat="47.34176" lon="0.98426">
        <ele>60</ele>
        <time>2020-07-11T17:37:05Z</time>
      </trkpt>
      <trkpt lat="47.34177" lon="0.98487">
        <ele>60</ele>
        <time>2020-07-11T17:37:13Z</time>
      </trkpt>
      <trkpt lat="47.34171" lon="0.98552">
        <ele>60</ele>
        <time>2020-07-11T17:37:21Z</time>
      </trkpt>
      <trkpt lat="47.34169" lon="0.98565">
        <ele>60</ele>
        <time>2020-07-11T17:37:22Z</time>
      </trkpt>
      <trkpt lat="47.34168" lon="0.98576">
        <ele>60</ele>
        <time>2020-07-11T17:37:24Z</time>
      </trkpt>
      <trkpt lat="47.34155" lon="0.98643">
        <ele>61</ele>
        <time>2020-07-11T17:37:32Z</time>
      </trkpt>
      <trkpt lat="47.34139" lon="0.9871">
        <ele>63</ele>
        <time>2020-07-11T17:37:41Z</time>
      </trkpt>
      <trkpt lat="47.34134" lon="0.98728">
        <ele>63</ele>
        <time>2020-07-11T17:37:43Z</time>
      </trkpt>
      <trkpt lat="47.34108" lon="0.98826">
        <ele>63</ele>
        <time>2020-07-11T17:37:56Z</time>
      </trkpt>
      <trkpt lat="47.34105" lon="0.98843">
        <ele>62</ele>
        <time>2020-07-11T17:37:58Z</time>
      </trkpt>
      <trkpt lat="47.34093" lon="0.98901">
        <ele>61</ele>
        <time>2020-07-11T17:38:05Z</time>
      </trkpt>
      <trkpt lat="47.34081" lon="0.98948">
        <ele>60</ele>
        <time>2020-07-11T17:38:11Z</time>
      </trkpt>
      <trkpt lat="47.34078" lon="0.98956">
        <ele>60</ele>
        <time>2020-07-11T17:38:12Z</time>
      </trkpt>
      <trkpt lat="47.34077" lon="0.98959">
        <ele>60</ele>
        <time>2020-07-11T17:38:13Z</time>
      </trkpt>
      <trkpt lat="47.34071" lon="0.98984">
        <ele>61</ele>
        <time>2020-07-11T17:38:16Z</time>
      </trkpt>
      <trkpt lat="47.34071" lon="0.98989">
        <ele>61</ele>
        <time>2020-07-11T17:38:16Z</time>
      </trkpt>
      <trkpt lat="47.34066" lon="0.99021">
        <ele>61</ele>
        <time>2020-07-11T17:38:20Z</time>
      </trkpt>
      <trkpt lat="47.34065" lon="0.99025">
        <ele>60</ele>
        <time>2020-07-11T17:38:21Z</time>
      </trkpt>
      <trkpt lat="47.34062" lon="0.9906">
        <ele>60</ele>
        <time>2020-07-11T17:38:25Z</time>
      </trkpt>
      <trkpt lat="47.34061" lon="0.9907">
        <ele>60</ele>
        <time>2020-07-11T17:38:26Z</time>
      </trkpt>
      <trkpt lat="47.3406" lon="0.9908">
        <ele>60</ele>
        <time>2020-07-11T17:38:28Z</time>
      </trkpt>
      <trkpt lat="47.34057" lon="0.99108">
        <ele>60</ele>
        <time>2020-07-11T17:38:31Z</time>
      </trkpt>
      <trkpt lat="47.34055" lon="0.99138">
        <ele>60</ele>
        <time>2020-07-11T17:38:35Z</time>
      </trkpt>
      <trkpt lat="47.34052" lon="0.99158">
        <ele>61</ele>
        <time>2020-07-11T17:38:37Z</time>
      </trkpt>
      <trkpt lat="47.34046" lon="0.99187">
        <ele>61</ele>
        <time>2020-07-11T17:38:41Z</time>
      </trkpt>
      <trkpt lat="47.34034" lon="0.99232">
        <ele>62</ele>
        <time>2020-07-11T17:38:47Z</time>
      </trkpt>
      <trkpt lat="47.34033" lon="0.99239">
        <ele>62</ele>
        <time>2020-07-11T17:38:47Z</time>
      </trkpt>
      <trkpt lat="47.34024" lon="0.99292">
        <ele>61</ele>
        <time>2020-07-11T17:38:54Z</time>
      </trkpt>
      <trkpt lat="47.3402" lon="0.99317">
        <ele>61</ele>
        <time>2020-07-11T17:38:57Z</time>
      </trkpt>
      <trkpt lat="47.3401" lon="0.99365">
        <ele>60</ele>
        <time>2020-07-11T17:39:03Z</time>
      </trkpt>
      <trkpt lat="47.34007" lon="0.99392">
        <ele>60</ele>
        <time>2020-07-11T17:39:07Z</time>
      </trkpt>
      <trkpt lat="47.34001" lon="0.99498">
        <ele>59</ele>
        <time>2020-07-11T17:39:19Z</time>
      </trkpt>
      <trkpt lat="47.33997" lon="0.99535">
        <ele>59</ele>
        <time>2020-07-11T17:39:24Z</time>
      </trkpt>
      <trkpt lat="47.33988" lon="0.9959">
        <ele>60</ele>
        <time>2020-07-11T17:39:31Z</time>
      </trkpt>
      <trkpt lat="47.33987" lon="0.99595">
        <ele>60</ele>
        <time>2020-07-11T17:39:31Z</time>
      </trkpt>
      <trkpt lat="47.33984" lon="0.99609">
        <ele>60</ele>
        <time>2020-07-11T17:39:33Z</time>
      </trkpt>
      <trkpt lat="47.33973" lon="0.9967">
        <ele>62</ele>
        <time>2020-07-11T17:39:41Z</time>
      </trkpt>
      <trkpt lat="47.33968" lon="0.99692">
        <ele>62</ele>
        <time>2020-07-11T17:39:43Z</time>
      </trkpt>
      <trkpt lat="47.33965" lon="0.99712">
        <ele>63</ele>
        <time>2020-07-11T17:39:46Z</time>
      </trkpt>
      <trkpt lat="47.33962" lon="0.99725">
        <ele>64</ele>
        <time>2020-07-11T17:39:48Z</time>
      </trkpt>
      <trkpt lat="47.33942" lon="0.99829">
        <ele>67</ele>
        <time>2020-07-11T17:40:01Z</time>
      </trkpt>
      <trkpt lat="47.33909" lon="0.99963">
        <ele>64</ele>
        <time>2020-07-11T17:40:18Z</time>
      </trkpt>
      <trkpt lat="47.33879" lon="1.00124">
        <ele>66</ele>
        <time>2020-07-11T17:40:38Z</time>
      </trkpt>
      <trkpt lat="47.33872" lon="1.00162">
        <ele>66</ele>
        <time>2020-07-11T17:40:43Z</time>
      </trkpt>
      <trkpt lat="47.33869" lon="1.00182">
        <ele>66</ele>
        <time>2020-07-11T17:40:45Z</time>
      </trkpt>
      <trkpt lat="47.33866" lon="1.00206">
        <ele>66</ele>
        <time>2020-07-11T17:40:48Z</time>
      </trkpt>
      <trkpt lat="47.33861" lon="1.00278">
        <ele>67</ele>
        <time>2020-07-11T17:40:57Z</time>
      </trkpt>
      <trkpt lat="47.33855" lon="1.00398">
        <ele>69</ele>
        <time>2020-07-11T17:41:11Z</time>
      </trkpt>
      <trkpt lat="47.33852" lon="1.00424">
        <ele>69</ele>
        <time>2020-07-11T17:41:15Z</time>
      </trkpt>
      <trkpt lat="47.33848" lon="1.00452">
        <ele>69</ele>
        <time>2020-07-11T17:41:18Z</time>
      </trkpt>
      <trkpt lat="47.33841" lon="1.00494">
        <ele>69</ele>
        <time>2020-07-11T17:41:23Z</time>
      </trkpt>
      <trkpt lat="47.33833" lon="1.00534">
        <ele>68</ele>
        <time>2020-07-11T17:41:28Z</time>
      </trkpt>
      <trkpt lat="47.33818" lon="1.00602">
        <ele>67</ele>
        <time>2020-07-11T17:41:37Z</time>
      </trkpt>
      <trkpt lat="47.33805" lon="1.0065">
        <ele>67</ele>
        <time>2020-07-11T17:41:43Z</time>
      </trkpt>
      <trkpt lat="47.33786" lon="1.007">
        <ele>67</ele>
        <time>2020-07-11T17:41:50Z</time>
      </trkpt>
      <trkpt lat="47.33777" lon="1.00721">
        <ele>66</ele>
        <time>2020-07-11T17:41:53Z</time>
      </trkpt>
      <trkpt lat="47.33765" lon="1.00743">
        <ele>65</ele>
        <time>2020-07-11T17:41:56Z</time>
      </trkpt>
      <trkpt lat="47.33747" lon="1.00774">
        <ele>63</ele>
        <time>2020-07-11T17:42:01Z</time>
      </trkpt>
      <trkpt lat="47.33737" lon="1.00791">
        <ele>62</ele>
        <time>2020-07-11T17:42:04Z</time>
      </trkpt>
      <trkpt lat="47.33727" lon="1.00805">
        <ele>61</ele>
        <time>2020-07-11T17:42:07Z</time>
      </trkpt>
      <trkpt lat="47.33716" lon="1.00823">
        <ele>61</ele>
        <time>2020-07-11T17:42:09Z</time>
      </trkpt>
      <trkpt lat="47.33669" lon="1.00902">
        <ele>58</ele>
        <time>2020-07-11T17:42:22Z</time>
      </trkpt>
      <trkpt lat="47.33644" lon="1.00943">
        <ele>59</ele>
        <time>2020-07-11T17:42:29Z</time>
      </trkpt>
      <trkpt lat="47.33634" lon="1.00961">
        <ele>59</ele>
        <time>2020-07-11T17:42:32Z</time>
      </trkpt>
      <trkpt lat="47.33625" lon="1.00979">
        <ele>59</ele>
        <time>2020-07-11T17:42:34Z</time>
      </trkpt>
      <trkpt lat="47.3362" lon="1.00995">
        <ele>60</ele>
        <time>2020-07-11T17:42:36Z</time>
      </trkpt>
      <trkpt lat="47.33583" lon="1.01152">
        <ele>62</ele>
        <time>2020-07-11T17:42:56Z</time>
      </trkpt>
      <trkpt lat="47.33554" lon="1.01279">
        <ele>62</ele>
        <time>2020-07-11T17:43:13Z</time>
      </trkpt>
      <trkpt lat="47.33521" lon="1.01439">
        <ele>61</ele>
        <time>2020-07-11T17:43:33Z</time>
      </trkpt>
      <trkpt lat="47.33479" lon="1.01669">
        <ele>61</ele>
        <time>2020-07-11T17:44:01Z</time>
      </trkpt>
      <trkpt lat="47.33476" lon="1.01687">
        <ele>61</ele>
        <time>2020-07-11T17:44:04Z</time>
      </trkpt>
      <trkpt lat="47.33473" lon="1.01699">
        <ele>61</ele>
        <time>2020-07-11T17:44:05Z</time>
      </trkpt>
      <trkpt lat="47.3346" lon="1.01767">
        <ele>62</ele>
        <time>2020-07-11T17:44:14Z</time>
      </trkpt>
      <trkpt lat="47.33446" lon="1.01842">
        <ele>62</ele>
        <time>2020-07-11T17:44:23Z</time>
      </trkpt>
      <trkpt lat="47.33411" lon="1.02068">
        <ele>64</ele>
        <time>2020-07-11T17:44:51Z</time>
      </trkpt>
      <trkpt lat="47.3339" lon="1.02227">
        <ele>66</ele>
        <time>2020-07-11T17:45:11Z</time>
      </trkpt>
      <trkpt lat="47.33347" lon="1.02597">
        <ele>63</ele>
        <time>2020-07-11T17:45:56Z</time>
      </trkpt>
      <trkpt lat="47.33336" lon="1.02707">
        <ele>62</ele>
        <time>2020-07-11T17:46:09Z</time>
      </trkpt>
      <trkpt lat="47.33323" lon="1.02846">
        <ele>63</ele>
        <time>2020-07-11T17:46:26Z</time>
      </trkpt>
      <trkpt lat="47.33297" lon="1.03168">
        <ele>63</ele>
        <time>2020-07-11T17:47:05Z</time>
      </trkpt>
      <trkpt lat="47.33295" lon="1.03201">
        <ele>64</ele>
        <time>2020-07-11T17:47:09Z</time>
      </trkpt>
      <trkpt lat="47.33289" lon="1.03261">
        <ele>65</ele>
        <time>2020-07-11T17:47:17Z</time>
      </trkpt>
      <trkpt lat="47.33287" lon="1.03276">
        <ele>65</ele>
        <time>2020-07-11T17:47:18Z</time>
      </trkpt>
      <trkpt lat="47.33273" lon="1.03425">
        <ele>65</ele>
        <time>2020-07-11T17:47:37Z</time>
      </trkpt>
      <trkpt lat="47.33227" lon="1.0399">
        <ele>62</ele>
        <time>2020-07-11T17:48:45Z</time>
      </trkpt>
      <trkpt lat="47.33216" lon="1.04151">
        <ele>61</ele>
        <time>2020-07-11T17:49:05Z</time>
      </trkpt>
      <trkpt lat="47.33209" lon="1.04265">
        <ele>62</ele>
        <time>2020-07-11T17:49:19Z</time>
      </trkpt>
      <trkpt lat="47.33208" lon="1.04276">
        <ele>62</ele>
        <time>2020-07-11T17:49:20Z</time>
      </trkpt>
      <trkpt lat="47.33187" lon="1.04579">
        <ele>61</ele>
        <time>2020-07-11T17:49:57Z</time>
      </trkpt>
      <trkpt lat="47.33184" lon="1.0463">
        <ele>61</ele>
        <time>2020-07-11T17:50:03Z</time>
      </trkpt>
      <trkpt lat="47.33184" lon="1.04644">
        <ele>62</ele>
        <time>2020-07-11T17:50:05Z</time>
      </trkpt>
      <trkpt lat="47.33185" lon="1.04786">
        <ele>62</ele>
        <time>2020-07-11T17:50:22Z</time>
      </trkpt>
      <trkpt lat="47.33187" lon="1.04801">
        <ele>62</ele>
        <time>2020-07-11T17:50:23Z</time>
      </trkpt>
      <trkpt lat="47.3319" lon="1.0481">
        <ele>63</ele>
        <time>2020-07-11T17:50:25Z</time>
      </trkpt>
      <trkpt lat="47.33196" lon="1.04821">
        <ele>63</ele>
        <time>2020-07-11T17:50:26Z</time>
      </trkpt>
      <trkpt lat="47.33206" lon="1.04832">
        <ele>63</ele>
        <time>2020-07-11T17:50:29Z</time>
      </trkpt>
      <trkpt lat="47.3325" lon="1.04858">
        <ele>64</ele>
        <time>2020-07-11T17:50:37Z</time>
      </trkpt>
      <trkpt lat="47.33257" lon="1.04866">
        <ele>65</ele>
        <time>2020-07-11T17:50:39Z</time>
      </trkpt>
      <trkpt lat="47.33259" lon="1.04875">
        <ele>65</ele>
        <time>2020-07-11T17:50:40Z</time>
      </trkpt>
      <trkpt lat="47.3326" lon="1.04907">
        <ele>65</ele>
        <time>2020-07-11T17:50:44Z</time>
      </trkpt>
      <trkpt lat="47.33269" lon="1.04951">
        <ele>68</ele>
        <time>2020-07-11T17:50:49Z</time>
      </trkpt>
      <trkpt lat="47.33271" lon="1.05027">
        <ele>71</ele>
        <time>2020-07-11T17:50:58Z</time>
      </trkpt>
      <trkpt lat="47.33278" lon="1.0509">
        <ele>72</ele>
        <time>2020-07-11T17:51:06Z</time>
      </trkpt>
      <trkpt lat="47.33284" lon="1.05161">
        <ele>72</ele>
        <time>2020-07-11T17:51:15Z</time>
      </trkpt>
      <trkpt lat="47.33212" lon="1.05159">
        <ele>68</ele>
        <time>2020-07-11T17:51:27Z</time>
      </trkpt>
      <trkpt lat="47.33203" lon="1.05207">
        <ele>67</ele>
        <time>2020-07-11T17:51:33Z</time>
      </trkpt>
      <trkpt lat="47.33204" lon="1.05231">
        <ele>67</ele>
        <time>2020-07-11T17:51:36Z</time>
      </trkpt>
      <trkpt lat="47.33209" lon="1.05248">
        <ele>67</ele>
        <time>2020-07-11T17:51:39Z</time>
      </trkpt>
      <trkpt lat="47.33232" lon="1.05263">
        <ele>69</ele>
        <time>2020-07-11T17:51:43Z</time>
      </trkpt>
      <trkpt lat="47.33264" lon="1.05277">
        <ele>71</ele>
        <time>2020-07-11T17:51:49Z</time>
      </trkpt>
      <trkpt lat="47.33286" lon="1.0528">
        <ele>73</ele>
        <time>2020-07-11T17:51:53Z</time>
      </trkpt>
      <trkpt lat="47.33284" lon="1.05316">
        <ele>72</ele>
        <time>2020-07-11T17:51:57Z</time>
      </trkpt>
      <trkpt lat="47.33247" lon="1.05681">
        <ele>68</ele>
        <time>2020-07-11T17:52:42Z</time>
      </trkpt>
      <trkpt lat="47.33235" lon="1.05883">
        <ele>69</ele>
        <time>2020-07-11T17:53:06Z</time>
      </trkpt>
      <trkpt lat="47.33235" lon="1.05901">
        <ele>69</ele>
        <time>2020-07-11T17:53:08Z</time>
      </trkpt>
      <trkpt lat="47.33234" lon="1.05981">
        <ele>69</ele>
        <time>2020-07-11T17:53:18Z</time>
      </trkpt>
      <trkpt lat="47.33229" lon="1.06327">
        <ele>67</ele>
        <time>2020-07-11T17:54:00Z</time>
      </trkpt>
      <trkpt lat="47.33227" lon="1.0637">
        <ele>68</ele>
        <time>2020-07-11T17:54:05Z</time>
      </trkpt>
      <trkpt lat="47.33221" lon="1.06421">
        <ele>68</ele>
        <time>2020-07-11T17:54:11Z</time>
      </trkpt>
      <trkpt lat="47.33217" lon="1.06454">
        <ele>68</ele>
        <time>2020-07-11T17:54:15Z</time>
      </trkpt>
      <trkpt lat="47.33216" lon="1.06468">
        <ele>69</ele>
        <time>2020-07-11T17:54:17Z</time>
      </trkpt>
      <trkpt lat="47.33214" lon="1.06497">
        <ele>69</ele>
        <time>2020-07-11T17:54:21Z</time>
      </trkpt>
      <trkpt lat="47.33212" lon="1.06628">
        <ele>69</ele>
        <time>2020-07-11T17:54:36Z</time>
      </trkpt>
      <trkpt lat="47.33212" lon="1.06661">
        <ele>69</ele>
        <time>2020-07-11T17:54:40Z</time>
      </trkpt>
      <trkpt lat="47.33208" lon="1.06668">
        <ele>69</ele>
        <time>2020-07-11T17:54:41Z</time>
      </trkpt>
      <trkpt lat="47.33188" lon="1.06691">
        <ele>69</ele>
        <time>2020-07-11T17:54:46Z</time>
      </trkpt>
      <trkpt lat="47.33166" lon="1.06716">
        <ele>69</ele>
        <time>2020-07-11T17:54:51Z</time>
      </trkpt>
      <trkpt lat="47.3316" lon="1.06726">
        <ele>68</ele>
        <time>2020-07-11T17:54:52Z</time>
      </trkpt>
      <trkpt lat="47.33157" lon="1.06743">
        <ele>68</ele>
        <time>2020-07-11T17:54:55Z</time>
      </trkpt>
      <trkpt lat="47.33154" lon="1.06799">
        <ele>69</ele>
        <time>2020-07-11T17:55:01Z</time>
      </trkpt>
      <trkpt lat="47.33154" lon="1.06844">
        <ele>69</ele>
        <time>2020-07-11T17:55:07Z</time>
      </trkpt>
      <trkpt lat="47.33156" lon="1.06872">
        <ele>69</ele>
        <time>2020-07-11T17:55:10Z</time>
      </trkpt>
      <trkpt lat="47.33156" lon="1.06884">
        <ele>68</ele>
        <time>2020-07-11T17:55:12Z</time>
      </trkpt>
      <trkpt lat="47.33155" lon="1.06915">
        <ele>68</ele>
        <time>2020-07-11T17:55:15Z</time>
      </trkpt>
      <trkpt lat="47.3315" lon="1.06962">
        <ele>68</ele>
        <time>2020-07-11T17:55:21Z</time>
      </trkpt>
      <trkpt lat="47.3315" lon="1.06981">
        <ele>68</ele>
        <time>2020-07-11T17:55:23Z</time>
      </trkpt>
      <trkpt lat="47.33151" lon="1.07001">
        <ele>68</ele>
        <time>2020-07-11T17:55:26Z</time>
      </trkpt>
      <trkpt lat="47.33154" lon="1.07053">
        <ele>68</ele>
        <time>2020-07-11T17:55:32Z</time>
      </trkpt>
      <trkpt lat="47.33154" lon="1.07163">
        <ele>69</ele>
        <time>2020-07-11T17:55:45Z</time>
      </trkpt>
      <trkpt lat="47.33154" lon="1.07247">
        <ele>69</ele>
        <time>2020-07-11T17:55:56Z</time>
      </trkpt>
      <trkpt lat="47.33156" lon="1.07288">
        <ele>69</ele>
        <time>2020-07-11T17:56:00Z</time>
      </trkpt>
      <trkpt lat="47.33162" lon="1.07355">
        <ele>68</ele>
        <time>2020-07-11T17:56:09Z</time>
      </trkpt>
      <trkpt lat="47.33174" lon="1.0746">
        <ele>66</ele>
        <time>2020-07-11T17:56:21Z</time>
      </trkpt>
      <trkpt lat="47.33176" lon="1.07481">
        <ele>66</ele>
        <time>2020-07-11T17:56:24Z</time>
      </trkpt>
      <trkpt lat="47.33178" lon="1.07594">
        <ele>67</ele>
        <time>2020-07-11T17:56:38Z</time>
      </trkpt>
      <trkpt lat="47.33179" lon="1.07703">
        <ele>69</ele>
        <time>2020-07-11T17:56:51Z</time>
      </trkpt>
      <trkpt lat="47.33179" lon="1.0772">
        <ele>69</ele>
        <time>2020-07-11T17:56:53Z</time>
      </trkpt>
      <trkpt lat="47.33179" lon="1.07733">
        <ele>69</ele>
        <time>2020-07-11T17:56:54Z</time>
      </trkpt>
      <trkpt lat="47.3317" lon="1.07887">
        <ele>69</ele>
        <time>2020-07-11T17:57:13Z</time>
      </trkpt>
      <trkpt lat="47.33169" lon="1.07917">
        <ele>69</ele>
        <time>2020-07-11T17:57:17Z</time>
      </trkpt>
      <trkpt lat="47.3316" lon="1.08092">
        <ele>70</ele>
        <time>2020-07-11T17:57:38Z</time>
      </trkpt>
      <trkpt lat="47.33157" lon="1.08142">
        <ele>70</ele>
        <time>2020-07-11T17:57:44Z</time>
      </trkpt>
      <trkpt lat="47.33153" lon="1.08143">
        <ele>70</ele>
        <time>2020-07-11T17:57:45Z</time>
      </trkpt>
      <trkpt lat="47.33115" lon="1.08151">
        <ele>67</ele>
        <time>2020-07-11T17:57:51Z</time>
      </trkpt>
      <trkpt lat="47.33072" lon="1.08164">
        <ele>65</ele>
        <time>2020-07-11T17:57:59Z</time>
      </trkpt>
      <trkpt lat="47.33055" lon="1.08168">
        <ele>64</ele>
        <time>2020-07-11T17:58:02Z</time>
      </trkpt>
      <trkpt lat="47.33052" lon="1.08169">
        <ele>64</ele>
        <time>2020-07-11T17:58:03Z</time>
      </trkpt>
      <trkpt lat="47.33029" lon="1.08173">
        <ele>63</ele>
        <time>2020-07-11T17:58:07Z</time>
      </trkpt>
      <trkpt lat="47.33007" lon="1.08178">
        <ele>61</ele>
        <time>2020-07-11T17:58:11Z</time>
      </trkpt>
      <trkpt lat="47.32919" lon="1.08195">
        <ele>57</ele>
        <time>2020-07-11T17:58:27Z</time>
      </trkpt>
      <trkpt lat="47.32849" lon="1.08221">
        <ele>57</ele>
        <time>2020-07-11T17:58:40Z</time>
      </trkpt>
      <trkpt lat="47.32762" lon="1.08266">
        <ele>58</ele>
        <time>2020-07-11T17:58:56Z</time>
      </trkpt>
      <trkpt lat="47.32654" lon="1.0833">
        <ele>57</ele>
        <time>2020-07-11T17:59:17Z</time>
      </trkpt>
      <trkpt lat="47.32646" lon="1.08335">
        <ele>57</ele>
        <time>2020-07-11T17:59:18Z</time>
      </trkpt>
      <trkpt lat="47.32568" lon="1.08362">
        <ele>57</ele>
        <time>2020-07-11T17:59:32Z</time>
      </trkpt>
      <trkpt lat="47.32558" lon="1.08365">
        <ele>57</ele>
        <time>2020-07-11T17:59:34Z</time>
      </trkpt>
      <trkpt lat="47.32304" lon="1.08458">
        <ele>57</ele>
        <time>2020-07-11T18:00:21Z</time>
      </trkpt>
      <trkpt lat="47.32285" lon="1.08462">
        <ele>57</ele>
        <time>2020-07-11T18:00:24Z</time>
      </trkpt>
      <trkpt lat="47.32263" lon="1.0846">
        <ele>58</ele>
        <time>2020-07-11T18:00:28Z</time>
      </trkpt>
      <trkpt lat="47.3225" lon="1.08455">
        <ele>59</ele>
        <time>2020-07-11T18:00:31Z</time>
      </trkpt>
      <trkpt lat="47.32239" lon="1.08451">
        <ele>59</ele>
        <time>2020-07-11T18:00:33Z</time>
      </trkpt>
      <trkpt lat="47.32234" lon="1.08444">
        <ele>60</ele>
        <time>2020-07-11T18:00:34Z</time>
      </trkpt>
      <trkpt lat="47.32229" lon="1.08443">
        <ele>60</ele>
        <time>2020-07-11T18:00:35Z</time>
      </trkpt>
      <trkpt lat="47.32223" lon="1.08449">
        <ele>60</ele>
        <time>2020-07-11T18:00:36Z</time>
      </trkpt>
      <trkpt lat="47.3221" lon="1.08449">
        <ele>61</ele>
        <time>2020-07-11T18:00:38Z</time>
      </trkpt>
      <trkpt lat="47.32197" lon="1.08446">
        <ele>62</ele>
        <time>2020-07-11T18:00:41Z</time>
      </trkpt>
      <trkpt lat="47.32192" lon="1.08446">
        <ele>63</ele>
        <time>2020-07-11T18:00:42Z</time>
      </trkpt>
      <trkpt lat="47.32175" lon="1.08451">
        <ele>64</ele>
        <time>2020-07-11T18:00:45Z</time>
      </trkpt>
      <trkpt lat="47.32134" lon="1.08483">
        <ele>67</ele>
        <time>2020-07-11T18:00:53Z</time>
      </trkpt>
      <trkpt lat="47.32122" lon="1.08487">
        <ele>68</ele>
        <time>2020-07-11T18:00:55Z</time>
      </trkpt>
      <trkpt lat="47.32061" lon="1.08493">
        <ele>70</ele>
        <time>2020-07-11T18:01:06Z</time>
      </trkpt>
      <trkpt lat="47.32036" lon="1.08492">
        <ele>71</ele>
        <time>2020-07-11T18:01:10Z</time>
      </trkpt>
      <trkpt lat="47.32024" lon="1.08488">
        <ele>71</ele>
        <time>2020-07-11T18:01:13Z</time>
      </trkpt>
      <trkpt lat="47.3201" lon="1.08481">
        <ele>71</ele>
        <time>2020-07-11T18:01:15Z</time>
      </trkpt>
      <trkpt lat="47.31999" lon="1.08472">
        <ele>71</ele>
        <time>2020-07-11T18:01:17Z</time>
      </trkpt>
      <trkpt lat="47.31948" lon="1.08416">
        <ele>76</ele>
        <time>2020-07-11T18:01:29Z</time>
      </trkpt>
      <trkpt lat="47.31945" lon="1.08414">
        <ele>76</ele>
        <time>2020-07-11T18:01:29Z</time>
      </trkpt>
      <trkpt lat="47.31934" lon="1.08402">
        <ele>76</ele>
        <time>2020-07-11T18:01:32Z</time>
      </trkpt>
      <trkpt lat="47.31909" lon="1.0838">
        <ele>76</ele>
        <time>2020-07-11T18:01:37Z</time>
      </trkpt>
      <trkpt lat="47.31885" lon="1.08363">
        <ele>75</ele>
        <time>2020-07-11T18:01:42Z</time>
      </trkpt>
      <trkpt lat="47.3186" lon="1.08354">
        <ele>75</ele>
        <time>2020-07-11T18:01:46Z</time>
      </trkpt>
      <trkpt lat="47.31826" lon="1.08346">
        <ele>75</ele>
        <time>2020-07-11T18:01:52Z</time>
      </trkpt>
      <trkpt lat="47.31782" lon="1.08335">
        <ele>74</ele>
        <time>2020-07-11T18:02:00Z</time>
      </trkpt>
      <trkpt lat="47.31778" lon="1.08334">
        <ele>74</ele>
        <time>2020-07-11T18:02:01Z</time>
      </trkpt>
      <trkpt lat="47.31754" lon="1.08327">
        <ele>74</ele>
        <time>2020-07-11T18:02:05Z</time>
      </trkpt>
      <trkpt lat="47.31733" lon="1.08321">
        <ele>74</ele>
        <time>2020-07-11T18:02:09Z</time>
      </trkpt>
      <trkpt lat="47.31694" lon="1.08314">
        <ele>75</ele>
        <time>2020-07-11T18:02:16Z</time>
      </trkpt>
      <trkpt lat="47.3167" lon="1.08313">
        <ele>76</ele>
        <time>2020-07-11T18:02:21Z</time>
      </trkpt>
      <trkpt lat="47.31661" lon="1.08314">
        <ele>77</ele>
        <time>2020-07-11T18:02:22Z</time>
      </trkpt>
      <trkpt lat="47.31651" lon="1.08315">
        <ele>77</ele>
        <time>2020-07-11T18:02:24Z</time>
      </trkpt>
      <trkpt lat="47.31606" lon="1.08321">
        <ele>79</ele>
        <time>2020-07-11T18:02:32Z</time>
      </trkpt>
      <trkpt lat="47.31583" lon="1.08319">
        <ele>80</ele>
        <time>2020-07-11T18:02:36Z</time>
      </trkpt>
      <trkpt lat="47.31562" lon="1.08315">
        <ele>80</ele>
        <time>2020-07-11T18:02:40Z</time>
      </trkpt>
      <trkpt lat="47.31557" lon="1.08314">
        <ele>80</ele>
        <time>2020-07-11T18:02:41Z</time>
      </trkpt>
      <trkpt lat="47.31506" lon="1.08299">
        <ele>81</ele>
        <time>2020-07-11T18:02:50Z</time>
      </trkpt>
      <trkpt lat="47.31456" lon="1.08288">
        <ele>80</ele>
        <time>2020-07-11T18:02:59Z</time>
      </trkpt>
      <trkpt lat="47.31432" lon="1.08286">
        <ele>80</ele>
        <time>2020-07-11T18:03:03Z</time>
      </trkpt>
      <trkpt lat="47.31343" lon="1.08286">
        <ele>80</ele>
        <time>2020-07-11T18:03:19Z</time>
      </trkpt>
      <trkpt lat="47.31329" lon="1.08293">
        <ele>81</ele>
        <time>2020-07-11T18:03:22Z</time>
      </trkpt>
      <trkpt lat="47.31325" lon="1.08293">
        <ele>81</ele>
        <time>2020-07-11T18:03:22Z</time>
      </trkpt>
      <trkpt lat="47.31318" lon="1.08299">
        <ele>81</ele>
        <time>2020-07-11T18:03:24Z</time>
      </trkpt>
      <trkpt lat="47.31308" lon="1.08297">
        <ele>81</ele>
        <time>2020-07-11T18:03:26Z</time>
      </trkpt>
      <trkpt lat="47.31294" lon="1.08292">
        <ele>80</ele>
        <time>2020-07-11T18:03:28Z</time>
      </trkpt>
      <trkpt lat="47.31292" lon="1.08293">
        <ele>80</ele>
        <time>2020-07-11T18:03:29Z</time>
      </trkpt>
      <trkpt lat="47.31289" lon="1.08296">
        <ele>81</ele>
        <time>2020-07-11T18:03:29Z</time>
      </trkpt>
      <trkpt lat="47.31284" lon="1.08309">
        <ele>81</ele>
        <time>2020-07-11T18:03:31Z</time>
      </trkpt>
      <trkpt lat="47.3128" lon="1.0833">
        <ele>83</ele>
        <time>2020-07-11T18:03:34Z</time>
      </trkpt>
      <trkpt lat="47.31274" lon="1.08361">
        <ele>85</ele>
        <time>2020-07-11T18:03:38Z</time>
      </trkpt>
      <trkpt lat="47.31271" lon="1.08383">
        <ele>86</ele>
        <time>2020-07-11T18:03:40Z</time>
      </trkpt>
      <trkpt lat="47.31268" lon="1.08398">
        <ele>87</ele>
        <time>2020-07-11T18:03:42Z</time>
      </trkpt>
      <trkpt lat="47.31259" lon="1.08433">
        <ele>89</ele>
        <time>2020-07-11T18:03:47Z</time>
      </trkpt>
      <trkpt lat="47.3125" lon="1.08464">
        <ele>91</ele>
        <time>2020-07-11T18:03:51Z</time>
      </trkpt>
      <trkpt lat="47.31202" lon="1.08581">
        <ele>95</ele>
        <time>2020-07-11T18:04:07Z</time>
      </trkpt>
      <trkpt lat="47.31192" lon="1.08615">
        <ele>96</ele>
        <time>2020-07-11T18:04:12Z</time>
      </trkpt>
      <trkpt lat="47.31184" lon="1.08657">
        <ele>98</ele>
        <time>2020-07-11T18:04:17Z</time>
      </trkpt>
      <trkpt lat="47.3116" lon="1.08828">
        <ele>102</ele>
        <time>2020-07-11T18:04:38Z</time>
      </trkpt>
      <trkpt lat="47.31154" lon="1.08852">
        <ele>102</ele>
        <time>2020-07-11T18:04:41Z</time>
      </trkpt>
      <trkpt lat="47.31143" lon="1.08877">
        <ele>103</ele>
        <time>2020-07-11T18:04:45Z</time>
      </trkpt>
      <trkpt lat="47.31133" lon="1.08894">
        <ele>103</ele>
        <time>2020-07-11T18:04:47Z</time>
      </trkpt>
      <trkpt lat="47.31119" lon="1.08915">
        <ele>104</ele>
        <time>2020-07-11T18:04:51Z</time>
      </trkpt>
      <trkpt lat="47.31101" lon="1.08939">
        <ele>105</ele>
        <time>2020-07-11T18:04:55Z</time>
      </trkpt>
      <trkpt lat="47.31066" lon="1.08979">
        <ele>107</ele>
        <time>2020-07-11T18:05:03Z</time>
      </trkpt>
      <trkpt lat="47.31046" lon="1.08998">
        <ele>107</ele>
        <time>2020-07-11T18:05:07Z</time>
      </trkpt>
      <trkpt lat="47.30972" lon="1.09057">
        <ele>107</ele>
        <time>2020-07-11T18:05:22Z</time>
      </trkpt>
      <trkpt lat="47.3089" lon="1.09098">
        <ele>105</ele>
        <time>2020-07-11T18:05:38Z</time>
      </trkpt>
      <trkpt lat="47.30863" lon="1.0912">
        <ele>105</ele>
        <time>2020-07-11T18:05:43Z</time>
      </trkpt>
      <trkpt lat="47.30853" lon="1.09131">
        <ele>105</ele>
        <time>2020-07-11T18:05:45Z</time>
      </trkpt>
      <trkpt lat="47.3081" lon="1.09176">
        <ele>106</ele>
        <time>2020-07-11T18:05:55Z</time>
      </trkpt>
      <trkpt lat="47.30784" lon="1.09205">
        <ele>106</ele>
        <time>2020-07-11T18:06:01Z</time>
      </trkpt>
      <trkpt lat="47.3076" lon="1.0923">
        <ele>106</ele>
        <time>2020-07-11T18:06:06Z</time>
      </trkpt>
      <trkpt lat="47.30738" lon="1.0925">
        <ele>106</ele>
        <time>2020-07-11T18:06:10Z</time>
      </trkpt>
      <trkpt lat="47.30703" lon="1.09281">
        <ele>105</ele>
        <time>2020-07-11T18:06:18Z</time>
      </trkpt>
      <trkpt lat="47.30629" lon="1.09352">
        <ele>104</ele>
        <time>2020-07-11T18:06:33Z</time>
      </trkpt>
      <trkpt lat="47.30536" lon="1.09427">
        <ele>101</ele>
        <time>2020-07-11T18:06:52Z</time>
      </trkpt>
      <trkpt lat="47.30517" lon="1.09438">
        <ele>101</ele>
        <time>2020-07-11T18:06:56Z</time>
      </trkpt>
      <trkpt lat="47.30466" lon="1.09455">
        <ele>102</ele>
        <time>2020-07-11T18:07:05Z</time>
      </trkpt>
      <trkpt lat="47.30447" lon="1.09464">
        <ele>102</ele>
        <time>2020-07-11T18:07:09Z</time>
      </trkpt>
      <trkpt lat="47.30407" lon="1.09487">
        <ele>102</ele>
        <time>2020-07-11T18:07:16Z</time>
      </trkpt>
      <trkpt lat="47.30369" lon="1.09501">
        <ele>101</ele>
        <time>2020-07-11T18:07:23Z</time>
      </trkpt>
      <trkpt lat="47.30324" lon="1.09516">
        <ele>101</ele>
        <time>2020-07-11T18:07:32Z</time>
      </trkpt>
      <trkpt lat="47.30291" lon="1.09526">
        <ele>102</ele>
        <time>2020-07-11T18:07:38Z</time>
      </trkpt>
      <trkpt lat="47.30273" lon="1.09533">
        <ele>103</ele>
        <time>2020-07-11T18:07:41Z</time>
      </trkpt>
      <trkpt lat="47.30247" lon="1.09549">
        <ele>104</ele>
        <time>2020-07-11T18:07:46Z</time>
      </trkpt>
      <trkpt lat="47.30164" lon="1.09632">
        <ele>106</ele>
        <time>2020-07-11T18:08:04Z</time>
      </trkpt>
      <trkpt lat="47.3015" lon="1.09644">
        <ele>106</ele>
        <time>2020-07-11T18:08:07Z</time>
      </trkpt>
      <trkpt lat="47.3013" lon="1.09658">
        <ele>106</ele>
        <time>2020-07-11T18:08:11Z</time>
      </trkpt>
      <trkpt lat="47.30114" lon="1.09666">
        <ele>107</ele>
        <time>2020-07-11T18:08:14Z</time>
      </trkpt>
      <trkpt lat="47.30065" lon="1.09683">
        <ele>107</ele>
        <time>2020-07-11T18:08:23Z</time>
      </trkpt>
      <trkpt lat="47.30053" lon="1.0969">
        <ele>108</ele>
        <time>2020-07-11T18:08:25Z</time>
      </trkpt>
      <trkpt lat="47.30008" lon="1.09723">
        <ele>108</ele>
        <time>2020-07-11T18:08:34Z</time>
      </trkpt>
      <trkpt lat="47.29997" lon="1.09728">
        <ele>108</ele>
        <time>2020-07-11T18:08:36Z</time>
      </trkpt>
      <trkpt lat="47.29968" lon="1.09734">
        <ele>108</ele>
        <time>2020-07-11T18:08:41Z</time>
      </trkpt>
      <trkpt lat="47.29855" lon="1.09729">
        <ele>106</ele>
        <time>2020-07-11T18:09:01Z</time>
      </trkpt>
      <trkpt lat="47.29827" lon="1.09731">
        <ele>105</ele>
        <time>2020-07-11T18:09:06Z</time>
      </trkpt>
      <trkpt lat="47.29812" lon="1.09735">
        <ele>105</ele>
        <time>2020-07-11T18:09:09Z</time>
      </trkpt>
      <trkpt lat="47.29796" lon="1.09743">
        <ele>105</ele>
        <time>2020-07-11T18:09:12Z</time>
      </trkpt>
      <trkpt lat="47.29779" lon="1.09755">
        <ele>105</ele>
        <time>2020-07-11T18:09:15Z</time>
      </trkpt>
      <trkpt lat="47.29626" lon="1.09893">
        <ele>108</ele>
        <time>2020-07-11T18:09:47Z</time>
      </trkpt>
      <trkpt lat="47.29599" lon="1.09905">
        <ele>109</ele>
        <time>2020-07-11T18:09:52Z</time>
      </trkpt>
      <trkpt lat="47.29581" lon="1.0991">
        <ele>109</ele>
        <time>2020-07-11T18:09:55Z</time>
      </trkpt>
      <trkpt lat="47.29455" lon="1.09918">
        <ele>111</ele>
        <time>2020-07-11T18:10:18Z</time>
      </trkpt>
      <trkpt lat="47.29424" lon="1.09921">
        <ele>111</ele>
        <time>2020-07-11T18:10:23Z</time>
      </trkpt>
      <trkpt lat="47.29406" lon="1.0992">
        <ele>111</ele>
        <time>2020-07-11T18:10:27Z</time>
      </trkpt>
      <trkpt lat="47.29391" lon="1.09916">
        <ele>111</ele>
        <time>2020-07-11T18:10:29Z</time>
      </trkpt>
      <trkpt lat="47.29374" lon="1.09908">
        <ele>111</ele>
        <time>2020-07-11T18:10:32Z</time>
      </trkpt>
      <trkpt lat="47.2934" lon="1.09886">
        <ele>111</ele>
        <time>2020-07-11T18:10:39Z</time>
      </trkpt>
      <trkpt lat="47.29323" lon="1.09877">
        <ele>111</ele>
        <time>2020-07-11T18:10:42Z</time>
      </trkpt>
      <trkpt lat="47.29294" lon="1.09868">
        <ele>111</ele>
        <time>2020-07-11T18:10:48Z</time>
      </trkpt>
      <trkpt lat="47.29259" lon="1.09866">
        <ele>111</ele>
        <time>2020-07-11T18:10:54Z</time>
      </trkpt>
      <trkpt lat="47.29222" lon="1.09862">
        <ele>111</ele>
        <time>2020-07-11T18:11:00Z</time>
      </trkpt>
      <trkpt lat="47.29189" lon="1.09859">
        <ele>112</ele>
        <time>2020-07-11T18:11:06Z</time>
      </trkpt>
      <trkpt lat="47.29161" lon="1.0986">
        <ele>113</ele>
        <time>2020-07-11T18:11:11Z</time>
      </trkpt>
      <trkpt lat="47.29148" lon="1.09863">
        <ele>113</ele>
        <time>2020-07-11T18:11:14Z</time>
      </trkpt>
      <trkpt lat="47.29131" lon="1.09871">
        <ele>113</ele>
        <time>2020-07-11T18:11:17Z</time>
      </trkpt>
      <trkpt lat="47.29098" lon="1.09889">
        <ele>113</ele>
        <time>2020-07-11T18:11:23Z</time>
      </trkpt>
      <trkpt lat="47.2907" lon="1.09902">
        <ele>113</ele>
        <time>2020-07-11T18:11:28Z</time>
      </trkpt>
      <trkpt lat="47.29051" lon="1.09911">
        <ele>114</ele>
        <time>2020-07-11T18:11:32Z</time>
      </trkpt>
      <trkpt lat="47.29017" lon="1.09921">
        <ele>115</ele>
        <time>2020-07-11T18:11:38Z</time>
      </trkpt>
      <trkpt lat="47.2891" lon="1.09939">
        <ele>115</ele>
        <time>2020-07-11T18:11:57Z</time>
      </trkpt>
      <trkpt lat="47.28891" lon="1.09944">
        <ele>115</ele>
        <time>2020-07-11T18:12:01Z</time>
      </trkpt>
      <trkpt lat="47.28876" lon="1.09952">
        <ele>115</ele>
        <time>2020-07-11T18:12:03Z</time>
      </trkpt>
      <trkpt lat="47.28858" lon="1.09963">
        <ele>115</ele>
        <time>2020-07-11T18:12:07Z</time>
      </trkpt>
      <trkpt lat="47.28715" lon="1.10059">
        <ele>116</ele>
        <time>2020-07-11T18:12:35Z</time>
      </trkpt>
      <trkpt lat="47.28688" lon="1.1007">
        <ele>117</ele>
        <time>2020-07-11T18:12:40Z</time>
      </trkpt>
      <trkpt lat="47.28659" lon="1.10078">
        <ele>117</ele>
        <time>2020-07-11T18:12:45Z</time>
      </trkpt>
      <trkpt lat="47.28626" lon="1.10086">
        <ele>117</ele>
        <time>2020-07-11T18:12:51Z</time>
      </trkpt>
      <trkpt lat="47.28483" lon="1.101">
        <ele>117</ele>
        <time>2020-07-11T18:13:17Z</time>
      </trkpt>
      <trkpt lat="47.28423" lon="1.10105">
        <ele>117</ele>
        <time>2020-07-11T18:13:27Z</time>
      </trkpt>
      <trkpt lat="47.28295" lon="1.10112">
        <ele>117</ele>
        <time>2020-07-11T18:13:50Z</time>
      </trkpt>
      <trkpt lat="47.28224" lon="1.10116">
        <ele>118</ele>
        <time>2020-07-11T18:14:03Z</time>
      </trkpt>
      <trkpt lat="47.28143" lon="1.10116">
        <ele>118</ele>
        <time>2020-07-11T18:14:17Z</time>
      </trkpt>
      <trkpt lat="47.28131" lon="1.10119">
        <ele>118</ele>
        <time>2020-07-11T18:14:19Z</time>
      </trkpt>
      <trkpt lat="47.28122" lon="1.10124">
        <ele>118</ele>
        <time>2020-07-11T18:14:21Z</time>
      </trkpt>
      <trkpt lat="47.28114" lon="1.10133">
        <ele>118</ele>
        <time>2020-07-11T18:14:23Z</time>
      </trkpt>
      <trkpt lat="47.28107" lon="1.10145">
        <ele>118</ele>
        <time>2020-07-11T18:14:25Z</time>
      </trkpt>
      <trkpt lat="47.28102" lon="1.10174">
        <ele>119</ele>
        <time>2020-07-11T18:14:28Z</time>
      </trkpt>
      <trkpt lat="47.28078" lon="1.10547">
        <ele>110</ele>
        <time>2020-07-11T18:15:14Z</time>
      </trkpt>
      <trkpt lat="47.28075" lon="1.10601">
        <ele>108</ele>
        <time>2020-07-11T18:15:20Z</time>
      </trkpt>
      <trkpt lat="47.28068" lon="1.10635">
        <ele>107</ele>
        <time>2020-07-11T18:15:24Z</time>
      </trkpt>
      <trkpt lat="47.28066" lon="1.10663">
        <ele>106</ele>
        <time>2020-07-11T18:15:28Z</time>
      </trkpt>
      <trkpt lat="47.28067" lon="1.10685">
        <ele>106</ele>
        <time>2020-07-11T18:15:30Z</time>
      </trkpt>
      <trkpt lat="47.28068" lon="1.10706">
        <ele>105</ele>
        <time>2020-07-11T18:15:33Z</time>
      </trkpt>
      <trkpt lat="47.28059" lon="1.10843">
        <ele>102</ele>
        <time>2020-07-11T18:15:50Z</time>
      </trkpt>
      <trkpt lat="47.28058" lon="1.10872">
        <ele>101</ele>
        <time>2020-07-11T18:15:53Z</time>
      </trkpt>
      <trkpt lat="47.28067" lon="1.10958">
        <ele>98</ele>
        <time>2020-07-11T18:16:04Z</time>
      </trkpt>
      <trkpt lat="47.28069" lon="1.10973">
        <ele>98</ele>
        <time>2020-07-11T18:16:05Z</time>
      </trkpt>
      <trkpt lat="47.28071" lon="1.10992">
        <ele>97</ele>
        <time>2020-07-11T18:16:08Z</time>
      </trkpt>
      <trkpt lat="47.28075" lon="1.1103">
        <ele>95</ele>
        <time>2020-07-11T18:16:12Z</time>
      </trkpt>
      <trkpt lat="47.28077" lon="1.11037">
        <ele>95</ele>
        <time>2020-07-11T18:16:13Z</time>
      </trkpt>
      <trkpt lat="47.28081" lon="1.11042">
        <ele>95</ele>
        <time>2020-07-11T18:16:14Z</time>
      </trkpt>
      <trkpt lat="47.28111" lon="1.11066">
        <ele>94</ele>
        <time>2020-07-11T18:16:20Z</time>
      </trkpt>
      <trkpt lat="47.28115" lon="1.11074">
        <ele>94</ele>
        <time>2020-07-11T18:16:21Z</time>
      </trkpt>
      <trkpt lat="47.28115" lon="1.11089">
        <ele>93</ele>
        <time>2020-07-11T18:16:23Z</time>
      </trkpt>
      <trkpt lat="47.28112" lon="1.1111">
        <ele>92</ele>
        <time>2020-07-11T18:16:26Z</time>
      </trkpt>
      <trkpt lat="47.28108" lon="1.11138">
        <ele>92</ele>
        <time>2020-07-11T18:16:29Z</time>
      </trkpt>
      <trkpt lat="47.28103" lon="1.11165">
        <ele>91</ele>
        <time>2020-07-11T18:16:33Z</time>
      </trkpt>
      <trkpt lat="47.28104" lon="1.11193">
        <ele>89</ele>
        <time>2020-07-11T18:16:36Z</time>
      </trkpt>
      <trkpt lat="47.28104" lon="1.11217">
        <ele>88</ele>
        <time>2020-07-11T18:16:39Z</time>
      </trkpt>
      <trkpt lat="47.28103" lon="1.11228">
        <ele>87</ele>
        <time>2020-07-11T18:16:40Z</time>
      </trkpt>
      <trkpt lat="47.281" lon="1.11236">
        <ele>87</ele>
        <time>2020-07-11T18:16:41Z</time>
      </trkpt>
      <trkpt lat="47.28095" lon="1.11242">
        <ele>87</ele>
        <time>2020-07-11T18:16:43Z</time>
      </trkpt>
      <trkpt lat="47.2808" lon="1.1125">
        <ele>87</ele>
        <time>2020-07-11T18:16:45Z</time>
      </trkpt>
      <trkpt lat="47.2806" lon="1.11257">
        <ele>87</ele>
        <time>2020-07-11T18:16:49Z</time>
      </trkpt>
      <trkpt lat="47.2803" lon="1.11272">
        <ele>86</ele>
        <time>2020-07-11T18:16:55Z</time>
      </trkpt>
      <trkpt lat="47.28025" lon="1.11277">
        <ele>86</ele>
        <time>2020-07-11T18:16:56Z</time>
      </trkpt>
      <trkpt lat="47.2802" lon="1.11287">
        <ele>86</ele>
        <time>2020-07-11T18:16:57Z</time>
      </trkpt>
      <trkpt lat="47.28017" lon="1.11286">
        <ele>86</ele>
        <time>2020-07-11T18:16:58Z</time>
      </trkpt>
      <trkpt lat="47.2798" lon="1.11315">
        <ele>88</ele>
        <time>2020-07-11T18:17:05Z</time>
      </trkpt>
      <trkpt lat="47.27845" lon="1.11443">
        <ele>88</ele>
        <time>2020-07-11T18:17:34Z</time>
      </trkpt>
      <trkpt lat="47.27832" lon="1.11451">
        <ele>88</ele>
        <time>2020-07-11T18:17:36Z</time>
      </trkpt>
      <trkpt lat="47.27816" lon="1.11457">
        <ele>87</ele>
        <time>2020-07-11T18:17:39Z</time>
      </trkpt>
      <trkpt lat="47.27652" lon="1.11455">
        <ele>88</ele>
        <time>2020-07-11T18:18:08Z</time>
      </trkpt>
      <trkpt lat="47.27592" lon="1.1145">
        <ele>89</ele>
        <time>2020-07-11T18:18:19Z</time>
      </trkpt>
      <trkpt lat="47.27511" lon="1.1144">
        <ele>87</ele>
        <time>2020-07-11T18:18:34Z</time>
      </trkpt>
      <trkpt lat="47.27466" lon="1.11424">
        <ele>88</ele>
        <time>2020-07-11T18:18:42Z</time>
      </trkpt>
      <trkpt lat="47.27415" lon="1.11403">
        <ele>89</ele>
        <time>2020-07-11T18:18:51Z</time>
      </trkpt>
      <trkpt lat="47.27343" lon="1.11367">
        <ele>90</ele>
        <time>2020-07-11T18:19:05Z</time>
      </trkpt>
      <trkpt lat="47.27321" lon="1.11361">
        <ele>91</ele>
        <time>2020-07-11T18:19:09Z</time>
      </trkpt>
      <trkpt lat="47.273" lon="1.11364">
        <ele>90</ele>
        <time>2020-07-11T18:19:13Z</time>
      </trkpt>
      <trkpt lat="47.27272" lon="1.11379">
        <ele>88</ele>
        <time>2020-07-11T18:19:18Z</time>
      </trkpt>
      <trkpt lat="47.27238" lon="1.11427">
        <ele>83</ele>
        <time>2020-07-11T18:19:26Z</time>
      </trkpt>
      <trkpt lat="47.272" lon="1.11514">
        <ele>81</ele>
        <time>2020-07-11T18:19:39Z</time>
      </trkpt>
      <trkpt lat="47.27181" lon="1.11545">
        <ele>81</ele>
        <time>2020-07-11T18:19:44Z</time>
      </trkpt>
      <trkpt lat="47.2716" lon="1.11566">
        <ele>81</ele>
        <time>2020-07-11T18:19:48Z</time>
      </trkpt>
      <trkpt lat="47.27135" lon="1.11581">
        <ele>82</ele>
        <time>2020-07-11T18:19:53Z</time>
      </trkpt>
      <trkpt lat="47.27101" lon="1.11596">
        <ele>83</ele>
        <time>2020-07-11T18:19:59Z</time>
      </trkpt>
      <trkpt lat="47.27074" lon="1.11604">
        <ele>85</ele>
        <time>2020-07-11T18:20:04Z</time>
      </trkpt>
      <trkpt lat="47.27035" lon="1.11628">
        <ele>87</ele>
        <time>2020-07-11T18:20:12Z</time>
      </trkpt>
      <trkpt lat="47.26986" lon="1.11659">
        <ele>89</ele>
        <time>2020-07-11T18:20:21Z</time>
      </trkpt>
      <trkpt lat="47.26966" lon="1.11679">
        <ele>88</ele>
        <time>2020-07-11T18:20:26Z</time>
      </trkpt>
      <trkpt lat="47.26961" lon="1.11686">
        <ele>88</ele>
        <time>2020-07-11T18:20:27Z</time>
      </trkpt>
      <trkpt lat="47.26942" lon="1.11707">
        <ele>88</ele>
        <time>2020-07-11T18:20:31Z</time>
      </trkpt>
      <trkpt lat="47.26932" lon="1.11719">
        <ele>87</ele>
        <time>2020-07-11T18:20:33Z</time>
      </trkpt>
      <trkpt lat="47.26922" lon="1.1173">
        <ele>87</ele>
        <time>2020-07-11T18:20:36Z</time>
      </trkpt>
      <trkpt lat="47.26901" lon="1.11746">
        <ele>87</ele>
        <time>2020-07-11T18:20:40Z</time>
      </trkpt>
      <trkpt lat="47.26765" lon="1.11791">
        <ele>95</ele>
        <time>2020-07-11T18:21:05Z</time>
      </trkpt>
      <trkpt lat="47.26718" lon="1.11815">
        <ele>97</ele>
        <time>2020-07-11T18:21:13Z</time>
      </trkpt>
      <trkpt lat="47.26686" lon="1.11841">
        <ele>99</ele>
        <time>2020-07-11T18:21:20Z</time>
      </trkpt>
      <trkpt lat="47.26656" lon="1.11872">
        <ele>99</ele>
        <time>2020-07-11T18:21:26Z</time>
      </trkpt>
      <trkpt lat="47.26628" lon="1.11905">
        <ele>98</ele>
        <time>2020-07-11T18:21:33Z</time>
      </trkpt>
      <trkpt lat="47.26607" lon="1.11936">
        <ele>97</ele>
        <time>2020-07-11T18:21:38Z</time>
      </trkpt>
      <trkpt lat="47.26577" lon="1.12">
        <ele>94</ele>
        <time>2020-07-11T18:21:48Z</time>
      </trkpt>
      <trkpt lat="47.2655" lon="1.12079">
        <ele>94</ele>
        <time>2020-07-11T18:21:58Z</time>
      </trkpt>
      <trkpt lat="47.26481" lon="1.12304">
        <ele>89</ele>
        <time>2020-07-11T18:22:28Z</time>
      </trkpt>
      <trkpt lat="47.26462" lon="1.12358">
        <ele>87</ele>
        <time>2020-07-11T18:22:35Z</time>
      </trkpt>
      <trkpt lat="47.26439" lon="1.124">
        <ele>86</ele>
        <time>2020-07-11T18:22:42Z</time>
      </trkpt>
      <trkpt lat="47.26417" lon="1.12429">
        <ele>86</ele>
        <time>2020-07-11T18:22:47Z</time>
      </trkpt>
      <trkpt lat="47.26394" lon="1.12447">
        <ele>86</ele>
        <time>2020-07-11T18:22:52Z</time>
      </trkpt>
      <trkpt lat="47.26381" lon="1.12457">
        <ele>86</ele>
        <time>2020-07-11T18:22:54Z</time>
      </trkpt>
      <trkpt lat="47.26375" lon="1.1246">
        <ele>86</ele>
        <time>2020-07-11T18:22:56Z</time>
      </trkpt>
      <trkpt lat="47.2637" lon="1.12463">
        <ele>86</ele>
        <time>2020-07-11T18:22:56Z</time>
      </trkpt>
      <trkpt lat="47.26361" lon="1.12469">
        <ele>86</ele>
        <time>2020-07-11T18:22:58Z</time>
      </trkpt>
      <trkpt lat="47.26326" lon="1.12485">
        <ele>86</ele>
        <time>2020-07-11T18:23:05Z</time>
      </trkpt>
      <trkpt lat="47.26303" lon="1.12489">
        <ele>86</ele>
        <time>2020-07-11T18:23:09Z</time>
      </trkpt>
      <trkpt lat="47.26167" lon="1.12493">
        <ele>93</ele>
        <time>2020-07-11T18:23:33Z</time>
      </trkpt>
      <trkpt lat="47.26108" lon="1.12489">
        <ele>96</ele>
        <time>2020-07-11T18:23:44Z</time>
      </trkpt>
      <trkpt lat="47.2609" lon="1.12493">
        <ele>97</ele>
        <time>2020-07-11T18:23:47Z</time>
      </trkpt>
      <trkpt lat="47.2602" lon="1.12524">
        <ele>98</ele>
        <time>2020-07-11T18:24:00Z</time>
      </trkpt>
      <trkpt lat="47.26005" lon="1.12535">
        <ele>98</ele>
        <time>2020-07-11T18:24:03Z</time>
      </trkpt>
      <trkpt lat="47.25992" lon="1.1255">
        <ele>97</ele>
        <time>2020-07-11T18:24:06Z</time>
      </trkpt>
      <trkpt lat="47.2595" lon="1.12615">
        <ele>97</ele>
        <time>2020-07-11T18:24:17Z</time>
      </trkpt>
      <trkpt lat="47.25943" lon="1.12631">
        <ele>98</ele>
        <time>2020-07-11T18:24:19Z</time>
      </trkpt>
      <trkpt lat="47.25938" lon="1.12648">
        <ele>97</ele>
        <time>2020-07-11T18:24:21Z</time>
      </trkpt>
      <trkpt lat="47.25921" lon="1.12769">
        <ele>92</ele>
        <time>2020-07-11T18:24:36Z</time>
      </trkpt>
      <trkpt lat="47.25917" lon="1.12783">
        <ele>91</ele>
        <time>2020-07-11T18:24:38Z</time>
      </trkpt>
      <trkpt lat="47.25913" lon="1.12793">
        <ele>91</ele>
        <time>2020-07-11T18:24:39Z</time>
      </trkpt>
      <trkpt lat="47.25904" lon="1.12809">
        <ele>90</ele>
        <time>2020-07-11T18:24:42Z</time>
      </trkpt>
      <trkpt lat="47.2572" lon="1.13015">
        <ele>95</ele>
        <time>2020-07-11T18:25:23Z</time>
      </trkpt>
      <trkpt lat="47.25664" lon="1.13085">
        <ele>104</ele>
        <time>2020-07-11T18:25:36Z</time>
      </trkpt>
      <trkpt lat="47.25556" lon="1.13226">
        <ele>105</ele>
        <time>2020-07-11T18:26:02Z</time>
      </trkpt>
      <trkpt lat="47.25549" lon="1.13235">
        <ele>105</ele>
        <time>2020-07-11T18:26:03Z</time>
      </trkpt>
      <trkpt lat="47.25513" lon="1.13285">
        <ele>105</ele>
        <time>2020-07-11T18:26:12Z</time>
      </trkpt>
      <trkpt lat="47.25352" lon="1.13497">
        <ele>110</ele>
        <time>2020-07-11T18:26:51Z</time>
      </trkpt>
      <trkpt lat="47.25343" lon="1.13511">
        <ele>110</ele>
        <time>2020-07-11T18:26:53Z</time>
      </trkpt>
      <trkpt lat="47.25331" lon="1.13531">
        <ele>110</ele>
        <time>2020-07-11T18:26:56Z</time>
      </trkpt>
      <trkpt lat="47.25301" lon="1.1359">
        <ele>106</ele>
        <time>2020-07-11T18:27:05Z</time>
      </trkpt>
      <trkpt lat="47.25282" lon="1.13631">
        <ele>103</ele>
        <time>2020-07-11T18:27:11Z</time>
      </trkpt>
      <trkpt lat="47.25251" lon="1.137">
        <ele>99</ele>
        <time>2020-07-11T18:27:21Z</time>
      </trkpt>
      <trkpt lat="47.25206" lon="1.138">
        <ele>98</ele>
        <time>2020-07-11T18:27:35Z</time>
      </trkpt>
      <trkpt lat="47.25177" lon="1.13865">
        <ele>99</ele>
        <time>2020-07-11T18:27:45Z</time>
      </trkpt>
      <trkpt lat="47.2517" lon="1.13882">
        <ele>99</ele>
        <time>2020-07-11T18:27:47Z</time>
      </trkpt>
      <trkpt lat="47.25167" lon="1.13887">
        <ele>99</ele>
        <time>2020-07-11T18:27:48Z</time>
      </trkpt>
      <trkpt lat="47.25161" lon="1.13901">
        <ele>99</ele>
        <time>2020-07-11T18:27:50Z</time>
      </trkpt>
      <trkpt lat="47.25143" lon="1.13939">
        <ele>100</ele>
        <time>2020-07-11T18:27:56Z</time>
      </trkpt>
      <trkpt lat="47.25139" lon="1.13948">
        <ele>101</ele>
        <time>2020-07-11T18:27:57Z</time>
      </trkpt>
      <trkpt lat="47.25151" lon="1.13958">
        <ele>100</ele>
        <time>2020-07-11T18:27:59Z</time>
      </trkpt>
      <trkpt lat="47.25165" lon="1.13972">
        <ele>98</ele>
        <time>2020-07-11T18:28:02Z</time>
      </trkpt>
      <trkpt lat="47.25185" lon="1.13985">
        <ele>97</ele>
        <time>2020-07-11T18:28:06Z</time>
      </trkpt>
      <trkpt lat="47.25203" lon="1.13999">
        <ele>95</ele>
        <time>2020-07-11T18:28:10Z</time>
      </trkpt>
      <trkpt lat="47.25216" lon="1.14007">
        <ele>94</ele>
        <time>2020-07-11T18:28:12Z</time>
      </trkpt>
      <trkpt lat="47.25227" lon="1.14017">
        <ele>93</ele>
        <time>2020-07-11T18:28:15Z</time>
      </trkpt>
      <trkpt lat="47.25235" lon="1.14027">
        <ele>93</ele>
        <time>2020-07-11T18:28:17Z</time>
      </trkpt>
      <trkpt lat="47.25239" lon="1.14033">
        <ele>93</ele>
        <time>2020-07-11T18:28:18Z</time>
      </trkpt>
      <trkpt lat="47.25242" lon="1.14039">
        <ele>93</ele>
        <time>2020-07-11T18:28:19Z</time>
      </trkpt>
      <trkpt lat="47.25247" lon="1.14049">
        <ele>92</ele>
        <time>2020-07-11T18:28:20Z</time>
      </trkpt>
      <trkpt lat="47.2525" lon="1.14058">
        <ele>92</ele>
        <time>2020-07-11T18:28:21Z</time>
      </trkpt>
      <trkpt lat="47.25256" lon="1.14088">
        <ele>93</ele>
        <time>2020-07-11T18:28:25Z</time>
      </trkpt>
      <trkpt lat="47.25267" lon="1.14189">
        <ele>98</ele>
        <time>2020-07-11T18:28:37Z</time>
      </trkpt>
      <trkpt lat="47.25272" lon="1.14215">
        <ele>99</ele>
        <time>2020-07-11T18:28:41Z</time>
      </trkpt>
      <trkpt lat="47.25273" lon="1.14218">
        <ele>99</ele>
        <time>2020-07-11T18:28:41Z</time>
      </trkpt>
      <trkpt lat="47.25276" lon="1.14229">
        <ele>100</ele>
        <time>2020-07-11T18:28:42Z</time>
      </trkpt>
      <trkpt lat="47.2528" lon="1.14239">
        <ele>101</ele>
        <time>2020-07-11T18:28:44Z</time>
      </trkpt>
      <trkpt lat="47.25286" lon="1.14252">
        <ele>101</ele>
        <time>2020-07-11T18:28:46Z</time>
      </trkpt>
      <trkpt lat="47.25291" lon="1.14259">
        <ele>102</ele>
        <time>2020-07-11T18:28:47Z</time>
      </trkpt>
      <trkpt lat="47.25297" lon="1.14268">
        <ele>103</ele>
        <time>2020-07-11T18:28:49Z</time>
      </trkpt>
      <trkpt lat="47.25283" lon="1.14289">
        <ele>104</ele>
        <time>2020-07-11T18:28:52Z</time>
      </trkpt>
      <trkpt lat="47.25278" lon="1.14302">
        <ele>104</ele>
        <time>2020-07-11T18:28:54Z</time>
      </trkpt>
      <trkpt lat="47.25275" lon="1.14324">
        <ele>106</ele>
        <time>2020-07-11T18:28:57Z</time>
      </trkpt>
      <trkpt lat="47.25292" lon="1.14726">
        <ele>126</ele>
        <time>2020-07-11T18:29:45Z</time>
      </trkpt>
      <trkpt lat="47.25298" lon="1.15">
        <ele>131</ele>
        <time>2020-07-11T18:30:18Z</time>
      </trkpt>
      <trkpt lat="47.25231" lon="1.15348">
        <ele>134</ele>
        <time>2020-07-11T18:31:02Z</time>
      </trkpt>
      <trkpt lat="47.25225" lon="1.15558">
        <ele>137</ele>
        <time>2020-07-11T18:31:27Z</time>
      </trkpt>
      <trkpt lat="47.25196" lon="1.15687">
        <ele>139</ele>
        <time>2020-07-11T18:31:44Z</time>
      </trkpt>
      <trkpt lat="47.25167" lon="1.15915">
        <ele>141</ele>
        <time>2020-07-11T18:32:12Z</time>
      </trkpt>
      <trkpt lat="47.25114" lon="1.1636">
        <ele>136</ele>
        <time>2020-07-11T18:33:06Z</time>
      </trkpt>
      <trkpt lat="47.2511" lon="1.164">
        <ele>138</ele>
        <time>2020-07-11T18:33:11Z</time>
      </trkpt>
      <trkpt lat="47.2511" lon="1.16429">
        <ele>138</ele>
        <time>2020-07-11T18:33:15Z</time>
      </trkpt>
      <trkpt lat="47.25132" lon="1.16751">
        <ele>138</ele>
        <time>2020-07-11T18:33:54Z</time>
      </trkpt>
      <trkpt lat="47.25143" lon="1.16884">
        <ele>139</ele>
        <time>2020-07-11T18:34:10Z</time>
      </trkpt>
      <trkpt lat="47.25158" lon="1.17109">
        <ele>139</ele>
        <time>2020-07-11T18:34:37Z</time>
      </trkpt>
      <trkpt lat="47.2517" lon="1.17153">
        <ele>138</ele>
        <time>2020-07-11T18:34:43Z</time>
      </trkpt>
      <trkpt lat="47.25213" lon="1.17245">
        <ele>135</ele>
        <time>2020-07-11T18:34:57Z</time>
      </trkpt>
      <trkpt lat="47.25241" lon="1.17335">
        <ele>134</ele>
        <time>2020-07-11T18:35:09Z</time>
      </trkpt>
      <trkpt lat="47.25292" lon="1.17513">
        <ele>133</ele>
        <time>2020-07-11T18:35:32Z</time>
      </trkpt>
      <trkpt lat="47.25306" lon="1.17556">
        <ele>133</ele>
        <time>2020-07-11T18:35:38Z</time>
      </trkpt>
      <trkpt lat="47.25337" lon="1.17674">
        <ele>133</ele>
        <time>2020-07-11T18:35:53Z</time>
      </trkpt>
      <trkpt lat="47.25384" lon="1.17867">
        <ele>132</ele>
        <time>2020-07-11T18:36:18Z</time>
      </trkpt>
      <trkpt lat="47.25403" lon="1.17955">
        <ele>134</ele>
        <time>2020-07-11T18:36:29Z</time>
      </trkpt>
      <trkpt lat="47.2541" lon="1.18012">
        <ele>135</ele>
        <time>2020-07-11T18:36:36Z</time>
      </trkpt>
      <trkpt lat="47.25416" lon="1.18203">
        <ele>138</ele>
        <time>2020-07-11T18:36:59Z</time>
      </trkpt>
      <trkpt lat="47.25421" lon="1.18237">
        <ele>139</ele>
        <time>2020-07-11T18:37:03Z</time>
      </trkpt>
      <trkpt lat="47.25434" lon="1.18291">
        <ele>138</ele>
        <time>2020-07-11T18:37:10Z</time>
      </trkpt>
      <trkpt lat="47.25454" lon="1.1835">
        <ele>137</ele>
        <time>2020-07-11T18:37:18Z</time>
      </trkpt>
      <trkpt lat="47.25464" lon="1.18374">
        <ele>137</ele>
        <time>2020-07-11T18:37:21Z</time>
      </trkpt>
      <trkpt lat="47.25491" lon="1.18418">
        <ele>135</ele>
        <time>2020-07-11T18:37:29Z</time>
      </trkpt>
      <trkpt lat="47.25527" lon="1.18465">
        <ele>134</ele>
        <time>2020-07-11T18:37:37Z</time>
      </trkpt>
      <trkpt lat="47.25557" lon="1.18507">
        <ele>134</ele>
        <time>2020-07-11T18:37:44Z</time>
      </trkpt>
      <trkpt lat="47.25572" lon="1.18524">
        <ele>134</ele>
        <time>2020-07-11T18:37:48Z</time>
      </trkpt>
      <trkpt lat="47.25583" lon="1.18536">
        <ele>134</ele>
        <time>2020-07-11T18:37:50Z</time>
      </trkpt>
      <trkpt lat="47.2565" lon="1.18573">
        <ele>136</ele>
        <time>2020-07-11T18:38:03Z</time>
      </trkpt>
      <trkpt lat="47.25666" lon="1.18588">
        <ele>137</ele>
        <time>2020-07-11T18:38:06Z</time>
      </trkpt>
      <trkpt lat="47.25711" lon="1.18652">
        <ele>137</ele>
        <time>2020-07-11T18:38:18Z</time>
      </trkpt>
      <trkpt lat="47.25723" lon="1.18667">
        <ele>137</ele>
        <time>2020-07-11T18:38:20Z</time>
      </trkpt>
      <trkpt lat="47.25755" lon="1.18699">
        <ele>136</ele>
        <time>2020-07-11T18:38:27Z</time>
      </trkpt>
      <trkpt lat="47.25774" lon="1.18723">
        <ele>135</ele>
        <time>2020-07-11T18:38:32Z</time>
      </trkpt>
      <trkpt lat="47.25808" lon="1.18786">
        <ele>135</ele>
        <time>2020-07-11T18:38:41Z</time>
      </trkpt>
      <trkpt lat="47.25827" lon="1.18835">
        <ele>133</ele>
        <time>2020-07-11T18:38:48Z</time>
      </trkpt>
      <trkpt lat="47.25837" lon="1.18851">
        <ele>133</ele>
        <time>2020-07-11T18:38:51Z</time>
      </trkpt>
      <trkpt lat="47.25848" lon="1.18862">
        <ele>132</ele>
        <time>2020-07-11T18:38:53Z</time>
      </trkpt>
      <trkpt lat="47.25866" lon="1.18875">
        <ele>131</ele>
        <time>2020-07-11T18:38:57Z</time>
      </trkpt>
      <trkpt lat="47.25879" lon="1.18889">
        <ele>130</ele>
        <time>2020-07-11T18:39:00Z</time>
      </trkpt>
      <trkpt lat="47.25915" lon="1.18939">
        <ele>125</ele>
        <time>2020-07-11T18:39:08Z</time>
      </trkpt>
      <trkpt lat="47.25921" lon="1.18957">
        <ele>124</ele>
        <time>2020-07-11T18:39:11Z</time>
      </trkpt>
      <trkpt lat="47.25927" lon="1.1896">
        <ele>124</ele>
        <time>2020-07-11T18:39:12Z</time>
      </trkpt>
      <trkpt lat="47.26005" lon="1.1904">
        <ele>123</ele>
        <time>2020-07-11T18:39:29Z</time>
      </trkpt>
      <trkpt lat="47.26014" lon="1.19044">
        <ele>124</ele>
        <time>2020-07-11T18:39:31Z</time>
      </trkpt>
      <trkpt lat="47.26064" lon="1.19044">
        <ele>123</ele>
        <time>2020-07-11T18:39:39Z</time>
      </trkpt>
      <trkpt lat="47.26097" lon="1.19034">
        <ele>122</ele>
        <time>2020-07-11T18:39:45Z</time>
      </trkpt>
      <trkpt lat="47.26126" lon="1.19098">
        <ele>124</ele>
        <time>2020-07-11T18:39:55Z</time>
      </trkpt>
      <trkpt lat="47.26133" lon="1.19117">
        <ele>124</ele>
        <time>2020-07-11T18:39:57Z</time>
      </trkpt>
      <trkpt lat="47.26138" lon="1.19139">
        <ele>125</ele>
        <time>2020-07-11T18:40:00Z</time>
      </trkpt>
      <trkpt lat="47.26142" lon="1.19203">
        <ele>126</ele>
        <time>2020-07-11T18:40:08Z</time>
      </trkpt>
      <trkpt lat="47.26145" lon="1.19347">
        <ele>128</ele>
        <time>2020-07-11T18:40:25Z</time>
      </trkpt>
      <trkpt lat="47.26144" lon="1.19365">
        <ele>128</ele>
        <time>2020-07-11T18:40:27Z</time>
      </trkpt>
      <trkpt lat="47.26063" lon="1.19823">
        <ele>142</ele>
        <time>2020-07-11T18:41:25Z</time>
      </trkpt>
      <trkpt lat="47.26059" lon="1.1986">
        <ele>142</ele>
        <time>2020-07-11T18:41:29Z</time>
      </trkpt>
      <trkpt lat="47.26055" lon="1.19983">
        <ele>142</ele>
        <time>2020-07-11T18:41:44Z</time>
      </trkpt>
      <trkpt lat="47.26014" lon="1.20549">
        <ele>143</ele>
        <time>2020-07-11T18:42:53Z</time>
      </trkpt>
      <trkpt lat="47.2601" lon="1.20596">
        <ele>144</ele>
        <time>2020-07-11T18:42:58Z</time>
      </trkpt>
      <trkpt lat="47.25996" lon="1.20669">
        <ele>147</ele>
        <time>2020-07-11T18:43:08Z</time>
      </trkpt>
      <trkpt lat="47.2598" lon="1.20799">
        <ele>151</ele>
        <time>2020-07-11T18:43:24Z</time>
      </trkpt>
      <trkpt lat="47.2598" lon="1.20831">
        <ele>152</ele>
        <time>2020-07-11T18:43:27Z</time>
      </trkpt>
      <trkpt lat="47.25987" lon="1.21013">
        <ele>157</ele>
        <time>2020-07-11T18:43:49Z</time>
      </trkpt>
      <trkpt lat="47.25995" lon="1.21126">
        <ele>159</ele>
        <time>2020-07-11T18:44:03Z</time>
      </trkpt>
      <trkpt lat="47.25992" lon="1.21234">
        <ele>160</ele>
        <time>2020-07-11T18:44:16Z</time>
      </trkpt>
      <trkpt lat="47.25987" lon="1.213">
        <ele>161</ele>
        <time>2020-07-11T18:44:24Z</time>
      </trkpt>
      <trkpt lat="47.25986" lon="1.21329">
        <ele>162</ele>
        <time>2020-07-11T18:44:28Z</time>
      </trkpt>
      <trkpt lat="47.25993" lon="1.21397">
        <ele>164</ele>
        <time>2020-07-11T18:44:36Z</time>
      </trkpt>
      <trkpt lat="47.26017" lon="1.21501">
        <ele>164</ele>
        <time>2020-07-11T18:44:49Z</time>
      </trkpt>
      <trkpt lat="47.2603" lon="1.21652">
        <ele>163</ele>
        <time>2020-07-11T18:45:08Z</time>
      </trkpt>
      <trkpt lat="47.2606" lon="1.2191">
        <ele>165</ele>
        <time>2020-07-11T18:45:39Z</time>
      </trkpt>
      <trkpt lat="47.26069" lon="1.22005">
        <ele>166</ele>
        <time>2020-07-11T18:45:51Z</time>
      </trkpt>
      <trkpt lat="47.26085" lon="1.22133">
        <ele>167</ele>
        <time>2020-07-11T18:46:07Z</time>
      </trkpt>
      <trkpt lat="47.26118" lon="1.2234">
        <ele>169</ele>
        <time>2020-07-11T18:46:32Z</time>
      </trkpt>
      <trkpt lat="47.26125" lon="1.22409">
        <ele>169</ele>
        <time>2020-07-11T18:46:41Z</time>
      </trkpt>
      <trkpt lat="47.2613" lon="1.22482">
        <ele>169</ele>
        <time>2020-07-11T18:46:50Z</time>
      </trkpt>
      <trkpt lat="47.26134" lon="1.22568">
        <ele>169</ele>
        <time>2020-07-11T18:47:00Z</time>
      </trkpt>
      <trkpt lat="47.2617" lon="1.22586">
        <ele>168</ele>
        <time>2020-07-11T18:47:07Z</time>
      </trkpt>
      <trkpt lat="47.26242" lon="1.22624">
        <ele>169</ele>
        <time>2020-07-11T18:47:20Z</time>
      </trkpt>
      <trkpt lat="47.26296" lon="1.22642">
        <ele>170</ele>
        <time>2020-07-11T18:47:30Z</time>
      </trkpt>
      <trkpt lat="47.26383" lon="1.22677">
        <ele>169</ele>
        <time>2020-07-11T18:47:46Z</time>
      </trkpt>
      <trkpt lat="47.2652" lon="1.22738">
        <ele>163</ele>
        <time>2020-07-11T18:48:12Z</time>
      </trkpt>
      <trkpt lat="47.26593" lon="1.2277">
        <ele>163</ele>
        <time>2020-07-11T18:48:25Z</time>
      </trkpt>
      <trkpt lat="47.26741" lon="1.22831">
        <ele>164</ele>
        <time>2020-07-11T18:48:53Z</time>
      </trkpt>
      <trkpt lat="47.26831" lon="1.22872">
        <ele>165</ele>
        <time>2020-07-11T18:49:09Z</time>
      </trkpt>
      <trkpt lat="47.26854" lon="1.22884">
        <ele>165</ele>
        <time>2020-07-11T18:49:14Z</time>
      </trkpt>
      <trkpt lat="47.26888" lon="1.22917">
        <ele>166</ele>
        <time>2020-07-11T18:49:21Z</time>
      </trkpt>
      <trkpt lat="47.26916" lon="1.22972">
        <ele>166</ele>
        <time>2020-07-11T18:49:29Z</time>
      </trkpt>
      <trkpt lat="47.26962" lon="1.23075">
        <ele>167</ele>
        <time>2020-07-11T18:49:44Z</time>
      </trkpt>
      <trkpt lat="47.27069" lon="1.23304">
        <ele>170</ele>
        <time>2020-07-11T18:50:18Z</time>
      </trkpt>
      <trkpt lat="47.27108" lon="1.23389">
        <ele>171</ele>
        <time>2020-07-11T18:50:30Z</time>
      </trkpt>
      <trkpt lat="47.27119" lon="1.23412">
        <ele>172</ele>
        <time>2020-07-11T18:50:34Z</time>
      </trkpt>
      <trkpt lat="47.27213" lon="1.23616">
        <ele>175</ele>
        <time>2020-07-11T18:51:03Z</time>
      </trkpt>
      <trkpt lat="47.2724" lon="1.23664">
        <ele>175</ele>
        <time>2020-07-11T18:51:11Z</time>
      </trkpt>
      <trkpt lat="47.27243" lon="1.23669">
        <ele>175</ele>
        <time>2020-07-11T18:51:12Z</time>
      </trkpt>
      <trkpt lat="47.27315" lon="1.23785">
        <ele>175</ele>
        <time>2020-07-11T18:51:31Z</time>
      </trkpt>
      <trkpt lat="47.27379" lon="1.23884">
        <ele>175</ele>
        <time>2020-07-11T18:51:47Z</time>
      </trkpt>
      <trkpt lat="47.27485" lon="1.23839">
        <ele>173</ele>
        <time>2020-07-11T18:52:07Z</time>
      </trkpt>
      <trkpt lat="47.27712" lon="1.23746">
        <ele>171</ele>
        <time>2020-07-11T18:52:49Z</time>
      </trkpt>
      <trkpt lat="47.27819" lon="1.23703">
        <ele>172</ele>
        <time>2020-07-11T18:53:08Z</time>
      </trkpt>
      <trkpt lat="47.27857" lon="1.23691">
        <ele>172</ele>
        <time>2020-07-11T18:53:15Z</time>
      </trkpt>
      <trkpt lat="47.27875" lon="1.23683">
        <ele>172</ele>
        <time>2020-07-11T18:53:19Z</time>
      </trkpt>
      <trkpt lat="47.27911" lon="1.23669">
        <ele>171</ele>
        <time>2020-07-11T18:53:25Z</time>
      </trkpt>
      <trkpt lat="47.27948" lon="1.23651">
        <ele>170</ele>
        <time>2020-07-11T18:53:32Z</time>
      </trkpt>
      <trkpt lat="47.28114" lon="1.23586">
        <ele>169</ele>
        <time>2020-07-11T18:54:03Z</time>
      </trkpt>
      <trkpt lat="47.28129" lon="1.23579">
        <ele>168</ele>
        <time>2020-07-11T18:54:06Z</time>
      </trkpt>
      <trkpt lat="47.28163" lon="1.23565">
        <ele>166</ele>
        <time>2020-07-11T18:54:12Z</time>
      </trkpt>
      <trkpt lat="47.28194" lon="1.23541">
        <ele>165</ele>
        <time>2020-07-11T18:54:18Z</time>
      </trkpt>
      <trkpt lat="47.28212" lon="1.23525">
        <ele>165</ele>
        <time>2020-07-11T18:54:22Z</time>
      </trkpt>
      <trkpt lat="47.28242" lon="1.23492">
        <ele>165</ele>
        <time>2020-07-11T18:54:28Z</time>
      </trkpt>
      <trkpt lat="47.2826" lon="1.23469">
        <ele>165</ele>
        <time>2020-07-11T18:54:33Z</time>
      </trkpt>
      <trkpt lat="47.2827" lon="1.23453">
        <ele>164</ele>
        <time>2020-07-11T18:54:35Z</time>
      </trkpt>
      <trkpt lat="47.2829" lon="1.23421">
        <ele>165</ele>
        <time>2020-07-11T18:54:41Z</time>
      </trkpt>
      <trkpt lat="47.28306" lon="1.23401">
        <ele>165</ele>
        <time>2020-07-11T18:54:44Z</time>
      </trkpt>
      <trkpt lat="47.28338" lon="1.23375">
        <ele>166</ele>
        <time>2020-07-11T18:54:51Z</time>
      </trkpt>
      <trkpt lat="47.28376" lon="1.2335">
        <ele>167</ele>
        <time>2020-07-11T18:54:58Z</time>
      </trkpt>
      <trkpt lat="47.2841" lon="1.2333">
        <ele>168</ele>
        <time>2020-07-11T18:55:05Z</time>
      </trkpt>
      <trkpt lat="47.2843" lon="1.23321">
        <ele>168</ele>
        <time>2020-07-11T18:55:08Z</time>
      </trkpt>
      <trkpt lat="47.28476" lon="1.23306">
        <ele>168</ele>
        <time>2020-07-11T18:55:17Z</time>
      </trkpt>
      <trkpt lat="47.28493" lon="1.23298">
        <ele>168</ele>
        <time>2020-07-11T18:55:20Z</time>
      </trkpt>
      <trkpt lat="47.28661" lon="1.23172">
        <ele>171</ele>
        <time>2020-07-11T18:55:54Z</time>
      </trkpt>
      <trkpt lat="47.28764" lon="1.23093">
        <ele>169</ele>
        <time>2020-07-11T18:56:14Z</time>
      </trkpt>
      <trkpt lat="47.28821" lon="1.23048">
        <ele>169</ele>
        <time>2020-07-11T18:56:26Z</time>
      </trkpt>
      <trkpt lat="47.28848" lon="1.23031">
        <ele>168</ele>
        <time>2020-07-11T18:56:31Z</time>
      </trkpt>
      <trkpt lat="47.28901" lon="1.22988">
        <ele>167</ele>
        <time>2020-07-11T18:56:42Z</time>
      </trkpt>
      <trkpt lat="47.28961" lon="1.2293">
        <ele>167</ele>
        <time>2020-07-11T18:56:54Z</time>
      </trkpt>
      <trkpt lat="47.28998" lon="1.22901">
        <ele>166</ele>
        <time>2020-07-11T18:57:02Z</time>
      </trkpt>
      <trkpt lat="47.29024" lon="1.22889">
        <ele>166</ele>
        <time>2020-07-11T18:57:07Z</time>
      </trkpt>
      <trkpt lat="47.29049" lon="1.22882">
        <ele>167</ele>
        <time>2020-07-11T18:57:11Z</time>
      </trkpt>
      <trkpt lat="47.29083" lon="1.22879">
        <ele>167</ele>
        <time>2020-07-11T18:57:17Z</time>
      </trkpt>
      <trkpt lat="47.29148" lon="1.22877">
        <ele>167</ele>
        <time>2020-07-11T18:57:29Z</time>
      </trkpt>
      <trkpt lat="47.29162" lon="1.22877">
        <ele>167</ele>
        <time>2020-07-11T18:57:31Z</time>
      </trkpt>
      <trkpt lat="47.2917" lon="1.22876">
        <ele>167</ele>
        <time>2020-07-11T18:57:33Z</time>
      </trkpt>
      <trkpt lat="47.2917" lon="1.2287">
        <ele>168</ele>
        <time>2020-07-11T18:57:34Z</time>
      </trkpt>
      <trkpt lat="47.2917" lon="1.22862">
        <ele>168</ele>
        <time>2020-07-11T18:57:35Z</time>
      </trkpt>
      <trkpt lat="47.29174" lon="1.22842">
        <ele>168</ele>
        <time>2020-07-11T18:57:37Z</time>
      </trkpt>
      <trkpt lat="47.29201" lon="1.22761">
        <ele>167</ele>
        <time>2020-07-11T18:57:48Z</time>
      </trkpt>
      <trkpt lat="47.2922" lon="1.22707">
        <ele>166</ele>
        <time>2020-07-11T18:57:55Z</time>
      </trkpt>
      <trkpt lat="47.29239" lon="1.22662">
        <ele>166</ele>
        <time>2020-07-11T18:58:02Z</time>
      </trkpt>
      <trkpt lat="47.29337" lon="1.22467">
        <ele>163</ele>
        <time>2020-07-11T18:58:31Z</time>
      </trkpt>
      <trkpt lat="47.29364" lon="1.22419">
        <ele>161</ele>
        <time>2020-07-11T18:58:39Z</time>
      </trkpt>
      <trkpt lat="47.29389" lon="1.22385">
        <ele>160</ele>
        <time>2020-07-11T18:58:45Z</time>
      </trkpt>
      <trkpt lat="47.29427" lon="1.22355">
        <ele>160</ele>
        <time>2020-07-11T18:58:52Z</time>
      </trkpt>
      <trkpt lat="47.29562" lon="1.22196">
        <ele>157</ele>
        <time>2020-07-11T18:59:23Z</time>
      </trkpt>
      <trkpt lat="47.29621" lon="1.22118">
        <ele>154</ele>
        <time>2020-07-11T18:59:37Z</time>
      </trkpt>
      <trkpt lat="47.29648" lon="1.22089">
        <ele>153</ele>
        <time>2020-07-11T18:59:43Z</time>
      </trkpt>
      <trkpt lat="47.29672" lon="1.22055">
        <ele>152</ele>
        <time>2020-07-11T18:59:49Z</time>
      </trkpt>
      <trkpt lat="47.2971" lon="1.21994">
        <ele>150</ele>
        <time>2020-07-11T18:59:59Z</time>
      </trkpt>
      <trkpt lat="47.29744" lon="1.2196">
        <ele>150</ele>
        <time>2020-07-11T19:00:06Z</time>
      </trkpt>
      <trkpt lat="47.29793" lon="1.21921">
        <ele>148</ele>
        <time>2020-07-11T19:00:16Z</time>
      </trkpt>
      <trkpt lat="47.29807" lon="1.21899">
        <ele>147</ele>
        <time>2020-07-11T19:00:20Z</time>
      </trkpt>
      <trkpt lat="47.29913" lon="1.21819">
        <ele>142</ele>
        <time>2020-07-11T19:00:41Z</time>
      </trkpt>
      <trkpt lat="47.29938" lon="1.21791">
        <ele>142</ele>
        <time>2020-07-11T19:00:47Z</time>
      </trkpt>
      <trkpt lat="47.29999" lon="1.21724">
        <ele>140</ele>
        <time>2020-07-11T19:01:00Z</time>
      </trkpt>
      <trkpt lat="47.30121" lon="1.21622">
        <ele>137</ele>
        <time>2020-07-11T19:01:25Z</time>
      </trkpt>
      <trkpt lat="47.30239" lon="1.21543">
        <ele>132</ele>
        <time>2020-07-11T19:01:48Z</time>
      </trkpt>
      <trkpt lat="47.30253" lon="1.21535">
        <ele>131</ele>
        <time>2020-07-11T19:01:51Z</time>
      </trkpt>
      <trkpt lat="47.30283" lon="1.21515">
        <ele>131</ele>
        <time>2020-07-11T19:01:57Z</time>
      </trkpt>
      <trkpt lat="47.3032" lon="1.21494">
        <ele>131</ele>
        <time>2020-07-11T19:02:04Z</time>
      </trkpt>
      <trkpt lat="47.30364" lon="1.21461">
        <ele>130</ele>
        <time>2020-07-11T19:02:12Z</time>
      </trkpt>
      <trkpt lat="47.3038" lon="1.21449">
        <ele>130</ele>
        <time>2020-07-11T19:02:16Z</time>
      </trkpt>
      <trkpt lat="47.30397" lon="1.21438">
        <ele>130</ele>
        <time>2020-07-11T19:02:19Z</time>
      </trkpt>
      <trkpt lat="47.30457" lon="1.21407">
        <ele>129</ele>
        <time>2020-07-11T19:02:30Z</time>
      </trkpt>
      <trkpt lat="47.30622" lon="1.21338">
        <ele>127</ele>
        <time>2020-07-11T19:03:01Z</time>
      </trkpt>
      <trkpt lat="47.30691" lon="1.21305">
        <ele>125</ele>
        <time>2020-07-11T19:03:14Z</time>
      </trkpt>
      <trkpt lat="47.30814" lon="1.21235">
        <ele>125</ele>
        <time>2020-07-11T19:03:37Z</time>
      </trkpt>
      <trkpt lat="47.30857" lon="1.21212">
        <ele>124</ele>
        <time>2020-07-11T19:03:45Z</time>
      </trkpt>
      <trkpt lat="47.30902" lon="1.21186">
        <ele>122</ele>
        <time>2020-07-11T19:03:54Z</time>
      </trkpt>
      <trkpt lat="47.30945" lon="1.21156">
        <ele>121</ele>
        <time>2020-07-11T19:04:02Z</time>
      </trkpt>
      <trkpt lat="47.30984" lon="1.21114">
        <ele>122</ele>
        <time>2020-07-11T19:04:11Z</time>
      </trkpt>
      <trkpt lat="47.31007" lon="1.21081">
        <ele>122</ele>
        <time>2020-07-11T19:04:17Z</time>
      </trkpt>
      <trkpt lat="47.31033" lon="1.21035">
        <ele>121</ele>
        <time>2020-07-11T19:04:24Z</time>
      </trkpt>
      <trkpt lat="47.31042" lon="1.21018">
        <ele>120</ele>
        <time>2020-07-11T19:04:26Z</time>
      </trkpt>
      <trkpt lat="47.31077" lon="1.20958">
        <ele>119</ele>
        <time>2020-07-11T19:04:36Z</time>
      </trkpt>
      <trkpt lat="47.31147" lon="1.20871">
        <ele>119</ele>
        <time>2020-07-11T19:04:52Z</time>
      </trkpt>
      <trkpt lat="47.31228" lon="1.20784">
        <ele>117</ele>
        <time>2020-07-11T19:05:10Z</time>
      </trkpt>
      <trkpt lat="47.31291" lon="1.2071">
        <ele>116</ele>
        <time>2020-07-11T19:05:24Z</time>
      </trkpt>
      <trkpt lat="47.31324" lon="1.20667">
        <ele>116</ele>
        <time>2020-07-11T19:05:32Z</time>
      </trkpt>
      <trkpt lat="47.31405" lon="1.20518">
        <ele>116</ele>
        <time>2020-07-11T19:05:55Z</time>
      </trkpt>
      <trkpt lat="47.31452" lon="1.20423">
        <ele>117</ele>
        <time>2020-07-11T19:06:10Z</time>
      </trkpt>
      <trkpt lat="47.31468" lon="1.20392">
        <ele>117</ele>
        <time>2020-07-11T19:06:14Z</time>
      </trkpt>
      <trkpt lat="47.31477" lon="1.20373">
        <ele>117</ele>
        <time>2020-07-11T19:06:17Z</time>
      </trkpt>
      <trkpt lat="47.31511" lon="1.20316">
        <ele>117</ele>
        <time>2020-07-11T19:06:26Z</time>
      </trkpt>
      <trkpt lat="47.31527" lon="1.203">
        <ele>117</ele>
        <time>2020-07-11T19:06:30Z</time>
      </trkpt>
      <trkpt lat="47.31547" lon="1.2029">
        <ele>117</ele>
        <time>2020-07-11T19:06:33Z</time>
      </trkpt>
      <trkpt lat="47.31612" lon="1.20272">
        <ele>116</ele>
        <time>2020-07-11T19:06:45Z</time>
      </trkpt>
      <trkpt lat="47.31677" lon="1.20267">
        <ele>116</ele>
        <time>2020-07-11T19:06:57Z</time>
      </trkpt>
      <trkpt lat="47.3174" lon="1.20272">
        <ele>115</ele>
        <time>2020-07-11T19:07:08Z</time>
      </trkpt>
      <trkpt lat="47.31791" lon="1.20262">
        <ele>114</ele>
        <time>2020-07-11T19:07:17Z</time>
      </trkpt>
      <trkpt lat="47.31835" lon="1.20252">
        <ele>112</ele>
        <time>2020-07-11T19:07:25Z</time>
      </trkpt>
      <trkpt lat="47.31888" lon="1.20241">
        <ele>112</ele>
        <time>2020-07-11T19:07:35Z</time>
      </trkpt>
      <trkpt lat="47.31913" lon="1.20167">
        <ele>115</ele>
        <time>2020-07-11T19:07:45Z</time>
      </trkpt>
      <trkpt lat="47.31974" lon="1.20033">
        <ele>116</ele>
        <time>2020-07-11T19:08:04Z</time>
      </trkpt>
      <trkpt lat="47.32017" lon="1.19878">
        <ele>117</ele>
        <time>2020-07-11T19:08:24Z</time>
      </trkpt>
      <trkpt lat="47.32049" lon="1.19739">
        <ele>115</ele>
        <time>2020-07-11T19:08:42Z</time>
      </trkpt>
      <trkpt lat="47.32064" lon="1.19657">
        <ele>114</ele>
        <time>2020-07-11T19:08:52Z</time>
      </trkpt>
      <trkpt lat="47.3208" lon="1.19582">
        <ele>115</ele>
        <time>2020-07-11T19:09:02Z</time>
      </trkpt>
      <trkpt lat="47.32093" lon="1.19545">
        <ele>115</ele>
        <time>2020-07-11T19:09:07Z</time>
      </trkpt>
      <trkpt lat="47.32162" lon="1.19399">
        <ele>115</ele>
        <time>2020-07-11T19:09:28Z</time>
      </trkpt>
      <trkpt lat="47.32216" lon="1.19229">
        <ele>114</ele>
        <time>2020-07-11T19:09:51Z</time>
      </trkpt>
      <trkpt lat="47.32221" lon="1.192">
        <ele>114</ele>
        <time>2020-07-11T19:09:54Z</time>
      </trkpt>
      <trkpt lat="47.32221" lon="1.19173">
        <ele>114</ele>
        <time>2020-07-11T19:09:58Z</time>
      </trkpt>
      <trkpt lat="47.3223" lon="1.19174">
        <ele>114</ele>
        <time>2020-07-11T19:09:59Z</time>
      </trkpt>
      <trkpt lat="47.32362" lon="1.19248">
        <ele>113</ele>
        <time>2020-07-11T19:10:24Z</time>
      </trkpt>
      <trkpt lat="47.32443" lon="1.19274">
        <ele>111</ele>
        <time>2020-07-11T19:10:39Z</time>
      </trkpt>
      <trkpt lat="47.32457" lon="1.19276">
        <ele>110</ele>
        <time>2020-07-11T19:10:42Z</time>
      </trkpt>
      <trkpt lat="47.32477" lon="1.19276">
        <ele>109</ele>
        <time>2020-07-11T19:10:45Z</time>
      </trkpt>
      <trkpt lat="47.32505" lon="1.1927">
        <ele>107</ele>
        <time>2020-07-11T19:10:50Z</time>
      </trkpt>
      <trkpt lat="47.32534" lon="1.19249">
        <ele>105</ele>
        <time>2020-07-11T19:10:56Z</time>
      </trkpt>
      <trkpt lat="47.32589" lon="1.19197">
        <ele>99</ele>
        <time>2020-07-11T19:11:08Z</time>
      </trkpt>
      <trkpt lat="47.32606" lon="1.19177">
        <ele>98</ele>
        <time>2020-07-11T19:11:11Z</time>
      </trkpt>
      <trkpt lat="47.32659" lon="1.19103">
        <ele>93</ele>
        <time>2020-07-11T19:11:24Z</time>
      </trkpt>
      <trkpt lat="47.32673" lon="1.19087">
        <ele>93</ele>
        <time>2020-07-11T19:11:28Z</time>
      </trkpt>
      <trkpt lat="47.3271" lon="1.19055">
        <ele>93</ele>
        <time>2020-07-11T19:11:35Z</time>
      </trkpt>
      <trkpt lat="47.32864" lon="1.18938">
        <ele>88</ele>
        <time>2020-07-11T19:12:06Z</time>
      </trkpt>
      <trkpt lat="47.33062" lon="1.18695">
        <ele>79</ele>
        <time>2020-07-11T19:12:52Z</time>
      </trkpt>
      <trkpt lat="47.33082" lon="1.18669">
        <ele>78</ele>
        <time>2020-07-11T19:12:57Z</time>
      </trkpt>
      <trkpt lat="47.33094" lon="1.1858">
        <ele>77</ele>
        <time>2020-07-11T19:13:08Z</time>
      </trkpt>
      <trkpt lat="47.33115" lon="1.18596">
        <ele>76</ele>
        <time>2020-07-11T19:13:12Z</time>
      </trkpt>
      <trkpt lat="47.33131" lon="1.1861">
        <ele>75</ele>
        <time>2020-07-11T19:13:15Z</time>
      </trkpt>
      <trkpt lat="47.33162" lon="1.18643">
        <ele>74</ele>
        <time>2020-07-11T19:13:22Z</time>
      </trkpt>
      <trkpt lat="47.3319" lon="1.18687">
        <ele>71</ele>
        <time>2020-07-11T19:13:29Z</time>
      </trkpt>
      <trkpt lat="47.33206" lon="1.18703">
        <ele>69</ele>
        <time>2020-07-11T19:13:33Z</time>
      </trkpt>
      <trkpt lat="47.33218" lon="1.18709">
        <ele>68</ele>
        <time>2020-07-11T19:13:35Z</time>
      </trkpt>
      <trkpt lat="47.33238" lon="1.18715">
        <ele>66</ele>
        <time>2020-07-11T19:13:38Z</time>
      </trkpt>
      <trkpt lat="47.33252" lon="1.18716">
        <ele>64</ele>
        <time>2020-07-11T19:13:41Z</time>
      </trkpt>
      <trkpt lat="47.33328" lon="1.18723">
        <ele>62</ele>
        <time>2020-07-11T19:13:55Z</time>
      </trkpt>
      <trkpt lat="47.33334" lon="1.18724">
        <ele>61</ele>
        <time>2020-07-11T19:13:56Z</time>
      </trkpt>
      <trkpt lat="47.33349" lon="1.18723">
        <ele>61</ele>
        <time>2020-07-11T19:13:58Z</time>
      </trkpt>
      <trkpt lat="47.33354" lon="1.18724">
        <ele>61</ele>
        <time>2020-07-11T19:13:59Z</time>
      </trkpt>
      <trkpt lat="47.33358" lon="1.18729">
        <ele>61</ele>
        <time>2020-07-11T19:14:00Z</time>
      </trkpt>
      <trkpt lat="47.33363" lon="1.18732">
        <ele>61</ele>
        <time>2020-07-11T19:14:01Z</time>
      </trkpt>
      <trkpt lat="47.33368" lon="1.18732">
        <ele>61</ele>
        <time>2020-07-11T19:14:02Z</time>
      </trkpt>
      <trkpt lat="47.33371" lon="1.18732">
        <ele>61</ele>
        <time>2020-07-11T19:14:02Z</time>
      </trkpt>
      <trkpt lat="47.33375" lon="1.1873">
        <ele>61</ele>
        <time>2020-07-11T19:14:03Z</time>
      </trkpt>
      <trkpt lat="47.33379" lon="1.18726">
        <ele>61</ele>
        <time>2020-07-11T19:14:04Z</time>
      </trkpt>
      <trkpt lat="47.33382" lon="1.18721">
        <ele>61</ele>
        <time>2020-07-11T19:14:05Z</time>
      </trkpt>
      <trkpt lat="47.33384" lon="1.18715">
        <ele>61</ele>
        <time>2020-07-11T19:14:06Z</time>
      </trkpt>
      <trkpt lat="47.33385" lon="1.18708">
        <ele>61</ele>
        <time>2020-07-11T19:14:07Z</time>
      </trkpt>
      <trkpt lat="47.33385" lon="1.18701">
        <ele>60</ele>
        <time>2020-07-11T19:14:07Z</time>
      </trkpt>
      <trkpt lat="47.33387" lon="1.18693">
        <ele>60</ele>
        <time>2020-07-11T19:14:08Z</time>
      </trkpt>
      <trkpt lat="47.33392" lon="1.18682">
        <ele>60</ele>
        <time>2020-07-11T19:14:10Z</time>
      </trkpt>
      <trkpt lat="47.334" lon="1.18676">
        <ele>60</ele>
        <time>2020-07-11T19:14:12Z</time>
      </trkpt>
      <trkpt lat="47.33405" lon="1.18674">
        <ele>59</ele>
        <time>2020-07-11T19:14:13Z</time>
      </trkpt>
      <trkpt lat="47.3355" lon="1.18692">
        <ele>62</ele>
        <time>2020-07-11T19:14:38Z</time>
      </trkpt>
      <trkpt lat="47.33594" lon="1.18697">
        <ele>62</ele>
        <time>2020-07-11T19:14:46Z</time>
      </trkpt>
      <trkpt lat="47.33689" lon="1.18709">
        <ele>60</ele>
        <time>2020-07-11T19:15:03Z</time>
      </trkpt>
      <trkpt lat="47.33782" lon="1.1872">
        <ele>60</ele>
        <time>2020-07-11T19:15:20Z</time>
      </trkpt>
      <trkpt lat="47.33825" lon="1.18726">
        <ele>61</ele>
        <time>2020-07-11T19:15:28Z</time>
      </trkpt>
      <trkpt lat="47.33834" lon="1.18732">
        <ele>62</ele>
        <time>2020-07-11T19:15:29Z</time>
      </trkpt>
      <trkpt lat="47.33838" lon="1.18739">
        <ele>62</ele>
        <time>2020-07-11T19:15:30Z</time>
      </trkpt>
      <trkpt lat="47.33844" lon="1.18759">
        <ele>62</ele>
        <time>2020-07-11T19:15:33Z</time>
      </trkpt>
      <trkpt lat="47.3384" lon="1.18776">
        <ele>62</ele>
        <time>2020-07-11T19:15:35Z</time>
      </trkpt>
      <trkpt lat="47.33842" lon="1.18791">
        <ele>62</ele>
        <time>2020-07-11T19:15:37Z</time>
      </trkpt>
      <trkpt lat="47.33848" lon="1.18803">
        <ele>61</ele>
        <time>2020-07-11T19:15:39Z</time>
      </trkpt>
      <trkpt lat="47.33853" lon="1.18807">
        <ele>61</ele>
        <time>2020-07-11T19:15:40Z</time>
      </trkpt>
      <trkpt lat="47.33864" lon="1.18807">
        <ele>61</ele>
        <time>2020-07-11T19:15:42Z</time>
      </trkpt>
      <trkpt lat="47.33869" lon="1.18804">
        <ele>61</ele>
        <time>2020-07-11T19:15:43Z</time>
      </trkpt>
      <trkpt lat="47.33891" lon="1.18799">
        <ele>60</ele>
        <time>2020-07-11T19:15:47Z</time>
      </trkpt>
      <trkpt lat="47.33897" lon="1.18795">
        <ele>60</ele>
        <time>2020-07-11T19:15:48Z</time>
      </trkpt>
      <trkpt lat="47.33955" lon="1.18777">
        <ele>61</ele>
        <time>2020-07-11T19:15:58Z</time>
      </trkpt>
      <trkpt lat="47.33992" lon="1.18763">
        <ele>63</ele>
        <time>2020-07-11T19:16:05Z</time>
      </trkpt>
      <trkpt lat="47.34105" lon="1.18694">
        <ele>61</ele>
        <time>2020-07-11T19:16:27Z</time>
      </trkpt>
      <trkpt lat="47.34124" lon="1.18687">
        <ele>60</ele>
        <time>2020-07-11T19:16:31Z</time>
      </trkpt>
      <trkpt lat="47.34215" lon="1.18669">
        <ele>62</ele>
        <time>2020-07-11T19:16:47Z</time>
      </trkpt>
      <trkpt lat="47.34222" lon="1.18668">
        <ele>62</ele>
        <time>2020-07-11T19:16:48Z</time>
      </trkpt>
      <trkpt lat="47.34266" lon="1.18657">
        <ele>67</ele>
        <time>2020-07-11T19:16:56Z</time>
      </trkpt>
      <trkpt lat="47.34297" lon="1.18642">
        <ele>72</ele>
        <time>2020-07-11T19:17:02Z</time>
      </trkpt>
      <trkpt lat="47.34295" lon="1.18617">
        <ele>72</ele>
        <time>2020-07-11T19:17:05Z</time>
      </trkpt>
      <trkpt lat="47.34296" lon="1.18442">
        <ele>68</ele>
        <time>2020-07-11T19:17:26Z</time>
      </trkpt>
      <trkpt lat="47.34294" lon="1.18415">
        <ele>68</ele>
        <time>2020-07-11T19:17:29Z</time>
      </trkpt>
      <trkpt lat="47.34286" lon="1.18355">
        <ele>67</ele>
        <time>2020-07-11T19:17:37Z</time>
      </trkpt>
      <trkpt lat="47.3428" lon="1.18264">
        <ele>66</ele>
        <time>2020-07-11T19:17:48Z</time>
      </trkpt>
      <trkpt lat="47.34277" lon="1.18245">
        <ele>65</ele>
        <time>2020-07-11T19:17:50Z</time>
      </trkpt>
      <trkpt lat="47.34236" lon="1.18084">
        <ele>63</ele>
        <time>2020-07-11T19:18:11Z</time>
      </trkpt>
      <trkpt lat="47.3423" lon="1.18052">
        <ele>64</ele>
        <time>2020-07-11T19:18:15Z</time>
      </trkpt>
      <trkpt lat="47.34226" lon="1.1802">
        <ele>64</ele>
        <time>2020-07-11T19:18:19Z</time>
      </trkpt>
      <trkpt lat="47.34225" lon="1.1798">
        <ele>64</ele>
        <time>2020-07-11T19:18:23Z</time>
      </trkpt>
      <trkpt lat="47.3423" lon="1.17494">
        <ele>67</ele>
        <time>2020-07-11T19:19:22Z</time>
      </trkpt>
      <trkpt lat="47.34264" lon="1.17482">
        <ele>66</ele>
        <time>2020-07-11T19:19:28Z</time>
      </trkpt>
      <trkpt lat="47.34329" lon="1.17468">
        <ele>68</ele>
        <time>2020-07-11T19:19:40Z</time>
      </trkpt>
      <trkpt lat="47.34337" lon="1.17464">
        <ele>68</ele>
        <time>2020-07-11T19:19:42Z</time>
      </trkpt>
      <trkpt lat="47.34346" lon="1.17454">
        <ele>68</ele>
        <time>2020-07-11T19:19:44Z</time>
      </trkpt>
      <trkpt lat="47.34415" lon="1.17354">
        <ele>69</ele>
        <time>2020-07-11T19:20:01Z</time>
      </trkpt>
      <trkpt lat="47.34429" lon="1.17337">
        <ele>70</ele>
        <time>2020-07-11T19:20:04Z</time>
      </trkpt>
      <trkpt lat="47.3443" lon="1.17315">
        <ele>70</ele>
        <time>2020-07-11T19:20:07Z</time>
      </trkpt>
      <trkpt lat="47.34394" lon="1.17127">
        <ele>72</ele>
        <time>2020-07-11T19:20:30Z</time>
      </trkpt>
      <trkpt lat="47.34394" lon="1.17109">
        <ele>73</ele>
        <time>2020-07-11T19:20:32Z</time>
      </trkpt>
      <trkpt lat="47.34402" lon="1.17083">
        <ele>74</ele>
        <time>2020-07-11T19:20:36Z</time>
      </trkpt>
      <trkpt lat="47.34434" lon="1.17006">
        <ele>79</ele>
        <time>2020-07-11T19:20:47Z</time>
      </trkpt>
      <trkpt lat="47.34444" lon="1.16977">
        <ele>81</ele>
        <time>2020-07-11T19:20:51Z</time>
      </trkpt>
      <trkpt lat="47.34457" lon="1.16925">
        <ele>84</ele>
        <time>2020-07-11T19:20:57Z</time>
      </trkpt>
      <trkpt lat="47.34462" lon="1.16898">
        <ele>85</ele>
        <time>2020-07-11T19:21:01Z</time>
      </trkpt>
      <trkpt lat="47.34474" lon="1.169">
        <ele>86</ele>
        <time>2020-07-11T19:21:03Z</time>
      </trkpt>
      <trkpt lat="47.34485" lon="1.16895">
        <ele>87</ele>
        <time>2020-07-11T19:21:05Z</time>
      </trkpt>
      <trkpt lat="47.34497" lon="1.16885">
        <ele>89</ele>
        <time>2020-07-11T19:21:07Z</time>
      </trkpt>
      <trkpt lat="47.34532" lon="1.16829">
        <ele>96</ele>
        <time>2020-07-11T19:21:16Z</time>
      </trkpt>
      <trkpt lat="47.34586" lon="1.16732">
        <ele>110</ele>
        <time>2020-07-11T19:21:32Z</time>
      </trkpt>
      <trkpt lat="47.34629" lon="1.16645">
        <ele>115</ele>
        <time>2020-07-11T19:21:45Z</time>
      </trkpt>
      <trkpt lat="47.34654" lon="1.16589">
        <ele>117</ele>
        <time>2020-07-11T19:21:53Z</time>
      </trkpt>
      <trkpt lat="47.34708" lon="1.1649">
        <ele>116</ele>
        <time>2020-07-11T19:22:08Z</time>
      </trkpt>
      <trkpt lat="47.34734" lon="1.16436">
        <ele>116</ele>
        <time>2020-07-11T19:22:16Z</time>
      </trkpt>
      <trkpt lat="47.34761" lon="1.16326">
        <ele>117</ele>
        <time>2020-07-11T19:22:30Z</time>
      </trkpt>
      <trkpt lat="47.34767" lon="1.1629">
        <ele>118</ele>
        <time>2020-07-11T19:22:35Z</time>
      </trkpt>
      <trkpt lat="47.34767" lon="1.16259">
        <ele>119</ele>
        <time>2020-07-11T19:22:38Z</time>
      </trkpt>
      <trkpt lat="47.34765" lon="1.16249">
        <ele>119</ele>
        <time>2020-07-11T19:22:40Z</time>
      </trkpt>
      <trkpt lat="47.34779" lon="1.16226">
        <ele>119</ele>
        <time>2020-07-11T19:22:43Z</time>
      </trkpt>
      <trkpt lat="47.34794" lon="1.16195">
        <ele>120</ele>
        <time>2020-07-11T19:22:48Z</time>
      </trkpt>
      <trkpt lat="47.34805" lon="1.16159">
        <ele>121</ele>
        <time>2020-07-11T19:22:53Z</time>
      </trkpt>
      <trkpt lat="47.34813" lon="1.16126">
        <ele>122</ele>
        <time>2020-07-11T19:22:57Z</time>
      </trkpt>
      <trkpt lat="47.34882" lon="1.15849">
        <ele>126</ele>
        <time>2020-07-11T19:23:32Z</time>
      </trkpt>
      <trkpt lat="47.34911" lon="1.15755">
        <ele>132</ele>
        <time>2020-07-11T19:23:45Z</time>
      </trkpt>
      <trkpt lat="47.34934" lon="1.15674">
        <ele>133</ele>
        <time>2020-07-11T19:23:55Z</time>
      </trkpt>
      <trkpt lat="47.34944" lon="1.15634">
        <ele>133</ele>
        <time>2020-07-11T19:24:01Z</time>
      </trkpt>
      <trkpt lat="47.34954" lon="1.15586">
        <ele>133</ele>
        <time>2020-07-11T19:24:07Z</time>
      </trkpt>
      <trkpt lat="47.34975" lon="1.15487">
        <ele>134</ele>
        <time>2020-07-11T19:24:19Z</time>
      </trkpt>
      <trkpt lat="47.35001" lon="1.1539">
        <ele>133</ele>
        <time>2020-07-11T19:24:32Z</time>
      </trkpt>
      <trkpt lat="47.35008" lon="1.15368">
        <ele>132</ele>
        <time>2020-07-11T19:24:35Z</time>
      </trkpt>
      <trkpt lat="47.35025" lon="1.15324">
        <ele>131</ele>
        <time>2020-07-11T19:24:41Z</time>
      </trkpt>
      <trkpt lat="47.35036" lon="1.15294">
        <ele>132</ele>
        <time>2020-07-11T19:24:45Z</time>
      </trkpt>
      <trkpt lat="47.3506" lon="1.15232">
        <ele>133</ele>
        <time>2020-07-11T19:24:54Z</time>
      </trkpt>
      <trkpt lat="47.35103" lon="1.15118">
        <ele>133</ele>
        <time>2020-07-11T19:25:09Z</time>
      </trkpt>
      <trkpt lat="47.35113" lon="1.15093">
        <ele>133</ele>
        <time>2020-07-11T19:25:13Z</time>
      </trkpt>
      <trkpt lat="47.35229" lon="1.14824">
        <ele>132</ele>
        <time>2020-07-11T19:25:51Z</time>
      </trkpt>
      <trkpt lat="47.35253" lon="1.14778">
        <ele>132</ele>
        <time>2020-07-11T19:25:58Z</time>
      </trkpt>
      <trkpt lat="47.35318" lon="1.14668">
        <ele>132</ele>
        <time>2020-07-11T19:26:16Z</time>
      </trkpt>
      <trkpt lat="47.35327" lon="1.14655">
        <ele>132</ele>
        <time>2020-07-11T19:26:18Z</time>
      </trkpt>
      <trkpt lat="47.35355" lon="1.14605">
        <ele>130</ele>
        <time>2020-07-11T19:26:26Z</time>
      </trkpt>
      <trkpt lat="47.35373" lon="1.14567">
        <ele>130</ele>
        <time>2020-07-11T19:26:31Z</time>
      </trkpt>
      <trkpt lat="47.35395" lon="1.14517">
        <ele>131</ele>
        <time>2020-07-11T19:26:39Z</time>
      </trkpt>
      <trkpt lat="47.35569" lon="1.14094">
        <ele>135</ele>
        <time>2020-07-11T19:27:38Z</time>
      </trkpt>
      <trkpt lat="47.356" lon="1.14013">
        <ele>135</ele>
        <time>2020-07-11T19:27:49Z</time>
      </trkpt>
      <trkpt lat="47.35625" lon="1.13946">
        <ele>134</ele>
        <time>2020-07-11T19:27:59Z</time>
      </trkpt>
      <trkpt lat="47.35753" lon="1.13647">
        <ele>133</ele>
        <time>2020-07-11T19:28:41Z</time>
      </trkpt>
      <trkpt lat="47.35788" lon="1.13567">
        <ele>134</ele>
        <time>2020-07-11T19:28:53Z</time>
      </trkpt>
      <trkpt lat="47.35919" lon="1.13301">
        <ele>133</ele>
        <time>2020-07-11T19:29:32Z</time>
      </trkpt>
      <trkpt lat="47.35943" lon="1.13258">
        <ele>133</ele>
        <time>2020-07-11T19:29:39Z</time>
      </trkpt>
      <trkpt lat="47.35968" lon="1.13219">
        <ele>132</ele>
        <time>2020-07-11T19:29:46Z</time>
      </trkpt>
      <trkpt lat="47.36009" lon="1.13161">
        <ele>131</ele>
        <time>2020-07-11T19:29:56Z</time>
      </trkpt>
      <trkpt lat="47.36065" lon="1.13088">
        <ele>130</ele>
        <time>2020-07-11T19:30:09Z</time>
      </trkpt>
      <trkpt lat="47.36252" lon="1.12842">
        <ele>132</ele>
        <time>2020-07-11T19:30:54Z</time>
      </trkpt>
      <trkpt lat="47.36282" lon="1.12807">
        <ele>132</ele>
        <time>2020-07-11T19:31:00Z</time>
      </trkpt>
      <trkpt lat="47.36314" lon="1.12772">
        <ele>133</ele>
        <time>2020-07-11T19:31:07Z</time>
      </trkpt>
      <trkpt lat="47.36393" lon="1.12696">
        <ele>134</ele>
        <time>2020-07-11T19:31:24Z</time>
      </trkpt>
      <trkpt lat="47.3646" lon="1.12608">
        <ele>136</ele>
        <time>2020-07-11T19:31:40Z</time>
      </trkpt>
      <trkpt lat="47.36534" lon="1.12511">
        <ele>136</ele>
        <time>2020-07-11T19:31:58Z</time>
      </trkpt>
      <trkpt lat="47.36578" lon="1.12443">
        <ele>137</ele>
        <time>2020-07-11T19:32:09Z</time>
      </trkpt>
      <trkpt lat="47.36637" lon="1.12346">
        <ele>137</ele>
        <time>2020-07-11T19:32:25Z</time>
      </trkpt>
      <trkpt lat="47.36668" lon="1.12302">
        <ele>137</ele>
        <time>2020-07-11T19:32:33Z</time>
      </trkpt>
      <trkpt lat="47.36696" lon="1.12268">
        <ele>137</ele>
        <time>2020-07-11T19:32:39Z</time>
      </trkpt>
      <trkpt lat="47.36801" lon="1.12151">
        <ele>136</ele>
        <time>2020-07-11T19:33:02Z</time>
      </trkpt>
      <trkpt lat="47.36814" lon="1.12136">
        <ele>135</ele>
        <time>2020-07-11T19:33:05Z</time>
      </trkpt>
      <trkpt lat="47.36838" lon="1.12105">
        <ele>134</ele>
        <time>2020-07-11T19:33:11Z</time>
      </trkpt>
      <trkpt lat="47.36864" lon="1.12067">
        <ele>134</ele>
        <time>2020-07-11T19:33:17Z</time>
      </trkpt>
      <trkpt lat="47.36892" lon="1.1202">
        <ele>133</ele>
        <time>2020-07-11T19:33:25Z</time>
      </trkpt>
      <trkpt lat="47.37043" lon="1.11754">
        <ele>144</ele>
        <time>2020-07-11T19:34:07Z</time>
      </trkpt>
      <trkpt lat="47.37087" lon="1.11663">
        <ele>143</ele>
        <time>2020-07-11T19:34:20Z</time>
      </trkpt>
      <trkpt lat="47.37116" lon="1.11578">
        <ele>140</ele>
        <time>2020-07-11T19:34:32Z</time>
      </trkpt>
      <trkpt lat="47.37129" lon="1.1153">
        <ele>140</ele>
        <time>2020-07-11T19:34:38Z</time>
      </trkpt>
      <trkpt lat="47.37141" lon="1.11477">
        <ele>141</ele>
        <time>2020-07-11T19:34:45Z</time>
      </trkpt>
      <trkpt lat="47.37171" lon="1.11301">
        <ele>142</ele>
        <time>2020-07-11T19:35:07Z</time>
      </trkpt>
      <trkpt lat="47.3721" lon="1.11087">
        <ele>144</ele>
        <time>2020-07-11T19:35:33Z</time>
      </trkpt>
      <trkpt lat="47.37286" lon="1.10756">
        <ele>142</ele>
        <time>2020-07-11T19:36:15Z</time>
      </trkpt>
      <trkpt lat="47.37311" lon="1.10651">
        <ele>142</ele>
        <time>2020-07-11T19:36:29Z</time>
      </trkpt>
      <trkpt lat="47.37533" lon="1.09723">
        <ele>139</ele>
        <time>2020-07-11T19:38:27Z</time>
      </trkpt>
      <trkpt lat="47.37589" lon="1.09507">
        <ele>141</ele>
        <time>2020-07-11T19:38:55Z</time>
      </trkpt>
      <trkpt lat="47.37676" lon="1.09191">
        <ele>139</ele>
        <time>2020-07-11T19:39:36Z</time>
      </trkpt>
      <trkpt lat="47.37822" lon="1.08667">
        <ele>131</ele>
        <time>2020-07-11T19:40:45Z</time>
      </trkpt>
      <trkpt lat="47.37884" lon="1.08447">
        <ele>129</ele>
        <time>2020-07-11T19:41:13Z</time>
      </trkpt>
      <trkpt lat="47.37932" lon="1.08275">
        <ele>123</ele>
        <time>2020-07-11T19:41:36Z</time>
      </trkpt>
      <trkpt lat="47.37941" lon="1.08224">
        <ele>122</ele>
        <time>2020-07-11T19:41:42Z</time>
      </trkpt>
      <trkpt lat="47.37947" lon="1.08178">
        <ele>123</ele>
        <time>2020-07-11T19:41:48Z</time>
      </trkpt>
      <trkpt lat="47.37949" lon="1.08107">
        <ele>124</ele>
        <time>2020-07-11T19:41:56Z</time>
      </trkpt>
      <trkpt lat="47.37941" lon="1.0795">
        <ele>129</ele>
        <time>2020-07-11T19:42:15Z</time>
      </trkpt>
      <trkpt lat="47.37939" lon="1.07881">
        <ele>130</ele>
        <time>2020-07-11T19:42:24Z</time>
      </trkpt>
      <trkpt lat="47.37941" lon="1.07832">
        <ele>131</ele>
        <time>2020-07-11T19:42:30Z</time>
      </trkpt>
      <trkpt lat="47.37946" lon="1.07779">
        <ele>131</ele>
        <time>2020-07-11T19:42:36Z</time>
      </trkpt>
      <trkpt lat="47.37977" lon="1.07579">
        <ele>132</ele>
        <time>2020-07-11T19:43:01Z</time>
      </trkpt>
      <trkpt lat="47.37989" lon="1.07515">
        <ele>131</ele>
        <time>2020-07-11T19:43:09Z</time>
      </trkpt>
      <trkpt lat="47.38003" lon="1.07456">
        <ele>130</ele>
        <time>2020-07-11T19:43:16Z</time>
      </trkpt>
      <trkpt lat="47.38091" lon="1.07165">
        <ele>128</ele>
        <time>2020-07-11T19:43:55Z</time>
      </trkpt>
      <trkpt lat="47.38121" lon="1.07079">
        <ele>130</ele>
        <time>2020-07-11T19:44:06Z</time>
      </trkpt>
      <trkpt lat="47.38172" lon="1.06939">
        <ele>131</ele>
        <time>2020-07-11T19:44:25Z</time>
      </trkpt>
      <trkpt lat="47.38199" lon="1.06868">
        <ele>132</ele>
        <time>2020-07-11T19:44:35Z</time>
      </trkpt>
      <trkpt lat="47.38365" lon="1.06429">
        <ele>126</ele>
        <time>2020-07-11T19:45:36Z</time>
      </trkpt>
      <trkpt lat="47.38376" lon="1.06397">
        <ele>126</ele>
        <time>2020-07-11T19:45:40Z</time>
      </trkpt>
      <trkpt lat="47.38383" lon="1.06372">
        <ele>125</ele>
        <time>2020-07-11T19:45:43Z</time>
      </trkpt>
      <trkpt lat="47.38392" lon="1.06339">
        <ele>124</ele>
        <time>2020-07-11T19:45:48Z</time>
      </trkpt>
      <trkpt lat="47.38402" lon="1.06287">
        <ele>124</ele>
        <time>2020-07-11T19:45:54Z</time>
      </trkpt>
      <trkpt lat="47.38406" lon="1.06255">
        <ele>124</ele>
        <time>2020-07-11T19:45:58Z</time>
      </trkpt>
      <trkpt lat="47.38411" lon="1.06196">
        <ele>123</ele>
        <time>2020-07-11T19:46:05Z</time>
      </trkpt>
      <trkpt lat="47.38413" lon="1.06083">
        <ele>122</ele>
        <time>2020-07-11T19:46:19Z</time>
      </trkpt>
      <trkpt lat="47.38415" lon="1.06043">
        <ele>122</ele>
        <time>2020-07-11T19:46:24Z</time>
      </trkpt>
      <trkpt lat="47.38418" lon="1.06008">
        <ele>121</ele>
        <time>2020-07-11T19:46:28Z</time>
      </trkpt>
      <trkpt lat="47.38424" lon="1.05969">
        <ele>121</ele>
        <time>2020-07-11T19:46:33Z</time>
      </trkpt>
      <trkpt lat="47.38435" lon="1.05916">
        <ele>121</ele>
        <time>2020-07-11T19:46:40Z</time>
      </trkpt>
      <trkpt lat="47.38447" lon="1.05871">
        <ele>121</ele>
        <time>2020-07-11T19:46:45Z</time>
      </trkpt>
      <trkpt lat="47.38465" lon="1.05813">
        <ele>120</ele>
        <time>2020-07-11T19:46:53Z</time>
      </trkpt>
      <trkpt lat="47.38482" lon="1.05765">
        <ele>120</ele>
        <time>2020-07-11T19:47:00Z</time>
      </trkpt>
      <trkpt lat="47.38503" lon="1.05719">
        <ele>118</ele>
        <time>2020-07-11T19:47:06Z</time>
      </trkpt>
      <trkpt lat="47.38516" lon="1.05693">
        <ele>117</ele>
        <time>2020-07-11T19:47:10Z</time>
      </trkpt>
      <trkpt lat="47.38539" lon="1.0565">
        <ele>115</ele>
        <time>2020-07-11T19:47:17Z</time>
      </trkpt>
      <trkpt lat="47.38569" lon="1.05601">
        <ele>114</ele>
        <time>2020-07-11T19:47:25Z</time>
      </trkpt>
      <trkpt lat="47.38686" lon="1.05423">
        <ele>108</ele>
        <time>2020-07-11T19:47:55Z</time>
      </trkpt>
      <trkpt lat="47.38724" lon="1.05362">
        <ele>105</ele>
        <time>2020-07-11T19:48:05Z</time>
      </trkpt>
      <trkpt lat="47.38787" lon="1.05256">
        <ele>104</ele>
        <time>2020-07-11T19:48:22Z</time>
      </trkpt>
      <trkpt lat="47.38873" lon="1.05085">
        <ele>114</ele>
        <time>2020-07-11T19:48:47Z</time>
      </trkpt>
      <trkpt lat="47.38884" lon="1.05058">
        <ele>116</ele>
        <time>2020-07-11T19:48:51Z</time>
      </trkpt>
      <trkpt lat="47.38892" lon="1.05033">
        <ele>117</ele>
        <time>2020-07-11T19:48:54Z</time>
      </trkpt>
      <trkpt lat="47.38903" lon="1.04972">
        <ele>119</ele>
        <time>2020-07-11T19:49:02Z</time>
      </trkpt>
      <trkpt lat="47.3891" lon="1.04841">
        <ele>122</ele>
        <time>2020-07-11T19:49:18Z</time>
      </trkpt>
      <trkpt lat="47.38913" lon="1.04812">
        <ele>122</ele>
        <time>2020-07-11T19:49:21Z</time>
      </trkpt>
      <trkpt lat="47.38918" lon="1.04781">
        <ele>123</ele>
        <time>2020-07-11T19:49:25Z</time>
      </trkpt>
      <trkpt lat="47.38937" lon="1.04702">
        <ele>122</ele>
        <time>2020-07-11T19:49:35Z</time>
      </trkpt>
      <trkpt lat="47.39011" lon="1.04423">
        <ele>126</ele>
        <time>2020-07-11T19:50:11Z</time>
      </trkpt>
      <trkpt lat="47.39046" lon="1.04339">
        <ele>126</ele>
        <time>2020-07-11T19:50:23Z</time>
      </trkpt>
      <trkpt lat="47.39119" lon="1.04199">
        <ele>125</ele>
        <time>2020-07-11T19:50:45Z</time>
      </trkpt>
      <trkpt lat="47.39239" lon="1.03973">
        <ele>122</ele>
        <time>2020-07-11T19:51:19Z</time>
      </trkpt>
      <trkpt lat="47.39301" lon="1.03858">
        <ele>123</ele>
        <time>2020-07-11T19:51:37Z</time>
      </trkpt>
      <trkpt lat="47.39354" lon="1.03754">
        <ele>123</ele>
        <time>2020-07-11T19:51:53Z</time>
      </trkpt>
      <trkpt lat="47.39403" lon="1.0366">
        <ele>121</ele>
        <time>2020-07-11T19:52:07Z</time>
      </trkpt>
      <trkpt lat="47.39458" lon="1.03578">
        <ele>118</ele>
        <time>2020-07-11T19:52:21Z</time>
      </trkpt>
      <trkpt lat="47.39525" lon="1.03485">
        <ele>115</ele>
        <time>2020-07-11T19:52:37Z</time>
      </trkpt>
      <trkpt lat="47.39575" lon="1.03416">
        <ele>109</ele>
        <time>2020-07-11T19:52:49Z</time>
      </trkpt>
      <trkpt lat="47.3961" lon="1.03366">
        <ele>107</ele>
        <time>2020-07-11T19:52:58Z</time>
      </trkpt>
      <trkpt lat="47.39699" lon="1.03241">
        <ele>108</ele>
        <time>2020-07-11T19:53:20Z</time>
      </trkpt>
      <trkpt lat="47.39727" lon="1.03202">
        <ele>108</ele>
        <time>2020-07-11T19:53:27Z</time>
      </trkpt>
      <trkpt lat="47.39881" lon="1.02984">
        <ele>110</ele>
        <time>2020-07-11T19:54:05Z</time>
      </trkpt>
      <trkpt lat="47.399" lon="1.02957">
        <ele>110</ele>
        <time>2020-07-11T19:54:09Z</time>
      </trkpt>
      <trkpt lat="47.40084" lon="1.02697">
        <ele>106</ele>
        <time>2020-07-11T19:54:55Z</time>
      </trkpt>
      <trkpt lat="47.40097" lon="1.02678">
        <ele>105</ele>
        <time>2020-07-11T19:54:58Z</time>
      </trkpt>
      <trkpt lat="47.40258" lon="1.02453">
        <ele>94</ele>
        <time>2020-07-11T19:55:37Z</time>
      </trkpt>
      <trkpt lat="47.4029" lon="1.02406">
        <ele>90</ele>
        <time>2020-07-11T19:55:45Z</time>
      </trkpt>
      <trkpt lat="47.40334" lon="1.02341">
        <ele>87</ele>
        <time>2020-07-11T19:55:56Z</time>
      </trkpt>
      <trkpt lat="47.40344" lon="1.02321">
        <ele>86</ele>
        <time>2020-07-11T19:55:59Z</time>
      </trkpt>
      <trkpt lat="47.40353" lon="1.02297">
        <ele>85</ele>
        <time>2020-07-11T19:56:03Z</time>
      </trkpt>
      <trkpt lat="47.40358" lon="1.02275">
        <ele>84</ele>
        <time>2020-07-11T19:56:05Z</time>
      </trkpt>
      <trkpt lat="47.40362" lon="1.02248">
        <ele>84</ele>
        <time>2020-07-11T19:56:09Z</time>
      </trkpt>
      <trkpt lat="47.40362" lon="1.02219">
        <ele>82</ele>
        <time>2020-07-11T19:56:12Z</time>
      </trkpt>
      <trkpt lat="47.40358" lon="1.02191">
        <ele>81</ele>
        <time>2020-07-11T19:56:16Z</time>
      </trkpt>
      <trkpt lat="47.40351" lon="1.0216">
        <ele>80</ele>
        <time>2020-07-11T19:56:20Z</time>
      </trkpt>
      <trkpt lat="47.40343" lon="1.02138">
        <ele>80</ele>
        <time>2020-07-11T19:56:23Z</time>
      </trkpt>
      <trkpt lat="47.40308" lon="1.02065">
        <ele>80</ele>
        <time>2020-07-11T19:56:33Z</time>
      </trkpt>
      <trkpt lat="47.40299" lon="1.02043">
        <ele>80</ele>
        <time>2020-07-11T19:56:36Z</time>
      </trkpt>
      <trkpt lat="47.4029" lon="1.02015">
        <ele>80</ele>
        <time>2020-07-11T19:56:40Z</time>
      </trkpt>
      <trkpt lat="47.40284" lon="1.01979">
        <ele>80</ele>
        <time>2020-07-11T19:56:45Z</time>
      </trkpt>
      <trkpt lat="47.40281" lon="1.01932">
        <ele>78</ele>
        <time>2020-07-11T19:56:50Z</time>
      </trkpt>
      <trkpt lat="47.40282" lon="1.01904">
        <ele>76</ele>
        <time>2020-07-11T19:56:54Z</time>
      </trkpt>
      <trkpt lat="47.40287" lon="1.01884">
        <ele>73</ele>
        <time>2020-07-11T19:56:56Z</time>
      </trkpt>
      <trkpt lat="47.4029" lon="1.01875">
        <ele>72</ele>
        <time>2020-07-11T19:56:58Z</time>
      </trkpt>
      <trkpt lat="47.40298" lon="1.01864">
        <ele>71</ele>
        <time>2020-07-11T19:56:59Z</time>
      </trkpt>
      <trkpt lat="47.40308" lon="1.01859">
        <ele>70</ele>
        <time>2020-07-11T19:57:01Z</time>
      </trkpt>
      <trkpt lat="47.40314" lon="1.01845">
        <ele>69</ele>
        <time>2020-07-11T19:57:03Z</time>
      </trkpt>
      <trkpt lat="47.40314" lon="1.0183">
        <ele>68</ele>
        <time>2020-07-11T19:57:05Z</time>
      </trkpt>
      <trkpt lat="47.40309" lon="1.0182">
        <ele>68</ele>
        <time>2020-07-11T19:57:07Z</time>
      </trkpt>
      <trkpt lat="47.40309" lon="1.01803">
        <ele>68</ele>
        <time>2020-07-11T19:57:09Z</time>
      </trkpt>
      <trkpt lat="47.40311" lon="1.01789">
        <ele>68</ele>
        <time>2020-07-11T19:57:10Z</time>
      </trkpt>
      <trkpt lat="47.40322" lon="1.01758">
        <ele>68</ele>
        <time>2020-07-11T19:57:15Z</time>
      </trkpt>
      <trkpt lat="47.40327" lon="1.01748">
        <ele>67</ele>
        <time>2020-07-11T19:57:16Z</time>
      </trkpt>
      <trkpt lat="47.40331" lon="1.01748">
        <ele>67</ele>
        <time>2020-07-11T19:57:17Z</time>
      </trkpt>
      <trkpt lat="47.40334" lon="1.01747">
        <ele>67</ele>
        <time>2020-07-11T19:57:17Z</time>
      </trkpt>
      <trkpt lat="47.40336" lon="1.01745">
        <ele>67</ele>
        <time>2020-07-11T19:57:18Z</time>
      </trkpt>
      <trkpt lat="47.40339" lon="1.01742">
        <ele>67</ele>
        <time>2020-07-11T19:57:18Z</time>
      </trkpt>
      <trkpt lat="47.4034" lon="1.01737">
        <ele>67</ele>
        <time>2020-07-11T19:57:19Z</time>
      </trkpt>
      <trkpt lat="47.4034" lon="1.01729">
        <ele>67</ele>
        <time>2020-07-11T19:57:20Z</time>
      </trkpt>
      <trkpt lat="47.40339" lon="1.01724">
        <ele>68</ele>
        <time>2020-07-11T19:57:21Z</time>
      </trkpt>
      <trkpt lat="47.40337" lon="1.01721">
        <ele>68</ele>
        <time>2020-07-11T19:57:21Z</time>
      </trkpt>
      <trkpt lat="47.40336" lon="1.01709">
        <ele>68</ele>
        <time>2020-07-11T19:57:23Z</time>
      </trkpt>
      <trkpt lat="47.40337" lon="1.01688">
        <ele>69</ele>
        <time>2020-07-11T19:57:25Z</time>
      </trkpt>
      <trkpt lat="47.40341" lon="1.01676">
        <ele>69</ele>
        <time>2020-07-11T19:57:27Z</time>
      </trkpt>
      <trkpt lat="47.40343" lon="1.01667">
        <ele>69</ele>
        <time>2020-07-11T19:57:28Z</time>
      </trkpt>
      <trkpt lat="47.40357" lon="1.01611">
        <ele>70</ele>
        <time>2020-07-11T19:57:35Z</time>
      </trkpt>
      <trkpt lat="47.40368" lon="1.01556">
        <ele>70</ele>
        <time>2020-07-11T19:57:42Z</time>
      </trkpt>
      <trkpt lat="47.40374" lon="1.01525">
        <ele>70</ele>
        <time>2020-07-11T19:57:46Z</time>
      </trkpt>
      <trkpt lat="47.40378" lon="1.01482">
        <ele>70</ele>
        <time>2020-07-11T19:57:51Z</time>
      </trkpt>
      <trkpt lat="47.40377" lon="1.01461">
        <ele>71</ele>
        <time>2020-07-11T19:57:54Z</time>
      </trkpt>
      <trkpt lat="47.40377" lon="1.01452">
        <ele>71</ele>
        <time>2020-07-11T19:57:55Z</time>
      </trkpt>
      <trkpt lat="47.40378" lon="1.0144">
        <ele>71</ele>
        <time>2020-07-11T19:57:56Z</time>
      </trkpt>
      <trkpt lat="47.40377" lon="1.01401">
        <ele>71</ele>
        <time>2020-07-11T19:58:01Z</time>
      </trkpt>
      <trkpt lat="47.40375" lon="1.01375">
        <ele>71</ele>
        <time>2020-07-11T19:58:04Z</time>
      </trkpt>
      <trkpt lat="47.40371" lon="1.01349">
        <ele>72</ele>
        <time>2020-07-11T19:58:07Z</time>
      </trkpt>
      <trkpt lat="47.40356" lon="1.01277">
        <ele>73</ele>
        <time>2020-07-11T19:58:16Z</time>
      </trkpt>
      <trkpt lat="47.40342" lon="1.01201">
        <ele>71</ele>
        <time>2020-07-11T19:58:26Z</time>
      </trkpt>
      <trkpt lat="47.40337" lon="1.01173">
        <ele>70</ele>
        <time>2020-07-11T19:58:29Z</time>
      </trkpt>
      <trkpt lat="47.40329" lon="1.01131">
        <ele>69</ele>
        <time>2020-07-11T19:58:35Z</time>
      </trkpt>
      <trkpt lat="47.40326" lon="1.01105">
        <ele>69</ele>
        <time>2020-07-11T19:58:38Z</time>
      </trkpt>
      <trkpt lat="47.40323" lon="1.01067">
        <ele>69</ele>
        <time>2020-07-11T19:58:42Z</time>
      </trkpt>
      <trkpt lat="47.40324" lon="1.01032">
        <ele>69</ele>
        <time>2020-07-11T19:58:47Z</time>
      </trkpt>
      <trkpt lat="47.40327" lon="1.00976">
        <ele>69</ele>
        <time>2020-07-11T19:58:53Z</time>
      </trkpt>
      <trkpt lat="47.40329" lon="1.00943">
        <ele>68</ele>
        <time>2020-07-11T19:58:57Z</time>
      </trkpt>
      <trkpt lat="47.40339" lon="1.00765">
        <ele>63</ele>
        <time>2020-07-11T19:59:19Z</time>
      </trkpt>
      <trkpt lat="47.40343" lon="1.00707">
        <ele>62</ele>
        <time>2020-07-11T19:59:26Z</time>
      </trkpt>
      <trkpt lat="47.40346" lon="1.00646">
        <ele>62</ele>
        <time>2020-07-11T19:59:33Z</time>
      </trkpt>
      <trkpt lat="47.40348" lon="1.00611">
        <ele>63</ele>
        <time>2020-07-11T19:59:37Z</time>
      </trkpt>
      <trkpt lat="47.4035" lon="1.00574">
        <ele>63</ele>
        <time>2020-07-11T19:59:42Z</time>
      </trkpt>
      <trkpt lat="47.4035" lon="1.00565">
        <ele>63</ele>
        <time>2020-07-11T19:59:43Z</time>
      </trkpt>
      <trkpt lat="47.40352" lon="1.00532">
        <ele>63</ele>
        <time>2020-07-11T19:59:47Z</time>
      </trkpt>
      <trkpt lat="47.40358" lon="1.00492">
        <ele>63</ele>
        <time>2020-07-11T19:59:52Z</time>
      </trkpt>
      <trkpt lat="47.40369" lon="1.00448">
        <ele>64</ele>
        <time>2020-07-11T19:59:58Z</time>
      </trkpt>
      <trkpt lat="47.40383" lon="1.00407">
        <ele>65</ele>
        <time>2020-07-11T20:00:03Z</time>
      </trkpt>
      <trkpt lat="47.40407" lon="1.00361">
        <ele>64</ele>
        <time>2020-07-11T20:00:10Z</time>
      </trkpt>
      <trkpt lat="47.40434" lon="1.00325">
        <ele>64</ele>
        <time>2020-07-11T20:00:17Z</time>
      </trkpt>
      <trkpt lat="47.40455" lon="1.00303">
        <ele>64</ele>
        <time>2020-07-11T20:00:21Z</time>
      </trkpt>
      <trkpt lat="47.40477" lon="1.00286">
        <ele>63</ele>
        <time>2020-07-11T20:00:26Z</time>
      </trkpt>
      <trkpt lat="47.40498" lon="1.00274">
        <ele>63</ele>
        <time>2020-07-11T20:00:30Z</time>
      </trkpt>
      <trkpt lat="47.40499" lon="1.00277">
        <ele>63</ele>
        <time>2020-07-11T20:00:30Z</time>
      </trkpt>
      <trkpt lat="47.40507" lon="1.0028">
        <ele>63</ele>
        <time>2020-07-11T20:00:31Z</time>
      </trkpt>
      <trkpt lat="47.40513" lon="1.00273">
        <ele>63</ele>
        <time>2020-07-11T20:00:33Z</time>
      </trkpt>
      <trkpt lat="47.40513" lon="1.00269">
        <ele>63</ele>
        <time>2020-07-11T20:00:33Z</time>
      </trkpt>
      <trkpt lat="47.40513" lon="1.00265">
        <ele>63</ele>
        <time>2020-07-11T20:00:34Z</time>
      </trkpt>
      <trkpt lat="47.40512" lon="1.00261">
        <ele>63</ele>
        <time>2020-07-11T20:00:34Z</time>
      </trkpt>
      <trkpt lat="47.40526" lon="1.00246">
        <ele>62</ele>
        <time>2020-07-11T20:00:37Z</time>
      </trkpt>
      <trkpt lat="47.40545" lon="1.00222">
        <ele>63</ele>
        <time>2020-07-11T20:00:42Z</time>
      </trkpt>
      <trkpt lat="47.40562" lon="1.00197">
        <ele>63</ele>
        <time>2020-07-11T20:00:46Z</time>
      </trkpt>
      <trkpt lat="47.40577" lon="1.00164">
        <ele>63</ele>
        <time>2020-07-11T20:00:51Z</time>
      </trkpt>
      <trkpt lat="47.40582" lon="1.00148">
        <ele>64</ele>
        <time>2020-07-11T20:00:53Z</time>
      </trkpt>
      <trkpt lat="47.40586" lon="1.0013">
        <ele>64</ele>
        <time>2020-07-11T20:00:55Z</time>
      </trkpt>
      <trkpt lat="47.40592" lon="1.00095">
        <ele>66</ele>
        <time>2020-07-11T20:01:00Z</time>
      </trkpt>
      <trkpt lat="47.40598" lon="1.00054">
        <ele>67</ele>
        <time>2020-07-11T20:01:05Z</time>
      </trkpt>
      <trkpt lat="47.40606" lon="0.99998">
        <ele>68</ele>
        <time>2020-07-11T20:01:12Z</time>
      </trkpt>
      <trkpt lat="47.40616" lon="0.99929">
        <ele>66</ele>
        <time>2020-07-11T20:01:20Z</time>
      </trkpt>
      <trkpt lat="47.40634" lon="0.99795">
        <ele>65</ele>
        <time>2020-07-11T20:01:37Z</time>
      </trkpt>
      <trkpt lat="47.40636" lon="0.99784">
        <ele>65</ele>
        <time>2020-07-11T20:01:38Z</time>
      </trkpt>
      <trkpt lat="47.40653" lon="0.99661">
        <ele>62</ele>
        <time>2020-07-11T20:01:53Z</time>
      </trkpt>
      <trkpt lat="47.40655" lon="0.99651">
        <ele>62</ele>
        <time>2020-07-11T20:01:54Z</time>
      </trkpt>
      <trkpt lat="47.40657" lon="0.99639">
        <ele>62</ele>
        <time>2020-07-11T20:01:56Z</time>
      </trkpt>
      <trkpt lat="47.40658" lon="0.99627">
        <ele>62</ele>
        <time>2020-07-11T20:01:57Z</time>
      </trkpt>
      <trkpt lat="47.40668" lon="0.99553">
        <ele>61</ele>
        <time>2020-07-11T20:02:06Z</time>
      </trkpt>
      <trkpt lat="47.40673" lon="0.99516">
        <ele>61</ele>
        <time>2020-07-11T20:02:11Z</time>
      </trkpt>
      <trkpt lat="47.40687" lon="0.99421">
        <ele>61</ele>
        <time>2020-07-11T20:02:23Z</time>
      </trkpt>
      <trkpt lat="47.40689" lon="0.99404">
        <ele>61</ele>
        <time>2020-07-11T20:02:25Z</time>
      </trkpt>
      <trkpt lat="47.4069" lon="0.99396">
        <ele>61</ele>
        <time>2020-07-11T20:02:26Z</time>
      </trkpt>
      <trkpt lat="47.40717" lon="0.99204">
        <ele>64</ele>
        <time>2020-07-11T20:02:49Z</time>
      </trkpt>
      <trkpt lat="47.40734" lon="0.99085">
        <ele>63</ele>
        <time>2020-07-11T20:03:04Z</time>
      </trkpt>
      <trkpt lat="47.40741" lon="0.99056">
        <ele>63</ele>
        <time>2020-07-11T20:03:08Z</time>
      </trkpt>
      <trkpt lat="47.40745" lon="0.99045">
        <ele>63</ele>
        <time>2020-07-11T20:03:09Z</time>
      </trkpt>
      <trkpt lat="47.4075" lon="0.99036">
        <ele>63</ele>
        <time>2020-07-11T20:03:10Z</time>
      </trkpt>
      <trkpt lat="47.40772" lon="0.99009">
        <ele>62</ele>
        <time>2020-07-11T20:03:16Z</time>
      </trkpt>
      <trkpt lat="47.40809" lon="0.98966">
        <ele>62</ele>
        <time>2020-07-11T20:03:24Z</time>
      </trkpt>
      <trkpt lat="47.40849" lon="0.98916">
        <ele>61</ele>
        <time>2020-07-11T20:03:33Z</time>
      </trkpt>
      <trkpt lat="47.40861" lon="0.98903">
        <ele>62</ele>
        <time>2020-07-11T20:03:36Z</time>
      </trkpt>
      <trkpt lat="47.40884" lon="0.98873">
        <ele>62</ele>
        <time>2020-07-11T20:03:41Z</time>
      </trkpt>
      <trkpt lat="47.40901" lon="0.98853">
        <ele>62</ele>
        <time>2020-07-11T20:03:45Z</time>
      </trkpt>
      <trkpt lat="47.40956" lon="0.98771">
        <ele>62</ele>
        <time>2020-07-11T20:03:59Z</time>
      </trkpt>
      <trkpt lat="47.4098" lon="0.98726">
        <ele>61</ele>
        <time>2020-07-11T20:04:06Z</time>
      </trkpt>
      <trkpt lat="47.40999" lon="0.98685">
        <ele>60</ele>
        <time>2020-07-11T20:04:12Z</time>
      </trkpt>
      <trkpt lat="47.4101" lon="0.98641">
        <ele>60</ele>
        <time>2020-07-11T20:04:18Z</time>
      </trkpt>
      <trkpt lat="47.41014" lon="0.98612">
        <ele>60</ele>
        <time>2020-07-11T20:04:21Z</time>
      </trkpt>
      <trkpt lat="47.41016" lon="0.98599">
        <ele>60</ele>
        <time>2020-07-11T20:04:23Z</time>
      </trkpt>
      <trkpt lat="47.41019" lon="0.98568">
        <ele>60</ele>
        <time>2020-07-11T20:04:27Z</time>
      </trkpt>
      <trkpt lat="47.41022" lon="0.98541">
        <ele>61</ele>
        <time>2020-07-11T20:04:30Z</time>
      </trkpt>
      <trkpt lat="47.41027" lon="0.98542">
        <ele>61</ele>
        <time>2020-07-11T20:04:31Z</time>
      </trkpt>
      <trkpt lat="47.4103" lon="0.98542">
        <ele>61</ele>
        <time>2020-07-11T20:04:31Z</time>
      </trkpt>
      <trkpt lat="47.41034" lon="0.98542">
        <ele>61</ele>
        <time>2020-07-11T20:04:32Z</time>
      </trkpt>
      <trkpt lat="47.4104" lon="0.98541">
        <ele>61</ele>
        <time>2020-07-11T20:04:33Z</time>
      </trkpt>
      <trkpt lat="47.41044" lon="0.98538">
        <ele>61</ele>
        <time>2020-07-11T20:04:34Z</time>
      </trkpt>
      <trkpt lat="47.41047" lon="0.98537">
        <ele>61</ele>
        <time>2020-07-11T20:04:34Z</time>
      </trkpt>
      <trkpt lat="47.4105" lon="0.98535">
        <ele>61</ele>
        <time>2020-07-11T20:04:35Z</time>
      </trkpt>
      <trkpt lat="47.41073" lon="0.98524">
        <ele>61</ele>
        <time>2020-07-11T20:04:39Z</time>
      </trkpt>
      <trkpt lat="47.41082" lon="0.98518">
        <ele>61</ele>
        <time>2020-07-11T20:04:41Z</time>
      </trkpt>
      <trkpt lat="47.41089" lon="0.98513">
        <ele>61</ele>
        <time>2020-07-11T20:04:42Z</time>
      </trkpt>
      <trkpt lat="47.41108" lon="0.98496">
        <ele>61</ele>
        <time>2020-07-11T20:04:46Z</time>
      </trkpt>
      <trkpt lat="47.41167" lon="0.98446">
        <ele>61</ele>
        <time>2020-07-11T20:04:59Z</time>
      </trkpt>
      <trkpt lat="47.41172" lon="0.9844">
        <ele>61</ele>
        <time>2020-07-11T20:05:00Z</time>
      </trkpt>
      <trkpt lat="47.41189" lon="0.98418">
        <ele>62</ele>
        <time>2020-07-11T20:05:04Z</time>
      </trkpt>
      <trkpt lat="47.4122" lon="0.98373">
        <ele>63</ele>
        <time>2020-07-11T20:05:11Z</time>
      </trkpt>
      <trkpt lat="47.41223" lon="0.98368">
        <ele>63</ele>
        <time>2020-07-11T20:05:12Z</time>
      </trkpt>
      <trkpt lat="47.4123" lon="0.98358">
        <ele>63</ele>
        <time>2020-07-11T20:05:14Z</time>
      </trkpt>
      <trkpt lat="47.41246" lon="0.9832">
        <ele>63</ele>
        <time>2020-07-11T20:05:19Z</time>
      </trkpt>
      <trkpt lat="47.4129" lon="0.9828">
        <ele>59</ele>
        <time>2020-07-11T20:05:29Z</time>
      </trkpt>
      <trkpt lat="47.41313" lon="0.98322">
        <ele>59</ele>
        <time>2020-07-11T20:05:35Z</time>
      </trkpt>
      <trkpt lat="47.4132" lon="0.98328">
        <ele>59</ele>
        <time>2020-07-11T20:05:37Z</time>
      </trkpt>
      <trkpt lat="47.41325" lon="0.98336">
        <ele>59</ele>
        <time>2020-07-11T20:05:38Z</time>
      </trkpt>
      <trkpt lat="47.41362" lon="0.98424">
        <ele>60</ele>
        <time>2020-07-11T20:05:50Z</time>
      </trkpt>
      <trkpt lat="47.41374" lon="0.98436">
        <ele>59</ele>
        <time>2020-07-11T20:05:53Z</time>
      </trkpt>
      <trkpt lat="47.41379" lon="0.98435">
        <ele>59</ele>
        <time>2020-07-11T20:05:54Z</time>
      </trkpt>
      <trkpt lat="47.41382" lon="0.98434">
        <ele>58</ele>
        <time>2020-07-11T20:05:54Z</time>
      </trkpt>
      <trkpt lat="47.41383" lon="0.98434">
        <ele>58</ele>
        <time>2020-07-11T20:05:55Z</time>
      </trkpt>
      <trkpt lat="47.41546" lon="0.98302">
        <ele>57</ele>
        <time>2020-07-11T20:06:28Z</time>
      </trkpt>
      <trkpt lat="47.41592" lon="0.98263">
        <ele>56</ele>
        <time>2020-07-11T20:06:37Z</time>
      </trkpt>
      <trkpt lat="47.41749" lon="0.98139">
        <ele>57</ele>
        <time>2020-07-11T20:07:09Z</time>
      </trkpt>
      <trkpt lat="47.41755" lon="0.98146">
        <ele>57</ele>
        <time>2020-07-11T20:07:10Z</time>
      </trkpt>
      <trkpt lat="47.41759" lon="0.98145">
        <ele>57</ele>
        <time>2020-07-11T20:07:11Z</time>
      </trkpt>
      <trkpt lat="47.41778" lon="0.98169">
        <ele>57</ele>
        <time>2020-07-11T20:07:15Z</time>
      </trkpt>
      <trkpt lat="47.41817" lon="0.98227">
        <ele>59</ele>
        <time>2020-07-11T20:07:25Z</time>
      </trkpt>
      <trkpt lat="47.41819" lon="0.98222">
        <ele>59</ele>
        <time>2020-07-11T20:07:26Z</time>
      </trkpt>
      <trkpt lat="47.41782" lon="0.98165">
        <ele>58</ele>
        <time>2020-07-11T20:07:35Z</time>
      </trkpt>
      <trkpt lat="47.41799" lon="0.98125">
        <ele>59</ele>
        <time>2020-07-11T20:07:41Z</time>
      </trkpt>
      <trkpt lat="47.41839" lon="0.97994">
        <ele>58</ele>
        <time>2020-07-11T20:07:58Z</time>
      </trkpt>
      <trkpt lat="47.41894" lon="0.97844">
        <ele>59</ele>
        <time>2020-07-11T20:08:19Z</time>
      </trkpt>
      <trkpt lat="47.41919" lon="0.97785">
        <ele>57</ele>
        <time>2020-07-11T20:08:27Z</time>
      </trkpt>
      <trkpt lat="47.41943" lon="0.97748">
        <ele>57</ele>
        <time>2020-07-11T20:08:33Z</time>
      </trkpt>
      <trkpt lat="47.41955" lon="0.97725">
        <ele>56</ele>
        <time>2020-07-11T20:08:37Z</time>
      </trkpt>
      <trkpt lat="47.41961" lon="0.9771">
        <ele>56</ele>
        <time>2020-07-11T20:08:39Z</time>
      </trkpt>
      <trkpt lat="47.41965" lon="0.97701">
        <ele>56</ele>
        <time>2020-07-11T20:08:40Z</time>
      </trkpt>
      <trkpt lat="47.41986" lon="0.97651">
        <ele>56</ele>
        <time>2020-07-11T20:08:47Z</time>
      </trkpt>
      <trkpt lat="47.41992" lon="0.97641">
        <ele>56</ele>
        <time>2020-07-11T20:08:49Z</time>
      </trkpt>
      <trkpt lat="47.42" lon="0.97628">
        <ele>56</ele>
        <time>2020-07-11T20:08:51Z</time>
      </trkpt>
      <trkpt lat="47.42009" lon="0.97623">
        <ele>56</ele>
        <time>2020-07-11T20:08:53Z</time>
      </trkpt>
      <trkpt lat="47.42142" lon="0.97393">
        <ele>56</ele>
        <time>2020-07-11T20:09:29Z</time>
      </trkpt>
      <trkpt lat="47.42169" lon="0.9734">
        <ele>55</ele>
        <time>2020-07-11T20:09:37Z</time>
      </trkpt>
      <trkpt lat="47.4218" lon="0.97314">
        <ele>55</ele>
        <time>2020-07-11T20:09:41Z</time>
      </trkpt>
      <trkpt lat="47.42224" lon="0.97192">
        <ele>55</ele>
        <time>2020-07-11T20:09:58Z</time>
      </trkpt>
      <trkpt lat="47.4223" lon="0.97178">
        <ele>55</ele>
        <time>2020-07-11T20:09:59Z</time>
      </trkpt>
      <trkpt lat="47.42237" lon="0.9717">
        <ele>55</ele>
        <time>2020-07-11T20:10:01Z</time>
      </trkpt>
      <trkpt lat="47.42247" lon="0.97129">
        <ele>56</ele>
        <time>2020-07-11T20:10:06Z</time>
      </trkpt>
      <trkpt lat="47.42257" lon="0.97096">
        <ele>57</ele>
        <time>2020-07-11T20:10:11Z</time>
      </trkpt>
      <trkpt lat="47.42381" lon="0.96766">
        <ele>56</ele>
        <time>2020-07-11T20:10:56Z</time>
      </trkpt>
      <trkpt lat="47.42546" lon="0.9631">
        <ele>57</ele>
        <time>2020-07-11T20:11:58Z</time>
      </trkpt>
      <trkpt lat="47.42578" lon="0.96225">
        <ele>56</ele>
        <time>2020-07-11T20:12:10Z</time>
      </trkpt>
      <trkpt lat="47.42594" lon="0.96191">
        <ele>55</ele>
        <time>2020-07-11T20:12:15Z</time>
      </trkpt>
      <trkpt lat="47.42634" lon="0.96121">
        <ele>54</ele>
        <time>2020-07-11T20:12:26Z</time>
      </trkpt>
      <trkpt lat="47.42662" lon="0.96079">
        <ele>53</ele>
        <time>2020-07-11T20:12:33Z</time>
      </trkpt>
      <trkpt lat="47.42704" lon="0.96017">
        <ele>53</ele>
        <time>2020-07-11T20:12:44Z</time>
      </trkpt>
      <trkpt lat="47.42726" lon="0.95989">
        <ele>54</ele>
        <time>2020-07-11T20:12:49Z</time>
      </trkpt>
      <trkpt lat="47.42741" lon="0.95978">
        <ele>54</ele>
        <time>2020-07-11T20:12:52Z</time>
      </trkpt>
      <trkpt lat="47.42751" lon="0.95962">
        <ele>54</ele>
        <time>2020-07-11T20:12:55Z</time>
      </trkpt>
      <trkpt lat="47.42764" lon="0.95947">
        <ele>53</ele>
        <time>2020-07-11T20:12:57Z</time>
      </trkpt>
      <trkpt lat="47.4277" lon="0.95944">
        <ele>53</ele>
        <time>2020-07-11T20:12:59Z</time>
      </trkpt>
      <trkpt lat="47.42777" lon="0.95936">
        <ele>53</ele>
        <time>2020-07-11T20:13:00Z</time>
      </trkpt>
      <trkpt lat="47.42781" lon="0.95911">
        <ele>53</ele>
        <time>2020-07-11T20:13:03Z</time>
      </trkpt>
      <trkpt lat="47.42786" lon="0.95899">
        <ele>53</ele>
        <time>2020-07-11T20:13:05Z</time>
      </trkpt>
      <trkpt lat="47.42794" lon="0.95894">
        <ele>52</ele>
        <time>2020-07-11T20:13:06Z</time>
      </trkpt>
      <trkpt lat="47.43004" lon="0.95582">
        <ele>57</ele>
        <time>2020-07-11T20:13:59Z</time>
      </trkpt>
      <trkpt lat="47.43032" lon="0.95539">
        <ele>56</ele>
        <time>2020-07-11T20:14:07Z</time>
      </trkpt>
      <trkpt lat="47.43041" lon="0.95517">
        <ele>56</ele>
        <time>2020-07-11T20:14:10Z</time>
      </trkpt>
      <trkpt lat="47.43056" lon="0.95495">
        <ele>56</ele>
        <time>2020-07-11T20:14:14Z</time>
      </trkpt>
      <trkpt lat="47.43093" lon="0.95438">
        <ele>55</ele>
        <time>2020-07-11T20:14:23Z</time>
      </trkpt>
      <trkpt lat="47.43123" lon="0.95397">
        <ele>55</ele>
        <time>2020-07-11T20:14:30Z</time>
      </trkpt>
      <trkpt lat="47.43138" lon="0.95382">
        <ele>56</ele>
        <time>2020-07-11T20:14:34Z</time>
      </trkpt>
      <trkpt lat="47.43151" lon="0.95373">
        <ele>56</ele>
        <time>2020-07-11T20:14:36Z</time>
      </trkpt>
      <trkpt lat="47.43213" lon="0.95339">
        <ele>61</ele>
        <time>2020-07-11T20:14:48Z</time>
      </trkpt>
      <trkpt lat="47.43254" lon="0.95311">
        <ele>67</ele>
        <time>2020-07-11T20:14:56Z</time>
      </trkpt>
      <trkpt lat="47.43265" lon="0.95305">
        <ele>69</ele>
        <time>2020-07-11T20:14:58Z</time>
      </trkpt>
      <trkpt lat="47.43281" lon="0.95303">
        <ele>72</ele>
        <time>2020-07-11T20:15:01Z</time>
      </trkpt>
      <trkpt lat="47.43313" lon="0.95306">
        <ele>77</ele>
        <time>2020-07-11T20:15:07Z</time>
      </trkpt>
      <trkpt lat="47.43349" lon="0.95318">
        <ele>80</ele>
        <time>2020-07-11T20:15:13Z</time>
      </trkpt>
      <trkpt lat="47.43374" lon="0.95334">
        <ele>82</ele>
        <time>2020-07-11T20:15:18Z</time>
      </trkpt>
      <trkpt lat="47.43465" lon="0.95404">
        <ele>93</ele>
        <time>2020-07-11T20:15:36Z</time>
      </trkpt>
      <trkpt lat="47.43485" lon="0.95411">
        <ele>93</ele>
        <time>2020-07-11T20:15:40Z</time>
      </trkpt>
      <trkpt lat="47.43498" lon="0.95411">
        <ele>93</ele>
        <time>2020-07-11T20:15:42Z</time>
      </trkpt>
      <trkpt lat="47.43507" lon="0.95406">
        <ele>94</ele>
        <time>2020-07-11T20:15:44Z</time>
      </trkpt>
      <trkpt lat="47.43528" lon="0.95389">
        <ele>96</ele>
        <time>2020-07-11T20:15:48Z</time>
      </trkpt>
      <trkpt lat="47.43542" lon="0.95371">
        <ele>97</ele>
        <time>2020-07-11T20:15:51Z</time>
      </trkpt>
      <trkpt lat="47.43569" lon="0.95322">
        <ele>100</ele>
        <time>2020-07-11T20:15:59Z</time>
      </trkpt>
      <trkpt lat="47.43583" lon="0.95306">
        <ele>101</ele>
        <time>2020-07-11T20:16:02Z</time>
      </trkpt>
      <trkpt lat="47.43612" lon="0.95289">
        <ele>103</ele>
        <time>2020-07-11T20:16:08Z</time>
      </trkpt>
      <trkpt lat="47.43714" lon="0.95252">
        <ele>106</ele>
        <time>2020-07-11T20:16:26Z</time>
      </trkpt>
      <trkpt lat="47.43801" lon="0.95193">
        <ele>106</ele>
        <time>2020-07-11T20:16:43Z</time>
      </trkpt>
      <trkpt lat="47.43818" lon="0.95185">
        <ele>106</ele>
        <time>2020-07-11T20:16:47Z</time>
      </trkpt>
      <trkpt lat="47.43828" lon="0.95186">
        <ele>106</ele>
        <time>2020-07-11T20:16:48Z</time>
      </trkpt>
      <trkpt lat="47.43837" lon="0.9519">
        <ele>106</ele>
        <time>2020-07-11T20:16:50Z</time>
      </trkpt>
      <trkpt lat="47.43863" lon="0.9521">
        <ele>106</ele>
        <time>2020-07-11T20:16:55Z</time>
      </trkpt>
      <trkpt lat="47.43938" lon="0.95284">
        <ele>104</ele>
        <time>2020-07-11T20:17:11Z</time>
      </trkpt>
      <trkpt lat="47.43961" lon="0.95312">
        <ele>103</ele>
        <time>2020-07-11T20:17:17Z</time>
      </trkpt>
      <trkpt lat="47.44004" lon="0.95376">
        <ele>103</ele>
        <time>2020-07-11T20:17:27Z</time>
      </trkpt>
      <trkpt lat="47.44022" lon="0.95401">
        <ele>103</ele>
        <time>2020-07-11T20:17:32Z</time>
      </trkpt>
      <trkpt lat="47.44038" lon="0.95414">
        <ele>104</ele>
        <time>2020-07-11T20:17:35Z</time>
      </trkpt>
      <trkpt lat="47.44061" lon="0.9542">
        <ele>104</ele>
        <time>2020-07-11T20:17:39Z</time>
      </trkpt>
      <trkpt lat="47.44197" lon="0.95438">
        <ele>110</ele>
        <time>2020-07-11T20:18:04Z</time>
      </trkpt>
      <trkpt lat="47.44213" lon="0.95435">
        <ele>110</ele>
        <time>2020-07-11T20:18:06Z</time>
      </trkpt>
      <trkpt lat="47.44245" lon="0.95417">
        <ele>111</ele>
        <time>2020-07-11T20:18:13Z</time>
      </trkpt>
      <trkpt lat="47.4433" lon="0.95351">
        <ele>110</ele>
        <time>2020-07-11T20:18:30Z</time>
      </trkpt>
      <trkpt lat="47.44351" lon="0.9534">
        <ele>110</ele>
        <time>2020-07-11T20:18:34Z</time>
      </trkpt>
      <trkpt lat="47.44499" lon="0.9527">
        <ele>108</ele>
        <time>2020-07-11T20:19:01Z</time>
      </trkpt>
      <trkpt lat="47.44608" lon="0.95224">
        <ele>110</ele>
        <time>2020-07-11T20:19:21Z</time>
      </trkpt>
      <trkpt lat="47.44692" lon="0.95182">
        <ele>111</ele>
        <time>2020-07-11T20:19:37Z</time>
      </trkpt>
      <trkpt lat="47.44808" lon="0.95105">
        <ele>108</ele>
        <time>2020-07-11T20:20:00Z</time>
      </trkpt>
      <trkpt lat="47.44845" lon="0.95075">
        <ele>106</ele>
        <time>2020-07-11T20:20:07Z</time>
      </trkpt>
      <trkpt lat="47.44958" lon="0.94953">
        <ele>103</ele>
        <time>2020-07-11T20:20:32Z</time>
      </trkpt>
      <trkpt lat="47.45051" lon="0.9485">
        <ele>104</ele>
        <time>2020-07-11T20:20:53Z</time>
      </trkpt>
      <trkpt lat="47.45249" lon="0.94645">
        <ele>100</ele>
        <time>2020-07-11T20:21:36Z</time>
      </trkpt>
      <trkpt lat="47.45274" lon="0.94607">
        <ele>102</ele>
        <time>2020-07-11T20:21:42Z</time>
      </trkpt>
      <trkpt lat="47.45343" lon="0.94471">
        <ele>106</ele>
        <time>2020-07-11T20:22:03Z</time>
      </trkpt>
      <trkpt lat="47.45417" lon="0.94368">
        <ele>102</ele>
        <time>2020-07-11T20:22:21Z</time>
      </trkpt>
      <trkpt lat="47.45431" lon="0.94344">
        <ele>101</ele>
        <time>2020-07-11T20:22:25Z</time>
      </trkpt>
      <trkpt lat="47.45443" lon="0.94316">
        <ele>101</ele>
        <time>2020-07-11T20:22:29Z</time>
      </trkpt>
      <trkpt lat="47.45489" lon="0.94146">
        <ele>103</ele>
        <time>2020-07-11T20:22:51Z</time>
      </trkpt>
      <trkpt lat="47.45498" lon="0.94107">
        <ele>102</ele>
        <time>2020-07-11T20:22:56Z</time>
      </trkpt>
      <trkpt lat="47.45565" lon="0.93746">
        <ele>103</ele>
        <time>2020-07-11T20:23:41Z</time>
      </trkpt>
      <trkpt lat="47.45578" lon="0.93684">
        <ele>102</ele>
        <time>2020-07-11T20:23:48Z</time>
      </trkpt>
      <trkpt lat="47.45587" lon="0.93657">
        <ele>102</ele>
        <time>2020-07-11T20:23:52Z</time>
      </trkpt>
      <trkpt lat="47.45671" lon="0.93482">
        <ele>101</ele>
        <time>2020-07-11T20:24:18Z</time>
      </trkpt>
      <trkpt lat="47.45697" lon="0.93425">
        <ele>102</ele>
        <time>2020-07-11T20:24:26Z</time>
      </trkpt>
      <trkpt lat="47.45703" lon="0.93406">
        <ele>102</ele>
        <time>2020-07-11T20:24:29Z</time>
      </trkpt>
      <trkpt lat="47.45747" lon="0.9324">
        <ele>102</ele>
        <time>2020-07-11T20:24:50Z</time>
      </trkpt>
      <trkpt lat="47.45764" lon="0.93192">
        <ele>102</ele>
        <time>2020-07-11T20:24:57Z</time>
      </trkpt>
      <trkpt lat="47.45808" lon="0.93091">
        <ele>102</ele>
        <time>2020-07-11T20:25:11Z</time>
      </trkpt>
      <trkpt lat="47.45832" lon="0.93048">
        <ele>102</ele>
        <time>2020-07-11T20:25:18Z</time>
      </trkpt>
      <trkpt lat="47.45849" lon="0.93023">
        <ele>102</ele>
        <time>2020-07-11T20:25:22Z</time>
      </trkpt>
      <trkpt lat="47.45883" lon="0.92983">
        <ele>102</ele>
        <time>2020-07-11T20:25:30Z</time>
      </trkpt>
      <trkpt lat="47.45906" lon="0.9296">
        <ele>102</ele>
        <time>2020-07-11T20:25:35Z</time>
      </trkpt>
      <trkpt lat="47.46135" lon="0.92772">
        <ele>109</ele>
        <time>2020-07-11T20:26:21Z</time>
      </trkpt>
      <trkpt lat="47.46479" lon="0.92538">
        <ele>107</ele>
        <time>2020-07-11T20:27:29Z</time>
      </trkpt>
      <trkpt lat="47.46518" lon="0.92496">
        <ele>106</ele>
        <time>2020-07-11T20:27:37Z</time>
      </trkpt>
      <trkpt lat="47.46589" lon="0.9239">
        <ele>106</ele>
        <time>2020-07-11T20:27:55Z</time>
      </trkpt>
      <trkpt lat="47.46764" lon="0.92118">
        <ele>108</ele>
        <time>2020-07-11T20:28:40Z</time>
      </trkpt>
      <trkpt lat="47.46795" lon="0.92065">
        <ele>108</ele>
        <time>2020-07-11T20:28:49Z</time>
      </trkpt>
      <trkpt lat="47.46826" lon="0.92006">
        <ele>108</ele>
        <time>2020-07-11T20:28:58Z</time>
      </trkpt>
      <trkpt lat="47.46849" lon="0.91956">
        <ele>108</ele>
        <time>2020-07-11T20:29:05Z</time>
      </trkpt>
      <trkpt lat="47.46876" lon="0.91885">
        <ele>108</ele>
        <time>2020-07-11T20:29:15Z</time>
      </trkpt>
      <trkpt lat="47.46895" lon="0.91838">
        <ele>108</ele>
        <time>2020-07-11T20:29:21Z</time>
      </trkpt>
      <trkpt lat="47.46928" lon="0.91749">
        <ele>108</ele>
        <time>2020-07-11T20:29:34Z</time>
      </trkpt>
      <trkpt lat="47.46944" lon="0.91699">
        <ele>107</ele>
        <time>2020-07-11T20:29:40Z</time>
      </trkpt>
      <trkpt lat="47.46957" lon="0.91654">
        <ele>107</ele>
        <time>2020-07-11T20:29:46Z</time>
      </trkpt>
      <trkpt lat="47.47001" lon="0.91449">
        <ele>107</ele>
        <time>2020-07-11T20:30:12Z</time>
      </trkpt>
      <trkpt lat="47.4703" lon="0.91351">
        <ele>106</ele>
        <time>2020-07-11T20:30:25Z</time>
      </trkpt>
      <trkpt lat="47.47147" lon="0.91045">
        <ele>106</ele>
        <time>2020-07-11T20:31:07Z</time>
      </trkpt>
      <trkpt lat="47.47181" lon="0.90952">
        <ele>107</ele>
        <time>2020-07-11T20:31:20Z</time>
      </trkpt>
      <trkpt lat="47.47205" lon="0.90867">
        <ele>107</ele>
        <time>2020-07-11T20:31:31Z</time>
      </trkpt>
      <trkpt lat="47.47268" lon="0.90708">
        <ele>107</ele>
        <time>2020-07-11T20:31:53Z</time>
      </trkpt>
      <trkpt lat="47.47325" lon="0.90543">
        <ele>107</ele>
        <time>2020-07-11T20:32:16Z</time>
      </trkpt>
      <trkpt lat="47.47381" lon="0.90389">
        <ele>106</ele>
        <time>2020-07-11T20:32:37Z</time>
      </trkpt>
      <trkpt lat="47.474" lon="0.90341">
        <ele>105</ele>
        <time>2020-07-11T20:32:43Z</time>
      </trkpt>
      <trkpt lat="47.47451" lon="0.9026">
        <ele>108</ele>
        <time>2020-07-11T20:32:57Z</time>
      </trkpt>
      <trkpt lat="47.47477" lon="0.9023">
        <ele>108</ele>
        <time>2020-07-11T20:33:02Z</time>
      </trkpt>
      <trkpt lat="47.47494" lon="0.90212">
        <ele>109</ele>
        <time>2020-07-11T20:33:06Z</time>
      </trkpt>
      <trkpt lat="47.47547" lon="0.90174">
        <ele>109</ele>
        <time>2020-07-11T20:33:17Z</time>
      </trkpt>
      <trkpt lat="47.47565" lon="0.90158">
        <ele>108</ele>
        <time>2020-07-11T20:33:20Z</time>
      </trkpt>
      <trkpt lat="47.47755" lon="0.89919">
        <ele>106</ele>
        <time>2020-07-11T20:34:05Z</time>
      </trkpt>
      <trkpt lat="47.47775" lon="0.89898">
        <ele>105</ele>
        <time>2020-07-11T20:34:09Z</time>
      </trkpt>
      <trkpt lat="47.47946" lon="0.8974">
        <ele>104</ele>
        <time>2020-07-11T20:34:45Z</time>
      </trkpt>
      <trkpt lat="47.47968" lon="0.89727">
        <ele>104</ele>
        <time>2020-07-11T20:34:49Z</time>
      </trkpt>
      <trkpt lat="47.4799" lon="0.89721">
        <ele>105</ele>
        <time>2020-07-11T20:34:53Z</time>
      </trkpt>
      <trkpt lat="47.48007" lon="0.89721">
        <ele>105</ele>
        <time>2020-07-11T20:34:56Z</time>
      </trkpt>
      <trkpt lat="47.48052" lon="0.89738">
        <ele>106</ele>
        <time>2020-07-11T20:35:04Z</time>
      </trkpt>
      <trkpt lat="47.48119" lon="0.89757">
        <ele>104</ele>
        <time>2020-07-11T20:35:17Z</time>
      </trkpt>
      <trkpt lat="47.48134" lon="0.89756">
        <ele>103</ele>
        <time>2020-07-11T20:35:19Z</time>
      </trkpt>
      <trkpt lat="47.48153" lon="0.8975">
        <ele>102</ele>
        <time>2020-07-11T20:35:23Z</time>
      </trkpt>
      <trkpt lat="47.48166" lon="0.89739">
        <ele>101</ele>
        <time>2020-07-11T20:35:25Z</time>
      </trkpt>
      <trkpt lat="47.48202" lon="0.89687">
        <ele>100</ele>
        <time>2020-07-11T20:35:34Z</time>
      </trkpt>
      <trkpt lat="47.48261" lon="0.89611">
        <ele>93</ele>
        <time>2020-07-11T20:35:48Z</time>
      </trkpt>
      <trkpt lat="47.4827" lon="0.89587">
        <ele>91</ele>
        <time>2020-07-11T20:35:52Z</time>
      </trkpt>
      <trkpt lat="47.48287" lon="0.89525">
        <ele>85</ele>
        <time>2020-07-11T20:36:00Z</time>
      </trkpt>
      <trkpt lat="47.4829" lon="0.89504">
        <ele>83</ele>
        <time>2020-07-11T20:36:02Z</time>
      </trkpt>
      <trkpt lat="47.48289" lon="0.89472">
        <ele>80</ele>
        <time>2020-07-11T20:36:06Z</time>
      </trkpt>
      <trkpt lat="47.48287" lon="0.89458">
        <ele>79</ele>
        <time>2020-07-11T20:36:08Z</time>
      </trkpt>
      <trkpt lat="47.48279" lon="0.89433">
        <ele>78</ele>
        <time>2020-07-11T20:36:11Z</time>
      </trkpt>
      <trkpt lat="47.48268" lon="0.89414">
        <ele>78</ele>
        <time>2020-07-11T20:36:14Z</time>
      </trkpt>
      <trkpt lat="47.4822" lon="0.89351">
        <ele>76</ele>
        <time>2020-07-11T20:36:25Z</time>
      </trkpt>
      <trkpt lat="47.48156" lon="0.89273">
        <ele>77</ele>
        <time>2020-07-11T20:36:40Z</time>
      </trkpt>
      <trkpt lat="47.4804" lon="0.89124">
        <ele>74</ele>
        <time>2020-07-11T20:37:08Z</time>
      </trkpt>
      <trkpt lat="47.48031" lon="0.89102">
        <ele>73</ele>
        <time>2020-07-11T20:37:11Z</time>
      </trkpt>
      <trkpt lat="47.48029" lon="0.89084">
        <ele>71</ele>
        <time>2020-07-11T20:37:13Z</time>
      </trkpt>
      <trkpt lat="47.48032" lon="0.89059">
        <ele>70</ele>
        <time>2020-07-11T20:37:16Z</time>
      </trkpt>
      <trkpt lat="47.48071" lon="0.88914">
        <ele>67</ele>
        <time>2020-07-11T20:37:35Z</time>
      </trkpt>
      <trkpt lat="47.48083" lon="0.88864">
        <ele>66</ele>
        <time>2020-07-11T20:37:41Z</time>
      </trkpt>
      <trkpt lat="47.48095" lon="0.88816">
        <ele>66</ele>
        <time>2020-07-11T20:37:47Z</time>
      </trkpt>
      <trkpt lat="47.48103" lon="0.88784">
        <ele>65</ele>
        <time>2020-07-11T20:37:51Z</time>
      </trkpt>
      <trkpt lat="47.48125" lon="0.88695">
        <ele>65</ele>
        <time>2020-07-11T20:38:03Z</time>
      </trkpt>
      <trkpt lat="47.48141" lon="0.88624">
        <ele>66</ele>
        <time>2020-07-11T20:38:12Z</time>
      </trkpt>
      <trkpt lat="47.48144" lon="0.88599">
        <ele>67</ele>
        <time>2020-07-11T20:38:15Z</time>
      </trkpt>
      <trkpt lat="47.48147" lon="0.88542">
        <ele>67</ele>
        <time>2020-07-11T20:38:22Z</time>
      </trkpt>
      <trkpt lat="47.48154" lon="0.8851">
        <ele>68</ele>
        <time>2020-07-11T20:38:26Z</time>
      </trkpt>
      <trkpt lat="47.4817" lon="0.88455">
        <ele>69</ele>
        <time>2020-07-11T20:38:33Z</time>
      </trkpt>
      <trkpt lat="47.48235" lon="0.8825">
        <ele>73</ele>
        <time>2020-07-11T20:39:00Z</time>
      </trkpt>
      <trkpt lat="47.4824" lon="0.88232">
        <ele>73</ele>
        <time>2020-07-11T20:39:02Z</time>
      </trkpt>
      <trkpt lat="47.48251" lon="0.88156">
        <ele>74</ele>
        <time>2020-07-11T20:39:12Z</time>
      </trkpt>
      <trkpt lat="47.48265" lon="0.87941">
        <ele>82</ele>
        <time>2020-07-11T20:39:38Z</time>
      </trkpt>
      <trkpt lat="47.48264" lon="0.87909">
        <ele>83</ele>
        <time>2020-07-11T20:39:42Z</time>
      </trkpt>
      <trkpt lat="47.4826" lon="0.8786">
        <ele>82</ele>
        <time>2020-07-11T20:39:48Z</time>
      </trkpt>
      <trkpt lat="47.48246" lon="0.87757">
        <ele>82</ele>
        <time>2020-07-11T20:40:00Z</time>
      </trkpt>
      <trkpt lat="47.48224" lon="0.87658">
        <ele>85</ele>
        <time>2020-07-11T20:40:13Z</time>
      </trkpt>
      <trkpt lat="47.48218" lon="0.87607">
        <ele>86</ele>
        <time>2020-07-11T20:40:19Z</time>
      </trkpt>
      <trkpt lat="47.48221" lon="0.87552">
        <ele>86</ele>
        <time>2020-07-11T20:40:26Z</time>
      </trkpt>
      <trkpt lat="47.48249" lon="0.87356">
        <ele>88</ele>
        <time>2020-07-11T20:40:50Z</time>
      </trkpt>
      <trkpt lat="47.48259" lon="0.87276">
        <ele>89</ele>
        <time>2020-07-11T20:40:59Z</time>
      </trkpt>
      <trkpt lat="47.48263" lon="0.87256">
        <ele>89</ele>
        <time>2020-07-11T20:41:02Z</time>
      </trkpt>
      <trkpt lat="47.48268" lon="0.87241">
        <ele>89</ele>
        <time>2020-07-11T20:41:04Z</time>
      </trkpt>
      <trkpt lat="47.48308" lon="0.87146">
        <ele>87</ele>
        <time>2020-07-11T20:41:17Z</time>
      </trkpt>
      <trkpt lat="47.48317" lon="0.87119">
        <ele>86</ele>
        <time>2020-07-11T20:41:21Z</time>
      </trkpt>
      <trkpt lat="47.48324" lon="0.87091">
        <ele>85</ele>
        <time>2020-07-11T20:41:25Z</time>
      </trkpt>
      <trkpt lat="47.48329" lon="0.87046">
        <ele>84</ele>
        <time>2020-07-11T20:41:30Z</time>
      </trkpt>
      <trkpt lat="47.48329" lon="0.86982">
        <ele>83</ele>
        <time>2020-07-11T20:41:38Z</time>
      </trkpt>
      <trkpt lat="47.48333" lon="0.86951">
        <ele>82</ele>
        <time>2020-07-11T20:41:42Z</time>
      </trkpt>
      <trkpt lat="47.48355" lon="0.86882">
        <ele>83</ele>
        <time>2020-07-11T20:41:51Z</time>
      </trkpt>
      <trkpt lat="47.48379" lon="0.86822">
        <ele>83</ele>
        <time>2020-07-11T20:41:59Z</time>
      </trkpt>
      <trkpt lat="47.48395" lon="0.86771">
        <ele>84</ele>
        <time>2020-07-11T20:42:06Z</time>
      </trkpt>
      <trkpt lat="47.48402" lon="0.86712">
        <ele>85</ele>
        <time>2020-07-11T20:42:13Z</time>
      </trkpt>
      <trkpt lat="47.48404" lon="0.86667">
        <ele>86</ele>
        <time>2020-07-11T20:42:19Z</time>
      </trkpt>
      <trkpt lat="47.48399" lon="0.86623">
        <ele>88</ele>
        <time>2020-07-11T20:42:24Z</time>
      </trkpt>
      <trkpt lat="47.48389" lon="0.86569">
        <ele>90</ele>
        <time>2020-07-11T20:42:31Z</time>
      </trkpt>
      <trkpt lat="47.48384" lon="0.86532">
        <ele>92</ele>
        <time>2020-07-11T20:42:35Z</time>
      </trkpt>
      <trkpt lat="47.48383" lon="0.8651">
        <ele>92</ele>
        <time>2020-07-11T20:42:38Z</time>
      </trkpt>
      <trkpt lat="47.48383" lon="0.86491">
        <ele>92</ele>
        <time>2020-07-11T20:42:40Z</time>
      </trkpt>
      <trkpt lat="47.48389" lon="0.8645">
        <ele>91</ele>
        <time>2020-07-11T20:42:45Z</time>
      </trkpt>
      <trkpt lat="47.48393" lon="0.8643">
        <ele>91</ele>
        <time>2020-07-11T20:42:48Z</time>
      </trkpt>
      <trkpt lat="47.48402" lon="0.86402">
        <ele>90</ele>
        <time>2020-07-11T20:42:51Z</time>
      </trkpt>
      <trkpt lat="47.48469" lon="0.86254">
        <ele>88</ele>
        <time>2020-07-11T20:43:13Z</time>
      </trkpt>
      <trkpt lat="47.48481" lon="0.86219">
        <ele>87</ele>
        <time>2020-07-11T20:43:18Z</time>
      </trkpt>
      <trkpt lat="47.48487" lon="0.86194">
        <ele>87</ele>
        <time>2020-07-11T20:43:21Z</time>
      </trkpt>
      <trkpt lat="47.48493" lon="0.86161">
        <ele>87</ele>
        <time>2020-07-11T20:43:25Z</time>
      </trkpt>
      <trkpt lat="47.48494" lon="0.86135">
        <ele>87</ele>
        <time>2020-07-11T20:43:28Z</time>
      </trkpt>
      <trkpt lat="47.4848" lon="0.85967">
        <ele>92</ele>
        <time>2020-07-11T20:43:48Z</time>
      </trkpt>
      <trkpt lat="47.48472" lon="0.85784">
        <ele>94</ele>
        <time>2020-07-11T20:44:10Z</time>
      </trkpt>
      <trkpt lat="47.48465" lon="0.85694">
        <ele>95</ele>
        <time>2020-07-11T20:44:21Z</time>
      </trkpt>
      <trkpt lat="47.48446" lon="0.85527">
        <ele>99</ele>
        <time>2020-07-11T20:44:42Z</time>
      </trkpt>
      <trkpt lat="47.48435" lon="0.85419">
        <ele>105</ele>
        <time>2020-07-11T20:44:55Z</time>
      </trkpt>
      <trkpt lat="47.48435" lon="0.85383">
        <ele>105</ele>
        <time>2020-07-11T20:44:59Z</time>
      </trkpt>
      <trkpt lat="47.48438" lon="0.8534">
        <ele>104</ele>
        <time>2020-07-11T20:45:04Z</time>
      </trkpt>
      <trkpt lat="47.48461" lon="0.8514">
        <ele>108</ele>
        <time>2020-07-11T20:45:29Z</time>
      </trkpt>
      <trkpt lat="47.48466" lon="0.85085">
        <ele>109</ele>
        <time>2020-07-11T20:45:35Z</time>
      </trkpt>
      <trkpt lat="47.48483" lon="0.84801">
        <ele>118</ele>
        <time>2020-07-11T20:46:10Z</time>
      </trkpt>
      <trkpt lat="47.48492" lon="0.84734">
        <ele>119</ele>
        <time>2020-07-11T20:46:18Z</time>
      </trkpt>
      <trkpt lat="47.48546" lon="0.8436">
        <ele>116</ele>
        <time>2020-07-11T20:47:04Z</time>
      </trkpt>
      <trkpt lat="47.48553" lon="0.84326">
        <ele>116</ele>
        <time>2020-07-11T20:47:08Z</time>
      </trkpt>
      <trkpt lat="47.48569" lon="0.84267">
        <ele>116</ele>
        <time>2020-07-11T20:47:16Z</time>
      </trkpt>
      <trkpt lat="47.48578" lon="0.84243">
        <ele>116</ele>
        <time>2020-07-11T20:47:19Z</time>
      </trkpt>
      <trkpt lat="47.48699" lon="0.84029">
        <ele>117</ele>
        <time>2020-07-11T20:47:53Z</time>
      </trkpt>
      <trkpt lat="47.4895" lon="0.83591">
        <ele>124</ele>
        <time>2020-07-11T20:49:02Z</time>
      </trkpt>
      <trkpt lat="47.48968" lon="0.83556">
        <ele>125</ele>
        <time>2020-07-11T20:49:07Z</time>
      </trkpt>
      <trkpt lat="47.48978" lon="0.83527">
        <ele>125</ele>
        <time>2020-07-11T20:49:11Z</time>
      </trkpt>
      <trkpt lat="47.49025" lon="0.83357">
        <ele>126</ele>
        <time>2020-07-11T20:49:33Z</time>
      </trkpt>
      <trkpt lat="47.49043" lon="0.833">
        <ele>125</ele>
        <time>2020-07-11T20:49:41Z</time>
      </trkpt>
      <trkpt lat="47.49068" lon="0.83235">
        <ele>123</ele>
        <time>2020-07-11T20:49:50Z</time>
      </trkpt>
      <trkpt lat="47.49127" lon="0.83092">
        <ele>125</ele>
        <time>2020-07-11T20:50:10Z</time>
      </trkpt>
      <trkpt lat="47.49139" lon="0.83051">
        <ele>125</ele>
        <time>2020-07-11T20:50:15Z</time>
      </trkpt>
      <trkpt lat="47.49146" lon="0.82999">
        <ele>124</ele>
        <time>2020-07-11T20:50:21Z</time>
      </trkpt>
      <trkpt lat="47.49148" lon="0.82962">
        <ele>125</ele>
        <time>2020-07-11T20:50:26Z</time>
      </trkpt>
      <trkpt lat="47.49145" lon="0.82922">
        <ele>126</ele>
        <time>2020-07-11T20:50:31Z</time>
      </trkpt>
      <trkpt lat="47.49133" lon="0.82828">
        <ele>127</ele>
        <time>2020-07-11T20:50:42Z</time>
      </trkpt>
      <trkpt lat="47.49131" lon="0.8278">
        <ele>128</ele>
        <time>2020-07-11T20:50:48Z</time>
      </trkpt>
      <trkpt lat="47.49132" lon="0.82757">
        <ele>128</ele>
        <time>2020-07-11T20:50:51Z</time>
      </trkpt>
      <trkpt lat="47.49135" lon="0.8273">
        <ele>128</ele>
        <time>2020-07-11T20:50:54Z</time>
      </trkpt>
      <trkpt lat="47.49141" lon="0.8269">
        <ele>127</ele>
        <time>2020-07-11T20:50:59Z</time>
      </trkpt>
      <trkpt lat="47.49149" lon="0.82661">
        <ele>127</ele>
        <time>2020-07-11T20:51:03Z</time>
      </trkpt>
      <trkpt lat="47.49169" lon="0.82605">
        <ele>126</ele>
        <time>2020-07-11T20:51:10Z</time>
      </trkpt>
      <trkpt lat="47.49198" lon="0.82538">
        <ele>127</ele>
        <time>2020-07-11T20:51:20Z</time>
      </trkpt>
      <trkpt lat="47.49241" lon="0.82437">
        <ele>127</ele>
        <time>2020-07-11T20:51:34Z</time>
      </trkpt>
      <trkpt lat="47.49256" lon="0.82391">
        <ele>128</ele>
        <time>2020-07-11T20:51:40Z</time>
      </trkpt>
      <trkpt lat="47.49273" lon="0.82325">
        <ele>129</ele>
        <time>2020-07-11T20:51:49Z</time>
      </trkpt>
      <trkpt lat="47.49565" lon="0.81026">
        <ele>133</ele>
        <time>2020-07-11T20:54:33Z</time>
      </trkpt>
      <trkpt lat="47.4957" lon="0.80998">
        <ele>132</ele>
        <time>2020-07-11T20:54:37Z</time>
      </trkpt>
      <trkpt lat="47.49571" lon="0.80983">
        <ele>132</ele>
        <time>2020-07-11T20:54:39Z</time>
      </trkpt>
      <trkpt lat="47.49569" lon="0.80938">
        <ele>130</ele>
        <time>2020-07-11T20:54:44Z</time>
      </trkpt>
      <trkpt lat="47.49563" lon="0.80907">
        <ele>130</ele>
        <time>2020-07-11T20:54:48Z</time>
      </trkpt>
      <trkpt lat="47.49537" lon="0.8081">
        <ele>131</ele>
        <time>2020-07-11T20:55:01Z</time>
      </trkpt>
      <trkpt lat="47.49531" lon="0.80776">
        <ele>132</ele>
        <time>2020-07-11T20:55:05Z</time>
      </trkpt>
      <trkpt lat="47.49529" lon="0.80748">
        <ele>133</ele>
        <time>2020-07-11T20:55:08Z</time>
      </trkpt>
      <trkpt lat="47.49531" lon="0.80719">
        <ele>133</ele>
        <time>2020-07-11T20:55:12Z</time>
      </trkpt>
      <trkpt lat="47.49536" lon="0.80676">
        <ele>134</ele>
        <time>2020-07-11T20:55:17Z</time>
      </trkpt>
      <trkpt lat="47.49611" lon="0.80199">
        <ele>133</ele>
        <time>2020-07-11T20:56:16Z</time>
      </trkpt>
      <trkpt lat="47.49625" lon="0.8014">
        <ele>132</ele>
        <time>2020-07-11T20:56:23Z</time>
      </trkpt>
      <trkpt lat="47.49794" lon="0.79638">
        <ele>129</ele>
        <time>2020-07-11T20:57:31Z</time>
      </trkpt>
      <trkpt lat="47.49846" lon="0.79507">
        <ele>130</ele>
        <time>2020-07-11T20:57:49Z</time>
      </trkpt>
      <trkpt lat="47.49882" lon="0.79453">
        <ele>128</ele>
        <time>2020-07-11T20:57:58Z</time>
      </trkpt>
      <trkpt lat="47.49911" lon="0.79421">
        <ele>126</ele>
        <time>2020-07-11T20:58:05Z</time>
      </trkpt>
      <trkpt lat="47.49927" lon="0.79403">
        <ele>125</ele>
        <time>2020-07-11T20:58:08Z</time>
      </trkpt>
      <trkpt lat="47.4993" lon="0.79397">
        <ele>125</ele>
        <time>2020-07-11T20:58:09Z</time>
      </trkpt>
      <trkpt lat="47.49933" lon="0.79393">
        <ele>124</ele>
        <time>2020-07-11T20:58:10Z</time>
      </trkpt>
      <trkpt lat="47.4994" lon="0.79373">
        <ele>123</ele>
        <time>2020-07-11T20:58:13Z</time>
      </trkpt>
      <trkpt lat="47.49941" lon="0.79358">
        <ele>123</ele>
        <time>2020-07-11T20:58:14Z</time>
      </trkpt>
      <trkpt lat="47.4994" lon="0.79352">
        <ele>123</ele>
        <time>2020-07-11T20:58:15Z</time>
      </trkpt>
      <trkpt lat="47.49938" lon="0.79342">
        <ele>123</ele>
        <time>2020-07-11T20:58:16Z</time>
      </trkpt>
      <trkpt lat="47.49932" lon="0.79322">
        <ele>123</ele>
        <time>2020-07-11T20:58:19Z</time>
      </trkpt>
      <trkpt lat="47.49927" lon="0.79297">
        <ele>123</ele>
        <time>2020-07-11T20:58:22Z</time>
      </trkpt>
      <trkpt lat="47.49927" lon="0.79289">
        <ele>123</ele>
        <time>2020-07-11T20:58:23Z</time>
      </trkpt>
      <trkpt lat="47.4993" lon="0.79269">
        <ele>123</ele>
        <time>2020-07-11T20:58:26Z</time>
      </trkpt>
      <trkpt lat="47.49936" lon="0.79251">
        <ele>123</ele>
        <time>2020-07-11T20:58:28Z</time>
      </trkpt>
      <trkpt lat="47.49972" lon="0.79206">
        <ele>120</ele>
        <time>2020-07-11T20:58:36Z</time>
      </trkpt>
      <trkpt lat="47.50006" lon="0.79163">
        <ele>119</ele>
        <time>2020-07-11T20:58:44Z</time>
      </trkpt>
      <trkpt lat="47.50037" lon="0.79123">
        <ele>117</ele>
        <time>2020-07-11T20:58:52Z</time>
      </trkpt>
      <trkpt lat="47.5007" lon="0.7907">
        <ele>115</ele>
        <time>2020-07-11T20:59:00Z</time>
      </trkpt>
      <trkpt lat="47.5008" lon="0.79047">
        <ele>115</ele>
        <time>2020-07-11T20:59:04Z</time>
      </trkpt>
      <trkpt lat="47.50097" lon="0.79006">
        <ele>115</ele>
        <time>2020-07-11T20:59:09Z</time>
      </trkpt>
      <trkpt lat="47.50128" lon="0.78913">
        <ele>115</ele>
        <time>2020-07-11T20:59:22Z</time>
      </trkpt>
      <trkpt lat="47.50132" lon="0.78904">
        <ele>114</ele>
        <time>2020-07-11T20:59:23Z</time>
      </trkpt>
      <trkpt lat="47.50138" lon="0.7889">
        <ele>114</ele>
        <time>2020-07-11T20:59:25Z</time>
      </trkpt>
      <trkpt lat="47.50143" lon="0.78875">
        <ele>114</ele>
        <time>2020-07-11T20:59:27Z</time>
      </trkpt>
      <trkpt lat="47.50155" lon="0.7884">
        <ele>113</ele>
        <time>2020-07-11T20:59:32Z</time>
      </trkpt>
      <trkpt lat="47.50157" lon="0.78826">
        <ele>112</ele>
        <time>2020-07-11T20:59:34Z</time>
      </trkpt>
      <trkpt lat="47.50158" lon="0.78818">
        <ele>112</ele>
        <time>2020-07-11T20:59:34Z</time>
      </trkpt>
      <trkpt lat="47.50161" lon="0.78794">
        <ele>112</ele>
        <time>2020-07-11T20:59:37Z</time>
      </trkpt>
      <trkpt lat="47.50159" lon="0.78706">
        <ele>111</ele>
        <time>2020-07-11T20:59:48Z</time>
      </trkpt>
      <trkpt lat="47.50157" lon="0.78648">
        <ele>110</ele>
        <time>2020-07-11T20:59:55Z</time>
      </trkpt>
      <trkpt lat="47.50152" lon="0.78529">
        <ele>111</ele>
        <time>2020-07-11T21:00:09Z</time>
      </trkpt>
      <trkpt lat="47.50151" lon="0.78487">
        <ele>112</ele>
        <time>2020-07-11T21:00:14Z</time>
      </trkpt>
      <trkpt lat="47.50152" lon="0.78458">
        <ele>111</ele>
        <time>2020-07-11T21:00:18Z</time>
      </trkpt>
      <trkpt lat="47.5016" lon="0.78372">
        <ele>109</ele>
        <time>2020-07-11T21:00:28Z</time>
      </trkpt>
      <trkpt lat="47.50164" lon="0.78342">
        <ele>109</ele>
        <time>2020-07-11T21:00:32Z</time>
      </trkpt>
      <trkpt lat="47.50165" lon="0.7832">
        <ele>109</ele>
        <time>2020-07-11T21:00:35Z</time>
      </trkpt>
      <trkpt lat="47.50164" lon="0.78279">
        <ele>110</ele>
        <time>2020-07-11T21:00:40Z</time>
      </trkpt>
      <trkpt lat="47.50173" lon="0.78186">
        <ele>112</ele>
        <time>2020-07-11T21:00:51Z</time>
      </trkpt>
      <trkpt lat="47.50174" lon="0.78168">
        <ele>112</ele>
        <time>2020-07-11T21:00:53Z</time>
      </trkpt>
      <trkpt lat="47.50173" lon="0.78149">
        <ele>112</ele>
        <time>2020-07-11T21:00:55Z</time>
      </trkpt>
      <trkpt lat="47.5017" lon="0.78139">
        <ele>112</ele>
        <time>2020-07-11T21:00:57Z</time>
      </trkpt>
      <trkpt lat="47.50141" lon="0.78052">
        <ele>112</ele>
        <time>2020-07-11T21:01:08Z</time>
      </trkpt>
      <trkpt lat="47.50129" lon="0.78019">
        <ele>111</ele>
        <time>2020-07-11T21:01:13Z</time>
      </trkpt>
      <trkpt lat="47.50121" lon="0.78003">
        <ele>111</ele>
        <time>2020-07-11T21:01:15Z</time>
      </trkpt>
      <trkpt lat="47.50108" lon="0.77982">
        <ele>111</ele>
        <time>2020-07-11T21:01:19Z</time>
      </trkpt>
      <trkpt lat="47.50082" lon="0.77941">
        <ele>112</ele>
        <time>2020-07-11T21:01:25Z</time>
      </trkpt>
      <trkpt lat="47.50075" lon="0.77922">
        <ele>113</ele>
        <time>2020-07-11T21:01:28Z</time>
      </trkpt>
      <trkpt lat="47.50059" lon="0.77897">
        <ele>114</ele>
        <time>2020-07-11T21:01:32Z</time>
      </trkpt>
      <trkpt lat="47.50055" lon="0.77799">
        <ele>118</ele>
        <time>2020-07-11T21:01:44Z</time>
      </trkpt>
      <trkpt lat="47.50053" lon="0.77756">
        <ele>119</ele>
        <time>2020-07-11T21:01:49Z</time>
      </trkpt>
      <trkpt lat="47.5003" lon="0.77213">
        <ele>127</ele>
        <time>2020-07-11T21:02:54Z</time>
      </trkpt>
      <trkpt lat="47.50024" lon="0.77143">
        <ele>126</ele>
        <time>2020-07-11T21:03:03Z</time>
      </trkpt>
      <trkpt lat="47.50013" lon="0.77089">
        <ele>126</ele>
        <time>2020-07-11T21:03:10Z</time>
      </trkpt>
      <trkpt lat="47.50005" lon="0.77058">
        <ele>125</ele>
        <time>2020-07-11T21:03:14Z</time>
      </trkpt>
      <trkpt lat="47.49996" lon="0.77028">
        <ele>125</ele>
        <time>2020-07-11T21:03:18Z</time>
      </trkpt>
      <trkpt lat="47.4998" lon="0.76984">
        <ele>126</ele>
        <time>2020-07-11T21:03:24Z</time>
      </trkpt>
      <trkpt lat="47.49871" lon="0.76713">
        <ele>127</ele>
        <time>2020-07-11T21:04:02Z</time>
      </trkpt>
      <trkpt lat="47.49606" lon="0.76059">
        <ele>120</ele>
        <time>2020-07-11T21:05:33Z</time>
      </trkpt>
      <trkpt lat="47.49579" lon="0.75939">
        <ele>121</ele>
        <time>2020-07-11T21:05:48Z</time>
      </trkpt>
      <trkpt lat="47.49575" lon="0.75834">
        <ele>121</ele>
        <time>2020-07-11T21:06:01Z</time>
      </trkpt>
      <trkpt lat="47.49619" lon="0.74937">
        <ele>115</ele>
        <time>2020-07-11T21:07:49Z</time>
      </trkpt>
      <trkpt lat="47.4965" lon="0.74287">
        <ele>115</ele>
        <time>2020-07-11T21:09:08Z</time>
      </trkpt>
      <trkpt lat="47.4966" lon="0.74081">
        <ele>120</ele>
        <time>2020-07-11T21:09:32Z</time>
      </trkpt>
      <trkpt lat="47.49693" lon="0.73375">
        <ele>120</ele>
        <time>2020-07-11T21:10:57Z</time>
      </trkpt>
      <trkpt lat="47.49675" lon="0.73102">
        <ele>123</ele>
        <time>2020-07-11T21:11:30Z</time>
      </trkpt>
      <trkpt lat="47.49652" lon="0.72841">
        <ele>119</ele>
        <time>2020-07-11T21:12:02Z</time>
      </trkpt>
      <trkpt lat="47.49591" lon="0.72165">
        <ele>110</ele>
        <time>2020-07-11T21:13:24Z</time>
      </trkpt>
      <trkpt lat="47.49583" lon="0.72077">
        <ele>109</ele>
        <time>2020-07-11T21:13:35Z</time>
      </trkpt>
      <trkpt lat="47.4954" lon="0.71572">
        <ele>106</ele>
        <time>2020-07-11T21:14:36Z</time>
      </trkpt>
      <trkpt lat="47.49522" lon="0.71379">
        <ele>105</ele>
        <time>2020-07-11T21:14:59Z</time>
      </trkpt>
      <trkpt lat="47.49511" lon="0.71235">
        <ele>107</ele>
        <time>2020-07-11T21:15:17Z</time>
      </trkpt>
      <trkpt lat="47.49506" lon="0.71204">
        <ele>106</ele>
        <time>2020-07-11T21:15:21Z</time>
      </trkpt>
      <trkpt lat="47.49497" lon="0.71104">
        <ele>103</ele>
        <time>2020-07-11T21:15:33Z</time>
      </trkpt>
      <trkpt lat="47.49486" lon="0.70975">
        <ele>95</ele>
        <time>2020-07-11T21:15:48Z</time>
      </trkpt>
      <trkpt lat="47.49481" lon="0.70876">
        <ele>90</ele>
        <time>2020-07-11T21:16:00Z</time>
      </trkpt>
      <trkpt lat="47.4948" lon="0.70824">
        <ele>87</ele>
        <time>2020-07-11T21:16:07Z</time>
      </trkpt>
      <trkpt lat="47.49481" lon="0.70754">
        <ele>84</ele>
        <time>2020-07-11T21:16:15Z</time>
      </trkpt>
      <trkpt lat="47.49484" lon="0.70609">
        <ele>74</ele>
        <time>2020-07-11T21:16:32Z</time>
      </trkpt>
      <trkpt lat="47.49483" lon="0.70534">
        <ele>72</ele>
        <time>2020-07-11T21:16:41Z</time>
      </trkpt>
      <trkpt lat="47.4948" lon="0.70509">
        <ele>72</ele>
        <time>2020-07-11T21:16:45Z</time>
      </trkpt>
      <trkpt lat="47.49479" lon="0.70501">
        <ele>72</ele>
        <time>2020-07-11T21:16:45Z</time>
      </trkpt>
      <trkpt lat="47.49476" lon="0.70486">
        <ele>72</ele>
        <time>2020-07-11T21:16:47Z</time>
      </trkpt>
      <trkpt lat="47.49466" lon="0.70418">
        <ele>71</ele>
        <time>2020-07-11T21:16:56Z</time>
      </trkpt>
      <trkpt lat="47.49463" lon="0.70399">
        <ele>72</ele>
        <time>2020-07-11T21:16:58Z</time>
      </trkpt>
      <trkpt lat="47.49453" lon="0.70342">
        <ele>73</ele>
        <time>2020-07-11T21:17:05Z</time>
      </trkpt>
      <trkpt lat="47.49432" lon="0.70279">
        <ele>74</ele>
        <time>2020-07-11T21:17:14Z</time>
      </trkpt>
      <trkpt lat="47.49351" lon="0.70079">
        <ele>75</ele>
        <time>2020-07-11T21:17:42Z</time>
      </trkpt>
      <trkpt lat="47.49343" lon="0.70058">
        <ele>75</ele>
        <time>2020-07-11T21:17:45Z</time>
      </trkpt>
      <trkpt lat="47.49333" lon="0.70033">
        <ele>74</ele>
        <time>2020-07-11T21:17:48Z</time>
      </trkpt>
      <trkpt lat="47.49304" lon="0.6996">
        <ele>75</ele>
        <time>2020-07-11T21:17:58Z</time>
      </trkpt>
      <trkpt lat="47.4925" lon="0.69825">
        <ele>76</ele>
        <time>2020-07-11T21:18:17Z</time>
      </trkpt>
      <trkpt lat="47.49226" lon="0.69762">
        <ele>74</ele>
        <time>2020-07-11T21:18:26Z</time>
      </trkpt>
      <trkpt lat="47.49224" lon="0.69755">
        <ele>74</ele>
        <time>2020-07-11T21:18:27Z</time>
      </trkpt>
      <trkpt lat="47.49221" lon="0.69757">
        <ele>74</ele>
        <time>2020-07-11T21:18:27Z</time>
      </trkpt>
      <trkpt lat="47.49216" lon="0.6976">
        <ele>75</ele>
        <time>2020-07-11T21:18:28Z</time>
      </trkpt>
      <trkpt lat="47.49204" lon="0.69761">
        <ele>76</ele>
        <time>2020-07-11T21:18:30Z</time>
      </trkpt>
      <trkpt lat="47.49168" lon="0.69762">
        <ele>78</ele>
        <time>2020-07-11T21:18:37Z</time>
      </trkpt>
      <trkpt lat="47.49038" lon="0.69763">
        <ele>84</ele>
        <time>2020-07-11T21:19:00Z</time>
      </trkpt>
      <trkpt lat="47.49018" lon="0.69764">
        <ele>84</ele>
        <time>2020-07-11T21:19:03Z</time>
      </trkpt>
      <trkpt lat="47.48999" lon="0.69763">
        <ele>85</ele>
        <time>2020-07-11T21:19:07Z</time>
      </trkpt>
      <trkpt lat="47.48987" lon="0.69763">
        <ele>85</ele>
        <time>2020-07-11T21:19:09Z</time>
      </trkpt>
      <trkpt lat="47.48951" lon="0.69763">
        <ele>86</ele>
        <time>2020-07-11T21:19:15Z</time>
      </trkpt>
      <trkpt lat="47.48945" lon="0.69763">
        <ele>86</ele>
        <time>2020-07-11T21:19:16Z</time>
      </trkpt>
      <trkpt lat="47.48928" lon="0.69764">
        <ele>87</ele>
        <time>2020-07-11T21:19:19Z</time>
      </trkpt>
      <trkpt lat="47.48871" lon="0.69765">
        <ele>87</ele>
        <time>2020-07-11T21:19:30Z</time>
      </trkpt>
      <trkpt lat="47.48858" lon="0.69765">
        <ele>87</ele>
        <time>2020-07-11T21:19:32Z</time>
      </trkpt>
      <trkpt lat="47.48819" lon="0.69766">
        <ele>87</ele>
        <time>2020-07-11T21:19:39Z</time>
      </trkpt>
      <trkpt lat="47.488" lon="0.69765">
        <ele>88</ele>
        <time>2020-07-11T21:19:42Z</time>
      </trkpt>
      <trkpt lat="47.48756" lon="0.69764">
        <ele>89</ele>
        <time>2020-07-11T21:19:50Z</time>
      </trkpt>
      <trkpt lat="47.48748" lon="0.69763">
        <ele>89</ele>
        <time>2020-07-11T21:19:52Z</time>
      </trkpt>
      <trkpt lat="47.48591" lon="0.69732">
        <ele>87</ele>
        <time>2020-07-11T21:20:20Z</time>
      </trkpt>
      <trkpt lat="47.48435" lon="0.69702">
        <ele>83</ele>
        <time>2020-07-11T21:20:48Z</time>
      </trkpt>
      <trkpt lat="47.48405" lon="0.69696">
        <ele>83</ele>
        <time>2020-07-11T21:20:53Z</time>
      </trkpt>
      <trkpt lat="47.48173" lon="0.69651">
        <ele>83</ele>
        <time>2020-07-11T21:21:35Z</time>
      </trkpt>
      <trkpt lat="47.48145" lon="0.69648">
        <ele>83</ele>
        <time>2020-07-11T21:21:40Z</time>
      </trkpt>
      <trkpt lat="47.48113" lon="0.69645">
        <ele>84</ele>
        <time>2020-07-11T21:21:45Z</time>
      </trkpt>
      <trkpt lat="47.4808" lon="0.69644">
        <ele>85</ele>
        <time>2020-07-11T21:21:51Z</time>
      </trkpt>
      <trkpt lat="47.47992" lon="0.69649">
        <ele>89</ele>
        <time>2020-07-11T21:22:07Z</time>
      </trkpt>
      <trkpt lat="47.47955" lon="0.69649">
        <ele>90</ele>
        <time>2020-07-11T21:22:14Z</time>
      </trkpt>
      <trkpt lat="47.47925" lon="0.69647">
        <ele>91</ele>
        <time>2020-07-11T21:22:19Z</time>
      </trkpt>
      <trkpt lat="47.47871" lon="0.6964">
        <ele>90</ele>
        <time>2020-07-11T21:22:29Z</time>
      </trkpt>
      <trkpt lat="47.47813" lon="0.69629">
        <ele>89</ele>
        <time>2020-07-11T21:22:39Z</time>
      </trkpt>
      <trkpt lat="47.47779" lon="0.69619">
        <ele>89</ele>
        <time>2020-07-11T21:22:45Z</time>
      </trkpt>
      <trkpt lat="47.4774" lon="0.69607">
        <ele>89</ele>
        <time>2020-07-11T21:22:52Z</time>
      </trkpt>
      <trkpt lat="47.477" lon="0.69592">
        <ele>90</ele>
        <time>2020-07-11T21:23:00Z</time>
      </trkpt>
      <trkpt lat="47.47663" lon="0.69576">
        <ele>91</ele>
        <time>2020-07-11T21:23:06Z</time>
      </trkpt>
      <trkpt lat="47.47623" lon="0.69556">
        <ele>93</ele>
        <time>2020-07-11T21:23:14Z</time>
      </trkpt>
      <trkpt lat="47.4758" lon="0.69539">
        <ele>94</ele>
        <time>2020-07-11T21:23:22Z</time>
      </trkpt>
      <trkpt lat="47.4755" lon="0.69529">
        <ele>94</ele>
        <time>2020-07-11T21:23:27Z</time>
      </trkpt>
      <trkpt lat="47.47496" lon="0.69513">
        <ele>94</ele>
        <time>2020-07-11T21:23:37Z</time>
      </trkpt>
      <trkpt lat="47.47423" lon="0.69496">
        <ele>95</ele>
        <time>2020-07-11T21:23:50Z</time>
      </trkpt>
      <trkpt lat="47.47396" lon="0.69491">
        <ele>96</ele>
        <time>2020-07-11T21:23:55Z</time>
      </trkpt>
      <trkpt lat="47.47384" lon="0.69489">
        <ele>97</ele>
        <time>2020-07-11T21:23:57Z</time>
      </trkpt>
      <trkpt lat="47.47366" lon="0.69485">
        <ele>97</ele>
        <time>2020-07-11T21:24:00Z</time>
      </trkpt>
      <trkpt lat="47.47293" lon="0.69471">
        <ele>99</ele>
        <time>2020-07-11T21:24:14Z</time>
      </trkpt>
      <trkpt lat="47.47209" lon="0.69458">
        <ele>100</ele>
        <time>2020-07-11T21:24:29Z</time>
      </trkpt>
      <trkpt lat="47.4714" lon="0.69444">
        <ele>102</ele>
        <time>2020-07-11T21:24:41Z</time>
      </trkpt>
      <trkpt lat="47.47096" lon="0.69433">
        <ele>103</ele>
        <time>2020-07-11T21:24:49Z</time>
      </trkpt>
      <trkpt lat="47.47083" lon="0.6943">
        <ele>103</ele>
        <time>2020-07-11T21:24:51Z</time>
      </trkpt>
      <trkpt lat="47.47081" lon="0.69417">
        <ele>103</ele>
        <time>2020-07-11T21:24:53Z</time>
      </trkpt>
      <trkpt lat="47.47078" lon="0.69408">
        <ele>103</ele>
        <time>2020-07-11T21:24:54Z</time>
      </trkpt>
      <trkpt lat="47.47071" lon="0.694">
        <ele>103</ele>
        <time>2020-07-11T21:24:56Z</time>
      </trkpt>
      <trkpt lat="47.47061" lon="0.69397">
        <ele>102</ele>
        <time>2020-07-11T21:24:57Z</time>
      </trkpt>
      <trkpt lat="47.47059" lon="0.69378">
        <ele>102</ele>
        <time>2020-07-11T21:25:00Z</time>
      </trkpt>
      <trkpt lat="47.47055" lon="0.69356">
        <ele>102</ele>
        <time>2020-07-11T21:25:03Z</time>
      </trkpt>
      <trkpt lat="47.47044" lon="0.69312">
        <ele>102</ele>
        <time>2020-07-11T21:25:08Z</time>
      </trkpt>
      <trkpt lat="47.47023" lon="0.69247">
        <ele>102</ele>
        <time>2020-07-11T21:25:17Z</time>
      </trkpt>
      <trkpt lat="47.46999" lon="0.69179">
        <ele>102</ele>
        <time>2020-07-11T21:25:26Z</time>
      </trkpt>
      <trkpt lat="47.46873" lon="0.68839">
        <ele>98</ele>
        <time>2020-07-11T21:26:13Z</time>
      </trkpt>
      <trkpt lat="47.46848" lon="0.68777">
        <ele>99</ele>
        <time>2020-07-11T21:26:21Z</time>
      </trkpt>
      <trkpt lat="47.46788" lon="0.68634">
        <ele>100</ele>
        <time>2020-07-11T21:26:42Z</time>
      </trkpt>
      <trkpt lat="47.46743" lon="0.68536">
        <ele>99</ele>
        <time>2020-07-11T21:26:56Z</time>
      </trkpt>
      <trkpt lat="47.46718" lon="0.68482">
        <ele>98</ele>
        <time>2020-07-11T21:27:04Z</time>
      </trkpt>
      <trkpt lat="47.46687" lon="0.68428">
        <ele>98</ele>
        <time>2020-07-11T21:27:12Z</time>
      </trkpt>
      <trkpt lat="47.46534" lon="0.68189">
        <ele>93</ele>
        <time>2020-07-11T21:27:52Z</time>
      </trkpt>
      <trkpt lat="47.46516" lon="0.68156">
        <ele>93</ele>
        <time>2020-07-11T21:27:57Z</time>
      </trkpt>
      <trkpt lat="47.46201" lon="0.67537">
        <ele>91</ele>
        <time>2020-07-11T21:29:30Z</time>
      </trkpt>
      <trkpt lat="47.46145" lon="0.67415">
        <ele>90</ele>
        <time>2020-07-11T21:29:48Z</time>
      </trkpt>
      <trkpt lat="47.46115" lon="0.67358">
        <ele>89</ele>
        <time>2020-07-11T21:29:57Z</time>
      </trkpt>
      <trkpt lat="47.46104" lon="0.67339">
        <ele>89</ele>
        <time>2020-07-11T21:30:00Z</time>
      </trkpt>
      <trkpt lat="47.46084" lon="0.67314">
        <ele>89</ele>
        <time>2020-07-11T21:30:04Z</time>
      </trkpt>
      <trkpt lat="47.46053" lon="0.67288">
        <ele>89</ele>
        <time>2020-07-11T21:30:11Z</time>
      </trkpt>
      <trkpt lat="47.46045" lon="0.67279">
        <ele>89</ele>
        <time>2020-07-11T21:30:12Z</time>
      </trkpt>
      <trkpt lat="47.46042" lon="0.67274">
        <ele>89</ele>
        <time>2020-07-11T21:30:13Z</time>
      </trkpt>
      <trkpt lat="47.46041" lon="0.67264">
        <ele>88</ele>
        <time>2020-07-11T21:30:14Z</time>
      </trkpt>
      <trkpt lat="47.46027" lon="0.6727">
        <ele>89</ele>
        <time>2020-07-11T21:30:17Z</time>
      </trkpt>
      <trkpt lat="47.46002" lon="0.67274">
        <ele>91</ele>
        <time>2020-07-11T21:30:21Z</time>
      </trkpt>
      <trkpt lat="47.45954" lon="0.67265">
        <ele>92</ele>
        <time>2020-07-11T21:30:30Z</time>
      </trkpt>
      <trkpt lat="47.45934" lon="0.67263">
        <ele>92</ele>
        <time>2020-07-11T21:30:34Z</time>
      </trkpt>
      <trkpt lat="47.4584" lon="0.67281">
        <ele>92</ele>
        <time>2020-07-11T21:30:50Z</time>
      </trkpt>
      <trkpt lat="47.45834" lon="0.67258">
        <ele>92</ele>
        <time>2020-07-11T21:30:53Z</time>
      </trkpt>
      <trkpt lat="47.45827" lon="0.67243">
        <ele>92</ele>
        <time>2020-07-11T21:30:56Z</time>
      </trkpt>
      <trkpt lat="47.45715" lon="0.67075">
        <ele>91</ele>
        <time>2020-07-11T21:31:24Z</time>
      </trkpt>
      <trkpt lat="47.45603" lon="0.66891">
        <ele>90</ele>
        <time>2020-07-11T21:31:54Z</time>
      </trkpt>
      <trkpt lat="47.45509" lon="0.6674">
        <ele>91</ele>
        <time>2020-07-11T21:32:19Z</time>
      </trkpt>
      <trkpt lat="47.45489" lon="0.66702">
        <ele>91</ele>
        <time>2020-07-11T21:32:24Z</time>
      </trkpt>
      <trkpt lat="47.45414" lon="0.66542">
        <ele>90</ele>
        <time>2020-07-11T21:32:48Z</time>
      </trkpt>
      <trkpt lat="47.4538" lon="0.66482">
        <ele>89</ele>
        <time>2020-07-11T21:32:57Z</time>
      </trkpt>
      <trkpt lat="47.4534" lon="0.66402">
        <ele>90</ele>
        <time>2020-07-11T21:33:09Z</time>
      </trkpt>
      <trkpt lat="47.4529" lon="0.66294">
        <ele>90</ele>
        <time>2020-07-11T21:33:25Z</time>
      </trkpt>
      <trkpt lat="47.45273" lon="0.66247">
        <ele>90</ele>
        <time>2020-07-11T21:33:31Z</time>
      </trkpt>
      <trkpt lat="47.45261" lon="0.66205">
        <ele>91</ele>
        <time>2020-07-11T21:33:37Z</time>
      </trkpt>
      <trkpt lat="47.45239" lon="0.661">
        <ele>92</ele>
        <time>2020-07-11T21:33:50Z</time>
      </trkpt>
      <trkpt lat="47.45229" lon="0.66071">
        <ele>92</ele>
        <time>2020-07-11T21:33:54Z</time>
      </trkpt>
      <trkpt lat="47.4521" lon="0.66033">
        <ele>92</ele>
        <time>2020-07-11T21:34:00Z</time>
      </trkpt>
      <trkpt lat="47.45175" lon="0.65971">
        <ele>93</ele>
        <time>2020-07-11T21:34:09Z</time>
      </trkpt>
      <trkpt lat="47.45149" lon="0.6594">
        <ele>93</ele>
        <time>2020-07-11T21:34:15Z</time>
      </trkpt>
      <trkpt lat="47.45112" lon="0.65905">
        <ele>94</ele>
        <time>2020-07-11T21:34:23Z</time>
      </trkpt>
      <trkpt lat="47.44976" lon="0.65797">
        <ele>94</ele>
        <time>2020-07-11T21:34:51Z</time>
      </trkpt>
      <trkpt lat="47.44934" lon="0.65769">
        <ele>95</ele>
        <time>2020-07-11T21:34:59Z</time>
      </trkpt>
      <trkpt lat="47.4486" lon="0.65725">
        <ele>95</ele>
        <time>2020-07-11T21:35:13Z</time>
      </trkpt>
      <trkpt lat="47.44813" lon="0.65698">
        <ele>94</ele>
        <time>2020-07-11T21:35:22Z</time>
      </trkpt>
      <trkpt lat="47.44791" lon="0.65689">
        <ele>93</ele>
        <time>2020-07-11T21:35:26Z</time>
      </trkpt>
      <trkpt lat="47.44792" lon="0.65676">
        <ele>93</ele>
        <time>2020-07-11T21:35:28Z</time>
      </trkpt>
      <trkpt lat="47.44794" lon="0.65607">
        <ele>92</ele>
        <time>2020-07-11T21:35:36Z</time>
      </trkpt>
      <trkpt lat="47.44794" lon="0.65551">
        <ele>92</ele>
        <time>2020-07-11T21:35:43Z</time>
      </trkpt>
      <trkpt lat="47.44796" lon="0.6549">
        <ele>90</ele>
        <time>2020-07-11T21:35:50Z</time>
      </trkpt>
      <trkpt lat="47.44797" lon="0.65468">
        <ele>90</ele>
        <time>2020-07-11T21:35:53Z</time>
      </trkpt>
      <trkpt lat="47.44803" lon="0.65439">
        <ele>89</ele>
        <time>2020-07-11T21:35:56Z</time>
      </trkpt>
      <trkpt lat="47.44817" lon="0.65396">
        <ele>87</ele>
        <time>2020-07-11T21:36:02Z</time>
      </trkpt>
      <trkpt lat="47.44826" lon="0.65362">
        <ele>86</ele>
        <time>2020-07-11T21:36:06Z</time>
      </trkpt>
      <trkpt lat="47.44839" lon="0.65301">
        <ele>84</ele>
        <time>2020-07-11T21:36:14Z</time>
      </trkpt>
      <trkpt lat="47.44843" lon="0.65262">
        <ele>82</ele>
        <time>2020-07-11T21:36:19Z</time>
      </trkpt>
      <trkpt lat="47.44844" lon="0.65255">
        <ele>82</ele>
        <time>2020-07-11T21:36:20Z</time>
      </trkpt>
      <trkpt lat="47.44844" lon="0.65238">
        <ele>81</ele>
        <time>2020-07-11T21:36:22Z</time>
      </trkpt>
      <trkpt lat="47.44846" lon="0.65127">
        <ele>74</ele>
        <time>2020-07-11T21:36:35Z</time>
      </trkpt>
      <trkpt lat="47.44846" lon="0.65097">
        <ele>72</ele>
        <time>2020-07-11T21:36:39Z</time>
      </trkpt>
      <trkpt lat="47.44847" lon="0.65075">
        <ele>71</ele>
        <time>2020-07-11T21:36:41Z</time>
      </trkpt>
      <trkpt lat="47.44847" lon="0.65058">
        <ele>71</ele>
        <time>2020-07-11T21:36:43Z</time>
      </trkpt>
      <trkpt lat="47.44847" lon="0.65008">
        <ele>69</ele>
        <time>2020-07-11T21:36:49Z</time>
      </trkpt>
      <trkpt lat="47.44849" lon="0.64918">
        <ele>68</ele>
        <time>2020-07-11T21:37:00Z</time>
      </trkpt>
      <trkpt lat="47.44848" lon="0.6484">
        <ele>67</ele>
        <time>2020-07-11T21:37:10Z</time>
      </trkpt>
      <trkpt lat="47.44843" lon="0.64731">
        <ele>65</ele>
        <time>2020-07-11T21:37:23Z</time>
      </trkpt>
      <trkpt lat="47.44837" lon="0.64623">
        <ele>59</ele>
        <time>2020-07-11T21:37:36Z</time>
      </trkpt>
      <trkpt lat="47.44834" lon="0.64545">
        <ele>58</ele>
        <time>2020-07-11T21:37:45Z</time>
      </trkpt>
      <trkpt lat="47.44834" lon="0.64536">
        <ele>59</ele>
        <time>2020-07-11T21:37:46Z</time>
      </trkpt>
      <trkpt lat="47.44835" lon="0.64512">
        <ele>60</ele>
        <time>2020-07-11T21:37:49Z</time>
      </trkpt>
      <trkpt lat="47.44835" lon="0.64504">
        <ele>60</ele>
        <time>2020-07-11T21:37:50Z</time>
      </trkpt>
      <trkpt lat="47.44835" lon="0.6449">
        <ele>61</ele>
        <time>2020-07-11T21:37:52Z</time>
      </trkpt>
      <trkpt lat="47.44834" lon="0.64476">
        <ele>63</ele>
        <time>2020-07-11T21:37:54Z</time>
      </trkpt>
      <trkpt lat="47.44832" lon="0.64468">
        <ele>63</ele>
        <time>2020-07-11T21:37:55Z</time>
      </trkpt>
      <trkpt lat="47.4483" lon="0.64464">
        <ele>64</ele>
        <time>2020-07-11T21:37:55Z</time>
      </trkpt>
      <trkpt lat="47.44823" lon="0.64453">
        <ele>65</ele>
        <time>2020-07-11T21:37:57Z</time>
      </trkpt>
      <trkpt lat="47.4481" lon="0.64445">
        <ele>66</ele>
        <time>2020-07-11T21:37:59Z</time>
      </trkpt>
      <trkpt lat="47.44798" lon="0.64443">
        <ele>67</ele>
        <time>2020-07-11T21:38:02Z</time>
      </trkpt>
      <trkpt lat="47.44793" lon="0.64442">
        <ele>67</ele>
        <time>2020-07-11T21:38:03Z</time>
      </trkpt>
      <trkpt lat="47.4476" lon="0.64435">
        <ele>68</ele>
        <time>2020-07-11T21:38:08Z</time>
      </trkpt>
      <trkpt lat="47.44659" lon="0.64406">
        <ele>75</ele>
        <time>2020-07-11T21:38:27Z</time>
      </trkpt>
      <trkpt lat="47.44643" lon="0.64404">
        <ele>76</ele>
        <time>2020-07-11T21:38:30Z</time>
      </trkpt>
      <trkpt lat="47.4462" lon="0.64407">
        <ele>76</ele>
        <time>2020-07-11T21:38:34Z</time>
      </trkpt>
      <trkpt lat="47.44589" lon="0.64424">
        <ele>77</ele>
        <time>2020-07-11T21:38:40Z</time>
      </trkpt>
      <trkpt lat="47.44572" lon="0.6443">
        <ele>77</ele>
        <time>2020-07-11T21:38:43Z</time>
      </trkpt>
      <trkpt lat="47.44557" lon="0.64426">
        <ele>76</ele>
        <time>2020-07-11T21:38:45Z</time>
      </trkpt>
      <trkpt lat="47.44547" lon="0.64413">
        <ele>77</ele>
        <time>2020-07-11T21:38:48Z</time>
      </trkpt>
      <trkpt lat="47.44541" lon="0.64405">
        <ele>77</ele>
        <time>2020-07-11T21:38:49Z</time>
      </trkpt>
      <trkpt lat="47.44537" lon="0.64394">
        <ele>78</ele>
        <time>2020-07-11T21:38:51Z</time>
      </trkpt>
      <trkpt lat="47.44533" lon="0.64385">
        <ele>79</ele>
        <time>2020-07-11T21:38:52Z</time>
      </trkpt>
      <trkpt lat="47.44529" lon="0.64381">
        <ele>79</ele>
        <time>2020-07-11T21:38:53Z</time>
      </trkpt>
      <trkpt lat="47.44521" lon="0.64378">
        <ele>79</ele>
        <time>2020-07-11T21:38:54Z</time>
      </trkpt>
      <trkpt lat="47.44393" lon="0.64392">
        <ele>72</ele>
        <time>2020-07-11T21:39:17Z</time>
      </trkpt>
      <trkpt lat="47.4438" lon="0.64389">
        <ele>71</ele>
        <time>2020-07-11T21:39:20Z</time>
      </trkpt>
      <trkpt lat="47.44372" lon="0.64385">
        <ele>70</ele>
        <time>2020-07-11T21:39:21Z</time>
      </trkpt>
      <trkpt lat="47.44365" lon="0.64381">
        <ele>70</ele>
        <time>2020-07-11T21:39:22Z</time>
      </trkpt>
      <trkpt lat="47.44171" lon="0.64167">
        <ele>60</ele>
        <time>2020-07-11T21:40:05Z</time>
      </trkpt>
      <trkpt lat="47.44123" lon="0.64111">
        <ele>62</ele>
        <time>2020-07-11T21:40:16Z</time>
      </trkpt>
      <trkpt lat="47.44103" lon="0.64079">
        <ele>62</ele>
        <time>2020-07-11T21:40:22Z</time>
      </trkpt>
      <trkpt lat="47.44096" lon="0.64064">
        <ele>61</ele>
        <time>2020-07-11T21:40:24Z</time>
      </trkpt>
      <trkpt lat="47.44093" lon="0.64054">
        <ele>62</ele>
        <time>2020-07-11T21:40:25Z</time>
      </trkpt>
      <trkpt lat="47.4408" lon="0.64021">
        <ele>62</ele>
        <time>2020-07-11T21:40:30Z</time>
      </trkpt>
      <trkpt lat="47.44073" lon="0.64004">
        <ele>62</ele>
        <time>2020-07-11T21:40:32Z</time>
      </trkpt>
      <trkpt lat="47.44069" lon="0.63995">
        <ele>62</ele>
        <time>2020-07-11T21:40:33Z</time>
      </trkpt>
      <trkpt lat="47.44063" lon="0.63987">
        <ele>62</ele>
        <time>2020-07-11T21:40:35Z</time>
      </trkpt>
      <trkpt lat="47.44056" lon="0.63979">
        <ele>62</ele>
        <time>2020-07-11T21:40:36Z</time>
      </trkpt>
      <trkpt lat="47.44049" lon="0.63975">
        <ele>61</ele>
        <time>2020-07-11T21:40:38Z</time>
      </trkpt>
      <trkpt lat="47.44038" lon="0.6397">
        <ele>61</ele>
        <time>2020-07-11T21:40:40Z</time>
      </trkpt>
      <trkpt lat="47.44019" lon="0.63967">
        <ele>60</ele>
        <time>2020-07-11T21:40:43Z</time>
      </trkpt>
      <trkpt lat="47.44005" lon="0.6396">
        <ele>60</ele>
        <time>2020-07-11T21:40:46Z</time>
      </trkpt>
      <trkpt lat="47.44001" lon="0.63956">
        <ele>60</ele>
        <time>2020-07-11T21:40:47Z</time>
      </trkpt>
      <trkpt lat="47.43998" lon="0.63947">
        <ele>60</ele>
        <time>2020-07-11T21:40:48Z</time>
      </trkpt>
      <trkpt lat="47.43997" lon="0.63936">
        <ele>61</ele>
        <time>2020-07-11T21:40:49Z</time>
      </trkpt>
      <trkpt lat="47.44026" lon="0.63837">
        <ele>61</ele>
        <time>2020-07-11T21:41:02Z</time>
      </trkpt>
      <trkpt lat="47.44012" lon="0.63845">
        <ele>61</ele>
        <time>2020-07-11T21:41:05Z</time>
      </trkpt>
      <trkpt lat="47.44007" lon="0.63845">
        <ele>61</ele>
        <time>2020-07-11T21:41:06Z</time>
      </trkpt>
      <trkpt lat="47.43997" lon="0.63846">
        <ele>61</ele>
        <time>2020-07-11T21:41:08Z</time>
      </trkpt>
      <trkpt lat="47.43986" lon="0.63845">
        <ele>61</ele>
        <time>2020-07-11T21:41:09Z</time>
      </trkpt>
      <trkpt lat="47.43935" lon="0.63844">
        <ele>62</ele>
        <time>2020-07-11T21:41:19Z</time>
      </trkpt>
      <trkpt lat="47.43885" lon="0.63841">
        <ele>63</ele>
        <time>2020-07-11T21:41:27Z</time>
      </trkpt>
      <trkpt lat="47.43878" lon="0.63841">
        <ele>63</ele>
        <time>2020-07-11T21:41:29Z</time>
      </trkpt>
      <trkpt lat="47.43859" lon="0.63848">
        <ele>63</ele>
        <time>2020-07-11T21:41:32Z</time>
      </trkpt>
      <trkpt lat="47.43857" lon="0.63849">
        <ele>63</ele>
        <time>2020-07-11T21:41:33Z</time>
      </trkpt>
      <trkpt lat="47.43841" lon="0.63856">
        <ele>63</ele>
        <time>2020-07-11T21:41:36Z</time>
      </trkpt>
      <trkpt lat="47.43838" lon="0.63858">
        <ele>63</ele>
        <time>2020-07-11T21:41:36Z</time>
      </trkpt>
      <trkpt lat="47.43822" lon="0.63866">
        <ele>63</ele>
        <time>2020-07-11T21:41:39Z</time>
      </trkpt>
      <trkpt lat="47.43784" lon="0.63888">
        <ele>61</ele>
        <time>2020-07-11T21:41:46Z</time>
      </trkpt>
      <trkpt lat="47.43781" lon="0.63889">
        <ele>61</ele>
        <time>2020-07-11T21:41:47Z</time>
      </trkpt>
      <trkpt lat="47.4376" lon="0.63901">
        <ele>60</ele>
        <time>2020-07-11T21:41:51Z</time>
      </trkpt>
      <trkpt lat="47.43758" lon="0.63902">
        <ele>60</ele>
        <time>2020-07-11T21:41:51Z</time>
      </trkpt>
      <trkpt lat="47.43741" lon="0.63912">
        <ele>60</ele>
        <time>2020-07-11T21:41:55Z</time>
      </trkpt>
      <trkpt lat="47.43708" lon="0.63789">
        <ele>60</ele>
        <time>2020-07-11T21:42:10Z</time>
      </trkpt>
      <trkpt lat="47.437" lon="0.63768">
        <ele>60</ele>
        <time>2020-07-11T21:42:13Z</time>
      </trkpt>
      <trkpt lat="47.43668" lon="0.63817">
        <ele>58</ele>
        <time>2020-07-11T21:42:22Z</time>
      </trkpt>
      <trkpt lat="47.43643" lon="0.63836">
        <ele>58</ele>
        <time>2020-07-11T21:42:27Z</time>
      </trkpt>
      <trkpt lat="47.43641" lon="0.63833">
        <ele>58</ele>
        <time>2020-07-11T21:42:27Z</time>
      </trkpt>
      <trkpt lat="47.4364" lon="0.63831">
        <ele>58</ele>
        <time>2020-07-11T21:42:27Z</time>
      </trkpt>
      <trkpt lat="47.43638" lon="0.63831">
        <ele>58</ele>
        <time>2020-07-11T21:42:28Z</time>
      </trkpt>
      <trkpt lat="47.43637" lon="0.63826">
        <ele>58</ele>
        <time>2020-07-11T21:42:28Z</time>
      </trkpt>
      <trkpt lat="47.43617" lon="0.63783">
        <ele>58</ele>
        <time>2020-07-11T21:42:35Z</time>
      </trkpt>
      <trkpt lat="47.43614" lon="0.63779">
        <ele>57</ele>
        <time>2020-07-11T21:42:35Z</time>
      </trkpt>
      <trkpt lat="47.43611" lon="0.63773">
        <ele>57</ele>
        <time>2020-07-11T21:42:36Z</time>
      </trkpt>
      <trkpt lat="47.43583" lon="0.63722">
        <ele>58</ele>
        <time>2020-07-11T21:42:44Z</time>
      </trkpt>
      <trkpt lat="47.43571" lon="0.63701">
        <ele>59</ele>
        <time>2020-07-11T21:42:47Z</time>
      </trkpt>
      <trkpt lat="47.43564" lon="0.6369">
        <ele>60</ele>
        <time>2020-07-11T21:42:49Z</time>
      </trkpt>
      <trkpt lat="47.43557" lon="0.63683">
        <ele>60</ele>
        <time>2020-07-11T21:42:51Z</time>
      </trkpt>
      <trkpt lat="47.43542" lon="0.63671">
        <ele>61</ele>
        <time>2020-07-11T21:42:54Z</time>
      </trkpt>
      <trkpt lat="47.43531" lon="0.63662">
        <ele>62</ele>
        <time>2020-07-11T21:42:56Z</time>
      </trkpt>
      <trkpt lat="47.43502" lon="0.63639">
        <ele>65</ele>
        <time>2020-07-11T21:43:02Z</time>
      </trkpt>
      <trkpt lat="47.43478" lon="0.63624">
        <ele>66</ele>
        <time>2020-07-11T21:43:07Z</time>
      </trkpt>
      <trkpt lat="47.43455" lon="0.63616">
        <ele>66</ele>
        <time>2020-07-11T21:43:11Z</time>
      </trkpt>
      <trkpt lat="47.43434" lon="0.63616">
        <ele>65</ele>
        <time>2020-07-11T21:43:15Z</time>
      </trkpt>
      <trkpt lat="47.43417" lon="0.6362">
        <ele>63</ele>
        <time>2020-07-11T21:43:18Z</time>
      </trkpt>
      <trkpt lat="47.43399" lon="0.63624">
        <ele>62</ele>
        <time>2020-07-11T21:43:21Z</time>
      </trkpt>
      <trkpt lat="47.43339" lon="0.63637">
        <ele>60</ele>
        <time>2020-07-11T21:43:32Z</time>
      </trkpt>
      <trkpt lat="47.43284" lon="0.63652">
        <ele>64</ele>
        <time>2020-07-11T21:43:42Z</time>
      </trkpt>
      <trkpt lat="47.43251" lon="0.63669">
        <ele>66</ele>
        <time>2020-07-11T21:43:48Z</time>
      </trkpt>
      <trkpt lat="47.43233" lon="0.63678">
        <ele>65</ele>
        <time>2020-07-11T21:43:51Z</time>
      </trkpt>
      <trkpt lat="47.43197" lon="0.63703">
        <ele>64</ele>
        <time>2020-07-11T21:43:58Z</time>
      </trkpt>
      <trkpt lat="47.43184" lon="0.63708">
        <ele>64</ele>
        <time>2020-07-11T21:44:01Z</time>
      </trkpt>
      <trkpt lat="47.43171" lon="0.63708">
        <ele>64</ele>
        <time>2020-07-11T21:44:03Z</time>
      </trkpt>
      <trkpt lat="47.43162" lon="0.63703">
        <ele>65</ele>
        <time>2020-07-11T21:44:05Z</time>
      </trkpt>
      <trkpt lat="47.43152" lon="0.63694">
        <ele>65</ele>
        <time>2020-07-11T21:44:07Z</time>
      </trkpt>
      <trkpt lat="47.43111" lon="0.63637">
        <ele>67</ele>
        <time>2020-07-11T21:44:17Z</time>
      </trkpt>
      <trkpt lat="47.431" lon="0.6362">
        <ele>68</ele>
        <time>2020-07-11T21:44:20Z</time>
      </trkpt>
      <trkpt lat="47.43091" lon="0.63601">
        <ele>68</ele>
        <time>2020-07-11T21:44:22Z</time>
      </trkpt>
      <trkpt lat="47.43078" lon="0.63563">
        <ele>70</ele>
        <time>2020-07-11T21:44:27Z</time>
      </trkpt>
      <trkpt lat="47.43053" lon="0.63481">
        <ele>72</ele>
        <time>2020-07-11T21:44:38Z</time>
      </trkpt>
      <trkpt lat="47.43041" lon="0.63432">
        <ele>70</ele>
        <time>2020-07-11T21:44:45Z</time>
      </trkpt>
      <trkpt lat="47.4304" lon="0.63399">
        <ele>69</ele>
        <time>2020-07-11T21:44:49Z</time>
      </trkpt>
      <trkpt lat="47.43045" lon="0.63366">
        <ele>67</ele>
        <time>2020-07-11T21:44:53Z</time>
      </trkpt>
      <trkpt lat="47.43052" lon="0.63346">
        <ele>66</ele>
        <time>2020-07-11T21:44:55Z</time>
      </trkpt>
      <trkpt lat="47.43062" lon="0.63326">
        <ele>67</ele>
        <time>2020-07-11T21:44:58Z</time>
      </trkpt>
      <trkpt lat="47.43131" lon="0.63217">
        <ele>66</ele>
        <time>2020-07-11T21:45:16Z</time>
      </trkpt>
      <trkpt lat="47.4314" lon="0.63192">
        <ele>64</ele>
        <time>2020-07-11T21:45:20Z</time>
      </trkpt>
      <trkpt lat="47.43143" lon="0.63174">
        <ele>62</ele>
        <time>2020-07-11T21:45:22Z</time>
      </trkpt>
      <trkpt lat="47.43142" lon="0.63163">
        <ele>61</ele>
        <time>2020-07-11T21:45:23Z</time>
      </trkpt>
      <trkpt lat="47.43139" lon="0.63149">
        <ele>60</ele>
        <time>2020-07-11T21:45:25Z</time>
      </trkpt>
      <trkpt lat="47.43134" lon="0.63137">
        <ele>60</ele>
        <time>2020-07-11T21:45:27Z</time>
      </trkpt>
      <trkpt lat="47.43122" lon="0.63115">
        <ele>60</ele>
        <time>2020-07-11T21:45:30Z</time>
      </trkpt>
      <trkpt lat="47.43121" lon="0.63112">
        <ele>59</ele>
        <time>2020-07-11T21:45:31Z</time>
      </trkpt>
      <trkpt lat="47.43111" lon="0.63094">
        <ele>59</ele>
        <time>2020-07-11T21:45:33Z</time>
      </trkpt>
      <trkpt lat="47.43094" lon="0.63063">
        <ele>60</ele>
        <time>2020-07-11T21:45:38Z</time>
      </trkpt>
      <trkpt lat="47.43076" lon="0.63026">
        <ele>62</ele>
        <time>2020-07-11T21:45:44Z</time>
      </trkpt>
      <trkpt lat="47.43072" lon="0.63012">
        <ele>63</ele>
        <time>2020-07-11T21:45:45Z</time>
      </trkpt>
      <trkpt lat="47.43068" lon="0.62999">
        <ele>64</ele>
        <time>2020-07-11T21:45:47Z</time>
      </trkpt>
      <trkpt lat="47.43067" lon="0.62983">
        <ele>65</ele>
        <time>2020-07-11T21:45:49Z</time>
      </trkpt>
      <trkpt lat="47.43066" lon="0.62967">
        <ele>65</ele>
        <time>2020-07-11T21:45:51Z</time>
      </trkpt>
      <trkpt lat="47.43068" lon="0.62946">
        <ele>66</ele>
        <time>2020-07-11T21:45:54Z</time>
      </trkpt>
      <trkpt lat="47.43075" lon="0.62912">
        <ele>67</ele>
        <time>2020-07-11T21:45:58Z</time>
      </trkpt>
      <trkpt lat="47.43129" lon="0.62734">
        <ele>72</ele>
        <time>2020-07-11T21:46:21Z</time>
      </trkpt>
      <trkpt lat="47.4317" lon="0.6259">
        <ele>73</ele>
        <time>2020-07-11T21:46:40Z</time>
      </trkpt>
      <trkpt lat="47.43173" lon="0.6257">
        <ele>74</ele>
        <time>2020-07-11T21:46:43Z</time>
      </trkpt>
      <trkpt lat="47.43172" lon="0.62541">
        <ele>75</ele>
        <time>2020-07-11T21:46:46Z</time>
      </trkpt>
      <trkpt lat="47.43166" lon="0.62523">
        <ele>76</ele>
        <time>2020-07-11T21:46:49Z</time>
      </trkpt>
      <trkpt lat="47.43118" lon="0.62426">
        <ele>80</ele>
        <time>2020-07-11T21:47:03Z</time>
      </trkpt>
      <trkpt lat="47.43096" lon="0.62389">
        <ele>82</ele>
        <time>2020-07-11T21:47:09Z</time>
      </trkpt>
      <trkpt lat="47.43093" lon="0.62387">
        <ele>82</ele>
        <time>2020-07-11T21:47:10Z</time>
      </trkpt>
      <trkpt lat="47.43029" lon="0.62333">
        <ele>84</ele>
        <time>2020-07-11T21:47:23Z</time>
      </trkpt>
      <trkpt lat="47.43006" lon="0.62313">
        <ele>85</ele>
        <time>2020-07-11T21:47:27Z</time>
      </trkpt>
      <trkpt lat="47.42999" lon="0.62307">
        <ele>86</ele>
        <time>2020-07-11T21:47:29Z</time>
      </trkpt>
      <trkpt lat="47.42952" lon="0.62268">
        <ele>87</ele>
        <time>2020-07-11T21:47:38Z</time>
      </trkpt>
      <trkpt lat="47.42936" lon="0.62256">
        <ele>87</ele>
        <time>2020-07-11T21:47:42Z</time>
      </trkpt>
      <trkpt lat="47.42917" lon="0.62245">
        <ele>87</ele>
        <time>2020-07-11T21:47:45Z</time>
      </trkpt>
      <trkpt lat="47.42824" lon="0.62199">
        <ele>86</ele>
        <time>2020-07-11T21:48:03Z</time>
      </trkpt>
      <trkpt lat="47.42789" lon="0.62178">
        <ele>86</ele>
        <time>2020-07-11T21:48:09Z</time>
      </trkpt>
      <trkpt lat="47.4269" lon="0.62091">
        <ele>88</ele>
        <time>2020-07-11T21:48:30Z</time>
      </trkpt>
      <trkpt lat="47.42668" lon="0.62068">
        <ele>89</ele>
        <time>2020-07-11T21:48:35Z</time>
      </trkpt>
      <trkpt lat="47.4266" lon="0.62061">
        <ele>89</ele>
        <time>2020-07-11T21:48:36Z</time>
      </trkpt>
      <trkpt lat="47.42643" lon="0.62036">
        <ele>90</ele>
        <time>2020-07-11T21:48:41Z</time>
      </trkpt>
      <trkpt lat="47.42586" lon="0.61943">
        <ele>90</ele>
        <time>2020-07-11T21:48:56Z</time>
      </trkpt>
      <trkpt lat="47.4257" lon="0.6192">
        <ele>90</ele>
        <time>2020-07-11T21:49:00Z</time>
      </trkpt>
      <trkpt lat="47.42555" lon="0.61901">
        <ele>90</ele>
        <time>2020-07-11T21:49:03Z</time>
      </trkpt>
      <trkpt lat="47.42546" lon="0.61892">
        <ele>90</ele>
        <time>2020-07-11T21:49:05Z</time>
      </trkpt>
      <trkpt lat="47.42519" lon="0.61865">
        <ele>90</ele>
        <time>2020-07-11T21:49:11Z</time>
      </trkpt>
      <trkpt lat="47.42457" lon="0.61814">
        <ele>89</ele>
        <time>2020-07-11T21:49:24Z</time>
      </trkpt>
      <trkpt lat="47.42451" lon="0.6181">
        <ele>89</ele>
        <time>2020-07-11T21:49:25Z</time>
      </trkpt>
      <trkpt lat="47.4243" lon="0.61802">
        <ele>89</ele>
        <time>2020-07-11T21:49:29Z</time>
      </trkpt>
      <trkpt lat="47.42329" lon="0.61799">
        <ele>86</ele>
        <time>2020-07-11T21:49:47Z</time>
      </trkpt>
      <trkpt lat="47.42318" lon="0.61795">
        <ele>86</ele>
        <time>2020-07-11T21:49:49Z</time>
      </trkpt>
      <trkpt lat="47.42307" lon="0.61789">
        <ele>86</ele>
        <time>2020-07-11T21:49:51Z</time>
      </trkpt>
      <trkpt lat="47.42297" lon="0.6178">
        <ele>85</ele>
        <time>2020-07-11T21:49:53Z</time>
      </trkpt>
      <trkpt lat="47.42287" lon="0.61768">
        <ele>85</ele>
        <time>2020-07-11T21:49:55Z</time>
      </trkpt>
      <trkpt lat="47.42263" lon="0.61728">
        <ele>84</ele>
        <time>2020-07-11T21:50:01Z</time>
      </trkpt>
      <trkpt lat="47.4225" lon="0.61706">
        <ele>84</ele>
        <time>2020-07-11T21:50:05Z</time>
      </trkpt>
      <trkpt lat="47.42246" lon="0.61701">
        <ele>84</ele>
        <time>2020-07-11T21:50:06Z</time>
      </trkpt>
      <trkpt lat="47.42242" lon="0.61696">
        <ele>84</ele>
        <time>2020-07-11T21:50:07Z</time>
      </trkpt>
      <trkpt lat="47.4222" lon="0.61666">
        <ele>85</ele>
        <time>2020-07-11T21:50:12Z</time>
      </trkpt>
      <trkpt lat="47.422" lon="0.6164">
        <ele>86</ele>
        <time>2020-07-11T21:50:17Z</time>
      </trkpt>
      <trkpt lat="47.42179" lon="0.61618">
        <ele>87</ele>
        <time>2020-07-11T21:50:22Z</time>
      </trkpt>
      <trkpt lat="47.42138" lon="0.61584">
        <ele>89</ele>
        <time>2020-07-11T21:50:30Z</time>
      </trkpt>
      <trkpt lat="47.42121" lon="0.61573">
        <ele>89</ele>
        <time>2020-07-11T21:50:33Z</time>
      </trkpt>
      <trkpt lat="47.42105" lon="0.61566">
        <ele>90</ele>
        <time>2020-07-11T21:50:36Z</time>
      </trkpt>
      <trkpt lat="47.42043" lon="0.61553">
        <ele>90</ele>
        <time>2020-07-11T21:50:47Z</time>
      </trkpt>
      <trkpt lat="47.41971" lon="0.61532">
        <ele>88</ele>
        <time>2020-07-11T21:51:00Z</time>
      </trkpt>
      <trkpt lat="47.41948" lon="0.61518">
        <ele>87</ele>
        <time>2020-07-11T21:51:05Z</time>
      </trkpt>
      <trkpt lat="47.41943" lon="0.61514">
        <ele>87</ele>
        <time>2020-07-11T21:51:06Z</time>
      </trkpt>
      <trkpt lat="47.41938" lon="0.61508">
        <ele>86</ele>
        <time>2020-07-11T21:51:07Z</time>
      </trkpt>
      <trkpt lat="47.41934" lon="0.61503">
        <ele>86</ele>
        <time>2020-07-11T21:51:08Z</time>
      </trkpt>
      <trkpt lat="47.41921" lon="0.61479">
        <ele>86</ele>
        <time>2020-07-11T21:51:12Z</time>
      </trkpt>
      <trkpt lat="47.41883" lon="0.6139">
        <ele>88</ele>
        <time>2020-07-11T21:51:24Z</time>
      </trkpt>
      <trkpt lat="47.41866" lon="0.61342">
        <ele>89</ele>
        <time>2020-07-11T21:51:31Z</time>
      </trkpt>
      <trkpt lat="47.41823" lon="0.61215">
        <ele>89</ele>
        <time>2020-07-11T21:51:48Z</time>
      </trkpt>
      <trkpt lat="47.41814" lon="0.61192">
        <ele>89</ele>
        <time>2020-07-11T21:51:51Z</time>
      </trkpt>
      <trkpt lat="47.41796" lon="0.61152">
        <ele>90</ele>
        <time>2020-07-11T21:51:57Z</time>
      </trkpt>
      <trkpt lat="47.4166" lon="0.609">
        <ele>92</ele>
        <time>2020-07-11T21:52:36Z</time>
      </trkpt>
      <trkpt lat="47.41652" lon="0.60882">
        <ele>92</ele>
        <time>2020-07-11T21:52:38Z</time>
      </trkpt>
      <trkpt lat="47.41645" lon="0.60867">
        <ele>93</ele>
        <time>2020-07-11T21:52:40Z</time>
      </trkpt>
      <trkpt lat="47.41634" lon="0.60839">
        <ele>93</ele>
        <time>2020-07-11T21:52:44Z</time>
      </trkpt>
      <trkpt lat="47.41632" lon="0.60833">
        <ele>93</ele>
        <time>2020-07-11T21:52:45Z</time>
      </trkpt>
      <trkpt lat="47.41608" lon="0.60764">
        <ele>93</ele>
        <time>2020-07-11T21:52:54Z</time>
      </trkpt>
      <trkpt lat="47.41594" lon="0.60689">
        <ele>92</ele>
        <time>2020-07-11T21:53:04Z</time>
      </trkpt>
      <trkpt lat="47.41587" lon="0.60674">
        <ele>92</ele>
        <time>2020-07-11T21:53:06Z</time>
      </trkpt>
      <trkpt lat="47.41589" lon="0.6067">
        <ele>92</ele>
        <time>2020-07-11T21:53:07Z</time>
      </trkpt>
      <trkpt lat="47.41591" lon="0.60659">
        <ele>92</ele>
        <time>2020-07-11T21:53:08Z</time>
      </trkpt>
      <trkpt lat="47.4159" lon="0.60654">
        <ele>91</ele>
        <time>2020-07-11T21:53:09Z</time>
      </trkpt>
      <trkpt lat="47.41589" lon="0.60649">
        <ele>91</ele>
        <time>2020-07-11T21:53:09Z</time>
      </trkpt>
      <trkpt lat="47.41601" lon="0.60635">
        <ele>91</ele>
        <time>2020-07-11T21:53:12Z</time>
      </trkpt>
      <trkpt lat="47.41668" lon="0.60571">
        <ele>89</ele>
        <time>2020-07-11T21:53:26Z</time>
      </trkpt>
      <trkpt lat="47.41835" lon="0.60405">
        <ele>89</ele>
        <time>2020-07-11T21:54:02Z</time>
      </trkpt>
      <trkpt lat="47.41887" lon="0.60356">
        <ele>89</ele>
        <time>2020-07-11T21:54:13Z</time>
      </trkpt>
      <trkpt lat="47.41942" lon="0.60313">
        <ele>90</ele>
        <time>2020-07-11T21:54:24Z</time>
      </trkpt>
      <trkpt lat="47.41953" lon="0.60306">
        <ele>91</ele>
        <time>2020-07-11T21:54:26Z</time>
      </trkpt>
      <trkpt lat="47.41979" lon="0.6029">
        <ele>92</ele>
        <time>2020-07-11T21:54:31Z</time>
      </trkpt>
      <trkpt lat="47.42014" lon="0.60267">
        <ele>93</ele>
        <time>2020-07-11T21:54:38Z</time>
      </trkpt>
      <trkpt lat="47.42021" lon="0.60261">
        <ele>93</ele>
        <time>2020-07-11T21:54:39Z</time>
      </trkpt>
      <trkpt lat="47.42062" lon="0.60232">
        <ele>93</ele>
        <time>2020-07-11T21:54:48Z</time>
      </trkpt>
      <trkpt lat="47.42133" lon="0.60168">
        <ele>93</ele>
        <time>2020-07-11T21:55:02Z</time>
      </trkpt>
      <trkpt lat="47.42135" lon="0.60167">
        <ele>93</ele>
        <time>2020-07-11T21:55:03Z</time>
      </trkpt>
      <trkpt lat="47.42177" lon="0.6013">
        <ele>93</ele>
        <time>2020-07-11T21:55:11Z</time>
      </trkpt>
      <trkpt lat="47.42248" lon="0.60067">
        <ele>93</ele>
        <time>2020-07-11T21:55:26Z</time>
      </trkpt>
      <trkpt lat="47.42277" lon="0.60045">
        <ele>94</ele>
        <time>2020-07-11T21:55:32Z</time>
      </trkpt>
      <trkpt lat="47.42311" lon="0.60019">
        <ele>94</ele>
        <time>2020-07-11T21:55:39Z</time>
      </trkpt>
      <trkpt lat="47.4234" lon="0.59998">
        <ele>94</ele>
        <time>2020-07-11T21:55:44Z</time>
      </trkpt>
      <trkpt lat="47.42357" lon="0.59982">
        <ele>94</ele>
        <time>2020-07-11T21:55:48Z</time>
      </trkpt>
      <trkpt lat="47.42394" lon="0.59937">
        <ele>94</ele>
        <time>2020-07-11T21:55:57Z</time>
      </trkpt>
      <trkpt lat="47.42419" lon="0.59903">
        <ele>94</ele>
        <time>2020-07-11T21:56:03Z</time>
      </trkpt>
      <trkpt lat="47.42478" lon="0.59807">
        <ele>95</ele>
        <time>2020-07-11T21:56:18Z</time>
      </trkpt>
      <trkpt lat="47.42579" lon="0.59686">
        <ele>95</ele>
        <time>2020-07-11T21:56:41Z</time>
      </trkpt>
      <trkpt lat="47.42644" lon="0.59612">
        <ele>94</ele>
        <time>2020-07-11T21:56:56Z</time>
      </trkpt>
      <trkpt lat="47.42679" lon="0.59571">
        <ele>94</ele>
        <time>2020-07-11T21:57:04Z</time>
      </trkpt>
      <trkpt lat="47.4264" lon="0.59457">
        <ele>94</ele>
        <time>2020-07-11T21:57:19Z</time>
      </trkpt>
      <trkpt lat="47.42568" lon="0.59297">
        <ele>95</ele>
        <time>2020-07-11T21:57:42Z</time>
      </trkpt>
      <trkpt lat="47.42478" lon="0.59151">
        <ele>94</ele>
        <time>2020-07-11T21:58:06Z</time>
      </trkpt>
      <trkpt lat="47.4247" lon="0.59132">
        <ele>95</ele>
        <time>2020-07-11T21:58:09Z</time>
      </trkpt>
      <trkpt lat="47.4247" lon="0.59112">
        <ele>95</ele>
        <time>2020-07-11T21:58:11Z</time>
      </trkpt>
      <trkpt lat="47.42502" lon="0.58849">
        <ele>96</ele>
        <time>2020-07-11T21:58:43Z</time>
      </trkpt>
      <trkpt lat="47.42504" lon="0.58823">
        <ele>95</ele>
        <time>2020-07-11T21:58:47Z</time>
      </trkpt>
      <trkpt lat="47.42498" lon="0.58799">
        <ele>95</ele>
        <time>2020-07-11T21:58:50Z</time>
      </trkpt>
      <trkpt lat="47.42475" lon="0.58732">
        <ele>95</ele>
        <time>2020-07-11T21:58:59Z</time>
      </trkpt>
      <trkpt lat="47.42517" lon="0.58701">
        <ele>97</ele>
        <time>2020-07-11T21:59:07Z</time>
      </trkpt>
      <trkpt lat="47.42432" lon="0.58221">
        <ele>97</ele>
        <time>2020-07-11T22:00:07Z</time>
      </trkpt>
      <trkpt lat="47.42395" lon="0.58227">
        <ele>97</ele>
        <time>2020-07-11T22:00:13Z</time>
      </trkpt>
    </trkseg>
  </trk>
</gpx>